[[{"header":{"parameterUnit":"m.s-1","parameterCategory":1,"la1":30.6,"la2":29.2853,"lo1":-89.7004,"lo2":-87.6739,"dy":0.0162,"dx":0.0183,"nx":112,"ny":82,"refTime":"2026-03-03T12:00:00:Z","depth":0,"parameterNumber":2,"parameterNumberName":"U-component_of_WINDS"},"data":[0.0,0.0,0.0,0.0,0.0,0.0,0.0,0.0,0.0,0.0,0.0,0.0,0.0,0.0,0.0,0.0,0.0,0.0,0.0,0.0,0.0,0.0,0.0,0.0,0.0,0.0,0.0,0.0,0.0,0.0,0.0,0.0,0.0,0.0,0.0,0.0,0.0,0.0,0.0,0.0,0.0,0.0,0.0,0.0,0.0,0.0,0.0,0.0,0.0,0.0,0.0,0.0,0.0,0.0,0.0,0.0,0.0,0.0,0.0,0.0,0.0,0.0,0.0,0.0,0.0,0.0,0.0,0.0,0.0,0.0,0.0,0.0,0.0,0.0,0.0,0.0,0.0,0.0,0.0,0.0,0.0,0.0,0.0,0.0,0.0,0.0,0.0,0.0,0.0,0.0,0.0,-2.3425,-2.6239,-2.7799,-2.7442,-2.6987,-2.5459,-2.2515,0.0,0.0,0.0,0.0,0.0,0.0,0.0,0.0,0.0,0.0,0.0,0.0,0.0,0.0,0.0,0.0,0.0,0.0,0.0,0.0,0.0,0.0,0.0,0.0,0.0,0.0,0.0,0.0,0.0,0.0,0.0,0.0,0.0,0.0,0.0,0.0,0.0,0.0,0.0,0.0,0.0,0.0,0.0,0.0,0.0,0.0,0.0,0.0,0.0,0.0,0.0,0.0,0.0,0.0,0.0,0.0,0.0,0.0,0.0,0.0,0.0,0.0,0.0,0.0,0.0,0.0,0.0,0.0,0.0,0.0,0.0,0.0,0.0,0.0,0.0,0.0,0.0,0.0,0.0,0.0,0.0,0.0,0.0,0.0,0.0,0.0,0.0,0.0,0.0,0.0,0.0,0.0,0.0,0.0,0.0,0.0,0.0,0.0,0.0,0.0,0.0,0.0,0.0,0.0,-2.1223,-2.5223,-2.657,-2.7148,-2.7092,-2.6147,-2.453,-2.212,0.0,0.0,0.0,0.0,0.0,0.0,0.0,0.0,0.0,0.0,0.0,0.0,0.0,0.0,0.0,0.0,0.0,0.0,0.0,0.0,0.0,0.0,0.0,0.0,0.0,0.0,0.0,0.0,0.0,0.0,0.0,0.0,0.0,0.0,0.0,0.0,0.0,0.0,0.0,0.0,0.0,0.0,0.0,0.0,0.0,0.0,0.0,0.0,0.0,0.0,0.0,0.0,0.0,0.0,0.0,0.0,0.0,0.0,0.0,0.0,0.0,0.0,0.0,0.0,0.0,0.0,0.0,0.0,0.0,0.0,0.0,0.0,0.0,0.0,0.0,0.0,0.0,0.0,0.0,0.0,0.0,0.0,0.0,0.0,0.0,0.0,0.0,0.0,0.0,0.0,0.0,0.0,0.0,0.0,0.0,0.0,0.0,0.0,0.0,0.0,0.0,0.0,0.0,-2.0131,-2.1712,-2.4548,-2.5701,-2.6277,-2.6346,-2.5199,-2.3754,-2.2012,-1.9597,0.0,0.0,0.0,0.0,0.0,0.0,0.0,0.0,0.0,0.0,0.0,0.0,0.0,0.0,0.0,0.0,0.0,0.0,0.0,0.0,0.0,0.0,0.0,0.0,0.0,0.0,0.0,0.0,0.0,0.0,0.0,0.0,0.0,0.0,0.0,0.0,0.0,0.0,0.0,0.0,0.0,0.0,0.0,0.0,0.0,0.0,0.0,0.0,0.0,0.0,0.0,0.0,0.0,0.0,0.0,0.0,0.0,0.0,0.0,0.0,0.0,0.0,0.0,0.0,0.0,0.0,0.0,0.0,0.0,0.0,0.0,0.0,0.0,0.0,0.0,0.0,0.0,0.0,0.0,0.0,0.0,0.0,0.0,0.0,0.0,0.0,0.0,0.0,0.0,0.0,0.0,0.0,0.0,0.0,0.0,0.0,0.0,0.0,0.0,0.0,0.0,0.0,-2.1554,-2.2381,-2.3723,-2.4708,-2.5251,-2.5258,-2.4013,-2.2686,-2.1448,-1.8532,0.0,0.0,0.0,0.0,0.0,0.0,0.0,0.0,0.0,0.0,0.0,0.0,0.0,0.0,0.0,0.0,0.0,0.0,0.0,0.0,0.0,0.0,0.0,0.0,0.0,0.0,0.0,0.0,0.0,0.0,0.0,0.0,0.0,0.0,0.0,0.0,0.0,0.0,0.0,0.0,0.0,0.0,0.0,0.0,0.0,0.0,0.0,0.0,0.0,0.0,0.0,0.0,0.0,0.0,0.0,0.0,0.0,0.0,0.0,0.0,0.0,0.0,0.0,0.0,0.0,0.0,0.0,0.0,0.0,0.0,0.0,0.0,0.0,0.0,0.0,0.0,0.0,0.0,0.0,0.0,0.0,0.0,0.0,0.0,0.0,0.0,0.0,0.0,0.0,0.0,0.0,0.0,0.0,0.0,0.0,0.0,0.0,0.0,0.0,0.0,0.0,0.0,-2.1362,-2.2926,-2.3984,-2.4158,-2.4068,-2.3688,-2.2331,-2.1026,-1.9909,-1.7364,0.0,0.0,0.0,0.0,0.0,0.0,0.0,0.0,0.0,0.0,0.0,0.0,0.0,0.0,0.0,0.0,0.0,0.0,0.0,0.0,0.0,0.0,0.0,0.0,0.0,0.0,0.0,0.0,0.0,0.0,0.0,0.0,0.0,0.0,0.0,0.0,0.0,0.0,0.0,0.0,0.0,0.0,0.0,0.0,0.0,0.0,0.0,0.0,0.0,0.0,0.0,0.0,0.0,0.0,0.0,0.0,0.0,0.0,0.0,0.0,0.0,0.0,0.0,0.0,0.0,0.0,0.0,0.0,0.0,0.0,0.0,0.0,0.0,0.0,0.0,0.0,0.0,0.0,0.0,0.0,0.0,0.0,0.0,0.0,0.0,0.0,0.0,0.0,0.0,0.0,0.0,0.0,0.0,0.0,0.0,0.0,0.0,0.0,0.0,0.0,0.0,0.0,-2.023,-2.1324,0.0,-2.3117,-2.3223,-2.2804,-2.1967,-2.0839,-1.9312,0.0,0.0,0.0,0.0,0.0,0.0,0.0,0.0,0.0,0.0,0.0,0.0,0.0,0.0,0.0,0.0,0.0,0.0,0.0,0.0,0.0,0.0,0.0,0.0,0.0,0.0,0.0,0.0,0.0,0.0,0.0,0.0,0.0,0.0,0.0,0.0,0.0,0.0,0.0,0.0,0.0,0.0,0.0,0.0,0.0,0.0,0.0,0.0,0.0,0.0,0.0,0.0,0.0,0.0,0.0,0.0,0.0,0.0,0.0,0.0,0.0,0.0,0.0,0.0,0.0,0.0,0.0,0.0,0.0,0.0,0.0,0.0,0.0,0.0,0.0,0.0,0.0,0.0,0.0,0.0,0.0,0.0,0.0,0.0,0.0,0.0,0.0,0.0,0.0,0.0,0.0,0.0,0.0,0.0,0.0,0.0,0.0,0.0,0.0,0.0,0.0,0.0,-1.8886,-1.9672,-2.0463,0.0,-2.2289,-2.237,-2.1736,-2.0997,-1.9888,-1.8222,0.0,0.0,0.0,0.0,0.0,0.0,0.0,0.0,0.0,0.0,0.0,0.0,0.0,0.0,0.0,0.0,0.0,0.0,0.0,0.0,0.0,0.0,0.0,0.0,0.0,0.0,0.0,0.0,0.0,0.0,0.0,0.0,0.0,0.0,0.0,0.0,0.0,0.0,0.0,0.0,0.0,0.0,0.0,0.0,0.0,0.0,0.0,0.0,0.0,0.0,0.0,0.0,0.0,0.0,0.0,0.0,0.0,0.0,0.0,0.0,0.0,0.0,0.0,0.0,0.0,0.0,0.0,0.0,0.0,0.0,0.0,0.0,0.0,0.0,0.0,0.0,0.0,0.0,0.0,0.0,0.0,0.0,0.0,0.0,0.0,0.0,0.0,0.0,0.0,0.0,0.0,0.0,0.0,0.0,0.0,0.0,0.0,0.0,0.0,0.0,0.0,0.0,-1.8917,-1.9917,-2.0746,-2.1704,-2.1807,-2.1424,-2.0467,-1.9178,-1.783,0.0,0.0,0.0,0.0,0.0,0.0,0.0,0.0,0.0,0.0,0.0,0.0,0.0,0.0,0.0,0.0,0.0,0.0,0.0,0.0,0.0,0.0,0.0,0.0,0.0,0.0,0.0,0.0,0.0,0.0,0.0,0.0,0.0,0.0,0.0,0.0,0.0,0.0,0.0,0.0,0.0,0.0,0.0,0.0,0.0,0.0,0.0,0.0,0.0,0.0,0.0,0.0,0.0,0.0,0.0,0.0,0.0,0.0,0.0,0.0,0.0,0.0,0.0,0.0,0.0,0.0,0.0,0.0,0.0,0.0,0.0,0.0,0.0,0.0,0.0,0.0,0.0,0.0,0.0,0.0,0.0,0.0,0.0,0.0,0.0,0.0,0.0,0.0,0.0,0.0,0.0,0.0,0.0,0.0,0.0,0.0,0.0,0.0,0.0,0.0,0.0,0.0,0.0,-1.8403,-1.9684,-2.0746,-2.1704,-2.1807,-2.1424,-2.0467,-1.9768,-1.854,-1.6528,0.0,0.0,0.0,0.0,0.0,0.0,0.0,0.0,0.0,0.0,0.0,0.0,0.0,0.0,0.0,0.0,0.0,0.0,0.0,0.0,0.0,0.0,0.0,0.0,0.0,0.0,0.0,0.0,0.0,0.0,0.0,0.0,0.0,0.0,0.0,0.0,0.0,0.0,0.0,0.0,0.0,0.0,0.0,0.0,0.0,0.0,0.0,0.0,0.0,0.0,0.0,0.0,0.0,0.0,0.0,0.0,0.0,0.0,0.0,0.0,0.0,0.0,0.0,0.0,0.0,0.0,0.0,0.0,0.0,0.0,0.0,0.0,0.0,0.0,0.0,0.0,0.0,0.0,0.0,0.0,0.0,0.0,0.0,0.0,0.0,0.0,0.0,0.0,0.0,0.0,0.0,0.0,0.0,0.0,0.0,0.0,0.0,0.0,0.0,0.0,0.0,0.0,-1.7974,-1.9383,-2.0538,-2.1448,-2.154,-2.1172,-2.0262,-1.9643,-1.8322,-1.6069,0.0,0.0,0.0,0.0,0.0,0.0,0.0,0.0,0.0,0.0,0.0,0.0,0.0,0.0,0.0,0.0,0.0,0.0,0.0,0.0,0.0,0.0,0.0,0.0,0.0,0.0,0.0,0.0,0.0,0.0,0.0,0.0,0.0,0.0,0.0,0.0,0.0,0.0,0.0,0.0,0.0,0.0,0.0,0.0,0.0,0.0,0.0,0.0,0.0,0.0,0.0,0.0,0.0,0.0,0.0,0.0,0.0,0.0,0.0,0.0,0.0,0.0,0.0,0.0,0.0,0.0,0.0,0.0,0.0,0.0,0.0,0.0,0.0,0.0,0.0,0.0,0.0,0.0,0.0,0.0,0.0,0.0,0.0,0.0,0.0,0.0,0.0,0.0,0.0,0.0,0.0,0.0,0.0,0.0,0.0,0.0,0.0,0.0,0.0,0.0,0.0,0.0,-1.7612,-1.9032,-2.0229,-2.1115,-2.1205,-2.0853,-1.9968,-1.9068,-1.7652,-1.5445,0.0,0.0,0.0,0.0,0.0,0.0,0.0,0.0,0.0,0.0,0.0,0.0,0.0,0.0,0.0,0.0,0.0,0.0,0.0,0.0,0.0,0.0,0.0,0.0,0.0,0.0,0.0,0.0,0.0,0.0,0.0,0.0,0.0,0.0,0.0,0.0,0.0,0.0,0.0,0.0,0.0,0.0,0.0,0.0,0.0,0.0,0.0,0.0,0.0,0.0,0.0,0.0,0.0,0.0,0.0,0.0,0.0,0.0,0.0,0.0,-1.7835,0.0,0.0,0.0,0.0,0.0,0.0,0.0,0.0,0.0,0.0,0.0,0.0,0.0,0.0,0.0,0.0,0.0,0.0,0.0,0.0,0.0,0.0,0.0,0.0,0.0,0.0,0.0,0.0,0.0,0.0,0.0,0.0,0.0,0.0,0.0,0.0,0.0,0.0,0.0,0.0,0.0,-1.7144,-1.8849,-2.0229,-2.1115,-2.1205,-2.0853,-1.9968,-1.9394,-1.8245,-1.6337,-1.46,0.0,0.0,0.0,0.0,0.0,0.0,0.0,0.0,0.0,0.0,0.0,0.0,0.0,0.0,0.0,0.0,0.0,0.0,0.0,0.0,0.0,0.0,0.0,0.0,0.0,0.0,0.0,0.0,0.0,0.0,0.0,0.0,0.0,0.0,0.0,0.0,0.0,0.0,0.0,0.0,0.0,0.0,0.0,0.0,0.0,0.0,0.0,0.0,0.0,0.0,0.0,0.0,0.0,0.0,0.0,0.0,0.0,0.0,0.0,0.0,-1.8594,0.0,0.0,0.0,0.0,0.0,0.0,0.0,0.0,0.0,0.0,0.0,0.0,0.0,0.0,0.0,0.0,0.0,0.0,0.0,0.0,0.0,0.0,0.0,0.0,0.0,0.0,0.0,0.0,0.0,0.0,0.0,0.0,0.0,0.0,0.0,0.0,0.0,0.0,0.0,0.0,-1.705,-1.8636,-1.9962,-2.0836,-2.0925,-2.0657,-1.9955,-1.93,-1.8368,-1.7009,-1.5315,0.0,0.0,0.0,0.0,0.0,0.0,0.0,0.0,0.0,0.0,0.0,0.0,0.0,0.0,0.0,0.0,0.0,0.0,0.0,0.0,0.0,0.0,0.0,0.0,0.0,0.0,0.0,0.0,0.0,0.0,0.0,0.0,0.0,0.0,0.0,0.0,0.0,0.0,0.0,0.0,0.0,0.0,0.0,0.0,0.0,0.0,0.0,0.0,0.0,0.0,0.0,0.0,0.0,-2.2422,-2.3086,-2.3883,-2.3883,-2.3867,-2.3783,-2.2041,-2.1123,-2.086,0.0,0.0,0.0,0.0,0.0,0.0,0.0,0.0,0.0,0.0,0.0,0.0,0.0,0.0,0.0,0.0,0.0,0.0,0.0,0.0,0.0,0.0,0.0,0.0,0.0,-1.8652,-1.7885,0.0,0.0,0.0,0.0,0.0,0.0,0.0,0.0,0.0,0.0,0.0,0.0,-1.7151,-1.8555,-1.9697,-2.0517,-2.0605,-2.0429,-1.9951,-1.9231,-1.8432,-1.7549,-1.6105,-1.4725,0.0,0.0,0.0,0.0,0.0,0.0,0.0,0.0,0.0,0.0,0.0,0.0,0.0,0.0,0.0,0.0,0.0,0.0,0.0,0.0,0.0,0.0,0.0,0.0,0.0,0.0,0.0,0.0,0.0,0.0,0.0,0.0,-1.7305,-1.7373,0.0,0.0,0.0,0.0,0.0,0.0,0.0,0.0,0.0,0.0,0.0,0.0,0.0,-2.121,-2.1992,-2.3213,-2.4072,-2.4617,-2.54,-2.6045,-2.6514,-2.6514,-2.6719,-2.7102,-2.6768,0.0,-2.2217,-2.168,0.0,0.0,0.0,0.0,0.0,0.0,0.0,0.0,0.0,0.0,0.0,0.0,0.0,0.0,0.0,0.0,0.0,0.0,0.0,0.0,0.0,0.0,-2.0048,-1.9795,-1.999,-2.0067,0.0,-1.7178,-1.5253,-1.4608,0.0,0.0,0.0,0.0,0.0,0.0,0.0,0.0,-1.7197,-1.8818,-2.0019,-2.0546,-2.0605,-2.0429,-1.9951,-1.9805,-1.9228,-1.8008,-1.7373,-1.6652,-1.5713,-1.416,0.0,0.0,0.0,0.0,0.0,0.0,0.0,0.0,0.0,0.0,0.0,0.0,0.0,0.0,0.0,0.0,0.0,0.0,0.0,0.0,0.0,0.0,0.0,0.0,0.0,0.0,0.0,0.0,0.0,-1.7359,-1.8419,-1.8115,-1.8301,-1.8096,0.0,0.0,0.0,0.0,0.0,0.0,0.0,0.0,0.0,-2.2344,-2.3037,-2.3691,-2.427,-2.5596,-2.6455,-2.6885,-2.751,-2.8037,-2.8447,-2.8447,-2.8555,-2.8785,-2.8785,-2.7744,-2.5986,-2.4346,-2.291,-2.1631,0.0,0.0,0.0,0.0,-2.0156,-2.0196,-2.1201,-2.1504,0.0,-2.0908,0.0,0.0,0.0,0.0,0.0,0.0,0.0,0.0,0.0,0.0,0.0,-2.1973,-2.2051,-2.1963,-2.1777,-2.0127,-1.8237,0.0,-1.6299,-1.543,-1.3588,0.0,0.0,0.0,0.0,-1.659,-1.792,-1.916,-2.0078,-2.0556,-2.0605,-2.0527,-2.0303,-2.0059,-1.958,-1.8779,-1.8105,-1.7344,-1.6475,-1.5234,-1.415,0.0,0.0,0.0,0.0,0.0,0.0,0.0,0.0,0.0,0.0,0.0,0.0,0.0,0.0,0.0,0.0,0.0,0.0,0.0,0.0,0.0,0.0,0.0,0.0,0.0,0.0,0.0,0.0,-1.8184,-1.9453,-1.8978,-1.9551,-1.9453,0.0,0.0,0.0,0.0,0.0,0.0,-2.1941,-2.2568,-2.3408,-2.458,-2.5439,-2.6103,-2.6493,-2.7617,-2.8413,-2.8779,-2.9092,-2.9482,-2.9912,-2.9912,-2.9912,-2.9912,-2.9912,-2.9658,-2.9062,-2.6699,-2.5096,-2.3912,-2.2676,-2.1943,-2.1672,-2.2285,-2.2402,-2.2393,-2.3672,-2.3984,-2.3721,-2.3076,0.0,-2.1465,-2.0021,0.0,0.0,0.0,0.0,-2.0391,-2.1582,-2.2129,-2.2637,-2.3701,-2.3701,-2.3467,-2.3477,-2.2559,-2.1073,0.0,-1.8486,-1.7656,-1.5469,0.0,0.0,0.0,0.0,-1.7574,-1.8637,-1.9551,-2.0205,-2.0566,-2.0605,-2.0605,-2.0605,-2.0273,-1.9902,-1.9473,-1.875,-1.8008,-1.7223,-1.6377,-1.5361,-1.4189,0.0,0.0,0.0,0.0,0.0,0.0,0.0,0.0,0.0,0.0,0.0,0.0,0.0,0.0,0.0,0.0,0.0,0.0,0.0,0.0,0.0,0.0,0.0,0.0,0.0,0.0,0.0,0.0,0.0,-1.9902,-2.0977,0.0,0.0,0.0,0.0,-2.1005,-2.1865,-2.291,-2.4189,-2.5031,-2.5898,-2.6826,-2.7685,-2.833,-2.876,-2.9238,-2.9687,-3.0098,-3.0117,-3.0371,-3.082,-3.082,-3.082,-3.082,-3.082,-3.0566,-2.999,-2.8305,-2.7012,-2.6133,-2.5225,-2.4609,-2.4228,-2.4277,-2.4541,-2.494,-2.5018,-2.5273,-2.5557,-2.5508,-2.4424,-2.3022,-2.2471,-2.1748,0.0,0.0,-2.2031,-2.2549,-2.3437,-2.3682,-2.3809,-2.4277,-2.4365,-2.4355,-2.4355,-2.3617,-2.2487,0.0,-1.9822,-1.8926,-1.7978,0.0,-1.7246,-1.7259,-1.7978,-1.8676,-1.9189,-2.0038,-2.0576,-2.0605,-2.0605,-2.0605,-2.0605,-2.0586,-2.039,-1.9912,-1.9473,-1.9014,-1.8529,-1.7734,-1.6887,-1.5987,-1.4297,0.0,0.0,0.0,0.0,0.0,0.0,0.0,0.0,0.0,0.0,0.0,0.0,0.0,0.0,0.0,0.0,0.0,0.0,0.0,0.0,0.0,0.0,0.0,0.0,0.0,0.0,0.0,0.0,-2.2021,-2.3188,0.0,-2.2077,-2.2383,-2.2822,-2.3252,-2.4355,-2.5449,-2.6455,-2.7324,-2.8057,-2.8643,-2.9219,-2.959,-2.9736,-3.0195,-3.0498,-3.0644,-3.0644,-3.0606,-3.0577,-3.0577,-3.046,-3.0284,-3.0284,-3.0161,-2.9861,-2.8981,-2.8228,-2.7529,-2.666,-2.623,-2.6094,-2.6094,-2.6182,-2.6318,-2.6119,-2.6166,-2.6203,-2.5724,-2.4813,-2.3867,-2.3714,-2.3274,-2.2853,-2.3156,-2.3345,-2.3641,-2.4417,-2.4666,-2.4727,-2.5156,-2.5049,-2.4834,-2.4834,-2.416,-2.3379,-2.2764,-2.1504,-2.0264,-1.9385,-1.9346,-1.9284,-1.8691,-1.958,-2.0323,-2.0518,-2.1055,-2.1456,-2.1456,-2.1162,-2.0996,-2.0996,-2.0732,-2.0302,-1.9561,-1.9375,-1.8975,-1.8227,-1.7389,-1.668,-1.6105,-1.495,-1.3555,0.0,0.0,0.0,0.0,0.0,0.0,0.0,0.0,0.0,0.0,0.0,0.0,0.0,0.0,0.0,0.0,0.0,0.0,0.0,0.0,0.0,0.0,0.0,0.0,0.0,0.0,-2.3623,-2.3834,-2.5125,-2.5498,-2.4346,-2.4756,-2.5273,-2.5693,-2.667,-2.7549,-2.8325,-2.8865,-2.9449,-3.0,-3.0159,-3.0373,-3.0644,-3.0684,-3.0704,-3.0704,-3.0645,-3.047,-3.0216,-3.0333,-3.0274,-3.0098,-3.0098,-2.9977,-2.9738,-2.9192,-2.8663,-2.8178,-2.7775,-2.7604,-2.7509,-2.7614,-2.7656,-2.7584,-2.7282,-2.7085,-2.6869,-2.6426,-2.576,-2.5205,-2.5205,-2.5014,-2.4833,-2.4958,-2.4996,-2.5083,-2.5324,-2.5411,-2.5402,-2.545,-2.5218,-2.5044,-2.5149,-2.4596,-2.4098,-2.4033,-2.2734,-2.1444,-2.0889,-2.0918,-2.086,-2.0254,-2.0898,-2.1455,-2.1455,-2.1709,-2.1885,-2.1885,-2.1621,-2.1356,-2.121,-2.082,-2.0302,-1.9541,-1.9228,-1.875,-1.8037,-1.7324,-1.667,-1.6105,-1.5078,-1.3867,-1.2418,0.0,0.0,0.0,0.0,0.0,0.0,0.0,0.0,0.0,0.0,0.0,0.0,0.0,0.0,0.0,0.0,0.0,0.0,0.0,0.0,0.0,0.0,0.0,-2.1249,-2.3164,-2.4668,-2.5184,-2.674,-2.7454,-2.6572,-2.7236,-2.7891,-2.8301,-2.8721,-2.9141,-2.957,-2.9783,-3.0161,-3.0879,-3.0577,-3.077,-3.1435,-3.0712,-3.0382,-3.0382,-3.0039,-2.9922,-2.9922,-3.0206,-3.0392,-3.0382,-3.0382,-3.0151,-2.9738,-2.9031,-2.8445,-2.8167,-2.8633,-2.8687,-2.8487,-2.8742,-2.8842,-2.8783,-2.8374,-2.7974,-2.7685,-2.7685,-2.7341,-2.698,-2.698,-2.698,-2.6961,-2.6961,-2.6961,-2.6812,-2.6203,-2.5987,-2.5822,-2.5104,-2.4941,-2.499,-2.5235,-2.5006,-2.463,-2.4456,-2.3408,-2.2549,-2.2539,-2.2197,-2.1924,-2.1924,-2.1924,0.0,-2.1924,-2.1924,-2.1924,-2.1924,-2.1914,-2.1738,-2.1268,-2.085,-2.0391,-1.9941,-1.9075,-1.8412,-1.8027,-1.7598,-1.6985,-1.6114,-1.4834,-1.3779,-1.2964,0.0,0.0,0.0,0.0,0.0,0.0,0.0,0.0,0.0,0.0,0.0,0.0,0.0,0.0,0.0,0.0,0.0,0.0,0.0,0.0,0.0,-2.1055,-2.2451,-2.3818,-2.5332,-2.6689,-2.7734,-2.8564,-2.901,-2.8721,-2.8961,-2.9092,-2.9209,-2.9609,-2.9893,-3.0019,-3.0401,-3.0577,-3.0509,-3.045,-3.0391,-3.0329,-3.0155,-3.0039,-3.0039,-2.9922,-2.9804,-2.9618,-2.9686,-2.9618,-2.939,-2.939,-2.9275,-2.9047,-2.8877,-2.8361,-2.7761,-2.777,-2.7765,-2.771,-2.7765,-2.7701,-2.7519,-2.7406,-2.714,-2.6903,-2.6903,-2.6614,-2.6268,-2.6268,-2.6063,-2.5881,-2.6097,-2.6149,-2.6172,-2.6407,-2.6037,-2.5679,-2.5923,-2.5564,-2.5235,-2.5538,-2.5295,-2.4847,-2.4502,-2.3887,-2.334,-2.2974,-2.2828,-2.275,-2.275,-2.275,0.0,-2.275,-2.275,-2.275,-2.275,-2.2519,-2.2295,-2.2168,-2.1475,-2.0723,-1.9961,-1.9075,-1.8412,-1.8027,-1.7305,-1.6641,-1.6105,-1.5743,-1.5146,0.0,0.0,0.0,0.0,0.0,0.0,0.0,0.0,0.0,0.0,0.0,0.0,0.0,0.0,0.0,0.0,0.0,0.0,0.0,0.0,0.0,0.0,-2.331,-2.4932,-2.6465,-2.7178,-2.8027,-2.9307,-2.9853,-3.0117,-3.0117,-3.0117,-3.0117,-3.0117,-3.0351,-3.0488,-3.0488,-3.05,-3.0537,-3.0642,-3.0243,-3.0066,-3.0187,-2.9889,-2.9745,-2.9745,-2.9568,-2.945,-2.9272,-2.945,-2.9381,0.0,-2.9213,-2.904,-2.8767,-2.8661,-2.829,0.0,0.0,0.0,0.0,0.0,-2.7465,-2.7152,-2.7152,-2.7053,-2.6954,-2.6954,-2.6786,-2.6582,-2.6582,-2.6423,-2.629,-2.6458,-2.6458,-2.6516,-2.665,-2.637,-2.6043,-2.6064,-2.5735,-2.5455,-2.5528,-2.5334,-2.5072,-2.4598,-2.4217,0.0,-2.3165,-2.3076,-2.3091,-2.3091,-2.3091,-2.3091,-2.3091,-2.3091,-2.3091,-2.3091,-2.2877,-2.2662,-2.2529,-2.1687,0.0,0.0,0.0,-1.8633,-1.8037,-1.7155,0.0,0.0,0.0,0.0,0.0,0.0,0.0,0.0,-1.4531,-1.4473,0.0,0.0,0.0,0.0,0.0,0.0,0.0,0.0,0.0,0.0,0.0,0.0,0.0,0.0,0.0,0.0,-2.5742,-2.7549,-2.8877,-2.874,-2.8945,-3.0137,-3.0644,-3.0908,-3.0957,-3.0957,-3.0957,-3.0957,-3.0957,-3.0937,-3.083,0.0,0.0,0.0,0.0,-2.9864,-3.054,-2.9864,-2.9499,-2.9499,-2.9153,-2.8984,-2.8984,-2.9331,-2.944,-2.944,-2.944,-2.9235,-2.8784,-2.8569,-2.8214,-2.7886,-2.8361,-2.8145,-2.7586,-2.7834,-2.7644,-2.7323,-2.7323,0.0,0.0,-2.7323,-2.7323,-2.7323,-2.7323,-2.7323,-2.7323,-2.7323,-2.7323,-2.7239,-2.6933,-2.6801,-2.6565,-2.5873,-2.5654,-2.5553,-2.5282,-2.5235,-2.5159,-2.4746,-2.4353,-2.3894,-2.3235,-2.3047,-2.3013,-2.3013,-2.3013,-2.3013,-2.3013,-2.3047,-2.3047,-2.3003,0.0,0.0,-2.2574,-2.1804,-2.1191,-2.0781,-1.9902,-1.9007,-1.8193,-1.7438,-1.7213,-1.7621,-1.7646,-1.7852,-1.8223,-1.8281,-1.832,-1.833,-1.656,-1.6406,0.0,0.0,0.0,0.0,0.0,0.0,0.0,0.0,0.0,0.0,0.0,0.0,0.0,0.0,0.0,-2.5021,-2.6592,-2.8105,-2.9717,-2.9883,-3.0059,-3.0684,-3.084,-3.1025,-3.1367,-3.1396,-3.1396,-3.1396,-3.1396,-3.1122,-3.0528,-3.0392,-3.0244,-3.0104,-2.9901,-2.9901,-3.0045,-2.9664,-2.9499,-2.9499,0.0,0.0,-2.8984,-2.9044,-2.9103,-2.9103,-2.9103,-2.9057,-2.8983,-2.8924,-2.8636,-2.8205,-2.7714,-2.741,-2.7243,-2.6976,-2.6819,-2.6745,-2.6745,-2.6745,-2.6745,-2.6745,-2.6745,-2.6745,-2.6745,-2.6745,0.0,-2.6745,-2.6745,-2.6836,-2.7175,-2.6902,-2.6483,-2.6439,-2.6006,-2.5503,-2.5076,-2.4981,-2.4867,-2.4449,-2.4307,-2.4155,-2.3857,-2.3114,-2.253,-2.253,-2.253,-2.253,-2.253,-2.2706,-2.2794,-2.2574,-2.2872,-2.2974,-2.2775,-2.2431,-2.208,-2.166,-2.0643,-1.9743,-1.9072,-1.9037,-1.9008,-1.8926,-1.9258,-1.9463,-1.9541,-1.9902,-2.0254,-2.0527,-1.8783,-1.811,0.0,0.0,0.0,0.0,0.0,0.0,0.0,0.0,0.0,0.0,0.0,-2.0977,-2.2256,0.0,-2.5264,-2.6777,-2.8096,-2.9228,-3.0078,-3.04,-3.0635,-3.0859,-3.0889,-3.0976,-3.1182,-3.1201,-3.1201,-3.1201,-3.1201,-3.1045,-3.0655,-3.0509,-3.0333,-3.0157,-2.9981,-2.9922,-2.9922,-2.9618,-2.9499,-2.9499,-2.9153,-2.8984,-2.8984,-2.8984,-2.8984,-2.8984,-2.8984,-2.8984,-2.8984,-2.8984,-2.8865,-2.8627,-2.8022,-2.7655,-2.7509,-2.7251,-2.705,-2.6885,-2.6885,-2.6756,-2.6591,-2.6591,-2.6591,-2.6591,-2.6591,-2.6591,-2.6591,-2.6591,-2.6591,-2.6691,-2.7107,-2.6948,-2.6695,-2.6703,-2.6275,-2.5755,-2.5279,-2.5024,-2.4826,-2.4472,-2.4217,-2.4011,-2.3786,-2.3242,-2.2845,-2.2917,-2.2609,-2.2397,-2.2397,-2.253,-2.253,-2.2388,-2.2608,-2.2706,-2.2618,-2.2323,-2.2038,-2.1738,-2.0978,-2.0438,-2.0091,-1.9976,-1.9947,-2.011,-2.0314,-2.0566,-2.0898,-2.1123,-2.1338,-2.1553,-2.0984,-2.0547,0.0,0.0,0.0,0.0,0.0,0.0,0.0,-1.915,-1.9865,-2.1289,-2.2207,-2.3203,-2.4658,-2.5928,-2.7148,-2.835,-2.9473,-3.0225,-3.0322,-3.0654,-3.0889,-3.0889,-3.0889,-3.0928,-3.1006,-3.1016,-3.1016,-3.1016,-3.1016,-3.0976,-3.083,-3.0577,-3.0382,-3.0382,-3.0098,-2.9922,-2.9981,-2.9686,-2.9499,-2.9499,-2.9153,-2.8984,-2.8984,-2.8984,-2.8984,-2.8984,-2.8984,-2.8984,-2.8984,-2.8984,-2.8984,-2.8948,-2.8636,-2.8306,-2.7985,-2.7877,-2.762,-2.7344,-2.7344,-2.7031,-2.6701,-2.6701,-2.6655,-2.6591,-2.6591,-2.6591,-2.6591,-2.6591,-2.6591,-2.6636,-2.6935,-2.6989,-2.6941,-2.6761,-2.6446,-2.606,-2.5509,-2.5092,-2.4789,-2.4507,-2.418,-2.3908,-2.3705,-2.3556,-2.3374,-2.3328,-2.2896,-2.2516,-2.2396,-2.2422,-2.2393,-2.2274,-2.2353,-2.2397,-2.2397,-2.2095,-2.185,-2.1677,-2.1342,-2.1132,-2.1087,-2.0652,-2.0633,-2.1077,-2.1087,-2.145,-2.2172,-2.2172,-2.2214,-2.2275,-2.2785,-2.265,-1.9424,-1.8711,-1.8529,-1.8857,-1.9287,-2.0332,0.0,-2.3071,-2.3071,-2.4767,-2.5547,-2.6055,-2.6621,-2.7471,-2.8379,-2.9333,-2.9863,-3.0342,-3.0752,-3.0859,-3.0889,-3.0889,-3.0889,-3.1035,-3.1406,-3.1445,-3.1445,-3.1445,-3.1445,-3.1151,-3.047,-3.0441,-3.0382,-3.0382,-3.0098,-3.0039,-3.0333,-2.9795,-2.9499,-2.9499,-2.9153,-2.8984,-2.8984,-2.8984,-2.8984,-2.8984,-2.8984,-2.8984,-2.8984,-2.8984,-2.8984,-2.8975,-2.8938,-2.8893,-2.8764,-2.8031,-2.7794,-2.7757,-2.7757,-2.75,-2.7114,-2.7114,-2.6875,-2.6591,-2.6591,-2.6591,-2.6591,-2.6591,-2.6591,-2.6636,-2.6935,-2.6989,-2.6887,-2.6539,-2.6408,-2.6104,-2.5094,-2.484,-2.4702,-2.4325,-2.4214,-2.4227,-2.4365,-2.408,-2.3632,-2.3036,-2.3103,-2.2982,-2.2391,-2.2537,-2.2443,-2.1857,-2.2132,-2.2397,-2.2397,-2.235,-2.2303,-2.2309,-2.2095,-2.1907,-2.1703,-2.1423,-2.1381,-2.1693,-2.1693,-2.2202,-2.3207,-2.3207,-2.3351,-2.3584,-2.3682,-2.3262,-2.0996,-2.0664,-2.0635,-2.1055,-2.1855,-2.2861,-2.4131,-2.4495,-2.4884,-2.5908,-2.666,-2.7266,-2.7676,-2.8457,-2.9228,0.0,-3.0312,-3.0674,-3.0859,-3.0889,-3.0791,-3.0518,-3.0723,-3.0957,-3.1133,-3.1152,-3.1152,-3.1152,-3.1152,-3.1015,-3.0713,-3.0509,-3.0382,-3.0382,-3.0098,-2.9981,-3.0098,-2.9677,-2.9499,-2.9499,-2.9153,-2.8984,-2.8984,-2.8984,-2.8984,-2.8984,-2.8984,-2.8984,-2.8984,-2.8984,-2.8984,-2.8984,-2.8984,-2.8984,-2.8938,-2.8599,-2.8333,-2.8132,-2.8132,-2.7866,-2.7574,-2.7574,-2.7251,-2.693,-2.693,-2.6774,-2.6591,-2.6591,-2.6591,-2.6646,-2.6745,-2.6791,-2.6699,-2.6587,-2.6356,-2.6026,-2.5589,-2.5242,-2.4895,-2.477,-2.4548,-2.444,-2.4686,-2.4594,-2.4377,-2.4111,-2.3616,-2.3187,-2.2927,-2.2824,-2.2723,-2.2419,-2.2585,-2.262,-2.237,-2.2342,-2.2294,-2.2239,-2.2141,-2.2066,-2.1976,-2.1889,-2.1836,-2.1976,-2.1976,-2.2268,-2.2831,-2.3069,-2.3229,-2.3338,-2.3846,-2.3842,-2.1633,-2.1875,-2.2344,-2.2764,-2.3926,-2.499,-2.5107,-2.5723,-2.6396,-2.6826,-2.7412,-2.7969,-2.8389,-2.8975,-2.956,-3.0107,-3.0478,-3.0742,-3.0869,-3.0781,-3.0576,-3.0234,-3.0391,-3.0576,-3.0693,-3.0703,-3.0703,-3.0703,-3.0703,-3.0645,-3.0587,-3.0451,-3.0333,-3.0274,-2.9981,-2.9804,-2.9804,-2.9509,-2.939,-2.939,-2.9103,-2.8984,-2.8984,-2.8984,-2.8984,-2.8984,-2.8984,-2.8984,-2.8984,-2.8984,-2.8984,-2.8984,-2.8984,-2.8984,-2.8984,-2.8984,-2.8801,-2.8553,-2.8553,-2.8287,-2.7996,-2.7996,-2.7664,-2.7399,-2.7399,-2.7068,-2.6747,-2.6747,-2.6674,-2.6591,-2.6591,-2.6591,-2.6591,-2.6591,-2.6353,-2.6159,-2.6146,-2.5752,-2.5442,-2.5432,-2.5077,-2.4855,-2.5062,-2.5057,-2.503,-2.503,-2.4267,-2.3692,-2.3485,-2.3147,-2.2904,-2.2904,-2.2904,-2.2785,-2.2474,-2.2455,-2.2419,-2.2324,-2.2306,-2.2306,-2.2306,-2.2387,-2.2387,-2.2306,-2.2387,-2.2578,-2.2817,-2.3164,-2.3398,-2.3463,-2.4136,-2.4298,-2.0879,-2.1877,-2.3266,-2.3643,-2.5049,-2.6435,-2.6846,-2.7285,-2.7725,-2.8144,-2.8252,-2.8398,-2.8818,-2.8916,-2.9219,-3.0059,-3.0205,-3.0371,-3.083,-3.0508,-3.0215,-3.0195,-2.9853,-2.9766,0.0,-3.0215,-3.0215,-3.0215,-3.0215,-3.011,-2.9843,-3.017,-3.0274,-2.9922,-2.9627,-2.9499,-2.9499,-2.9153,-2.9044,-2.9044,-2.8984,-2.8984,-2.8984,-2.8984,-2.8984,-2.8984,-2.8984,-2.8984,-2.8984,-2.8984,-2.8984,-2.8984,-2.8984,-2.8984,-2.8984,-2.8984,-2.8975,-2.8966,-2.8966,-2.8709,-2.837,-2.837,-2.8095,-2.7803,-2.7803,-2.7528,-2.716,-2.716,-2.6885,-2.6591,-2.6591,-2.6591,-2.6591,-2.6591,-2.6582,-2.6562,-2.6423,-2.6374,-2.633,-2.6177,-2.5822,-2.5597,-2.5597,-2.5414,-2.5284,-2.5284,-2.506,-2.4605,-2.397,-2.3294,-2.2904,-2.2904,-2.2904,-2.2904,-2.2895,-2.2885,-2.2885,-2.2876,-2.2867,-2.2867,-2.2867,-2.313,-2.313,-2.2867,-2.313,-2.3466,-2.3877,-2.4135,-2.4383,-2.4631,-2.466,-2.4565,-2.2129,-2.3115,-2.4307,-2.5605,-2.6592,-2.7344,-2.7764,-2.7978,-2.8047,-2.791,-2.7881,-2.792,-2.8057,-2.831,-2.8779,-2.9639,-3.0019,-3.0361,-3.083,-3.0752,-3.0439,-2.9853,-2.9902,0.0,0.0,0.0,0.0,-3.0176,-3.0195,-3.0138,-3.0091,-3.0267,-3.0333,-3.0216,-2.9922,-2.9686,-2.9499,-2.939,-2.9213,-2.8984,-2.8984,-2.8984,-2.8984,-2.8984,-2.8984,-2.8984,-2.8984,-2.8984,-2.8984,-2.8984,-2.8984,-2.8984,-2.8984,-2.8984,-2.8984,-2.8984,-2.8984,-2.8984,-2.8984,-2.8893,-2.8783,-2.8783,-2.8517,-2.8187,-2.8187,-2.7893,-2.7517,-2.7251,-2.7077,-2.6921,-2.6655,-2.6591,-2.6591,-2.6591,-2.6591,-2.66,-2.6516,-2.6588,-2.662,-2.6364,-2.6154,-2.5879,-2.5594,-2.5484,-2.5403,-2.5332,-2.5079,-2.4688,-2.4165,-2.388,-2.3749,-2.3749,-2.3749,-2.3639,-2.3316,-2.3297,-2.3187,-2.2922,-2.2904,-2.2904,-2.2904,-2.2998,-2.2989,-2.2904,-2.3167,-2.3364,-2.3504,-2.4041,-2.4326,-2.4431,-2.49,-2.5024,-2.3286,-2.4336,-2.5469,-2.6894,-2.7568,-2.7959,-2.8232,-2.8174,-2.7949,-2.7519,-2.7187,-2.6982,-2.6982,-2.6943,-2.7393,-2.8877,-2.9209,-2.9668,-3.0742,-3.0625,-3.0264,-2.9844,-2.9766,-2.9648,0.0,0.0,0.0,-2.9717,-3.0019,-3.008,-2.981,-3.019,-3.0333,-3.0216,-3.0039,-2.9745,-2.9499,-2.9499,-2.9331,-2.8984,-2.9103,-2.9103,-2.8984,-2.8984,-2.8984,-2.8984,-2.8984,-2.8984,-2.8984,-2.8984,-2.8984,-2.8984,-2.8984,-2.8984,-2.8984,-2.8984,-2.8984,-2.8984,-2.8984,-2.8984,-2.8984,-2.8984,-2.881,-2.8599,-2.8599,-2.8315,-2.7939,-2.7682,-2.7499,-2.7325,-2.7077,-2.6903,-2.6793,-2.6793,-2.6692,-2.6646,-2.6745,-2.6803,-2.6821,-2.6767,-2.6588,-2.6324,-2.6049,-2.5818,-2.5632,-2.5414,-2.5149,-2.4796,-2.4359,-2.4251,-2.4251,-2.4291,-2.4251,-2.4091,-2.3874,-2.3806,-2.3648,-2.34,-2.3382,-2.3382,-2.3382,-2.343,-2.343,-2.3382,-2.3603,-2.3737,-2.3737,-2.4257,-2.4543,-2.4649,-2.5111,-2.5284,-2.4424,-2.5517,-2.666,-2.7542,-2.7998,-2.8281,-2.8262,-2.7939,-2.75,-2.7012,-2.623,-2.5567,-2.5508,-2.4922,-2.5234,-2.7725,-2.791,-2.8457,-3.0537,-3.0137,-2.9756,0.0,0.0,0.0,0.0,0.0,0.0,-2.8916,0.0,-2.9877,-2.9151,-2.993,-3.0274,-2.9981,-2.9922,-2.9804,-2.9558,-2.9499,-2.9331,-2.9044,-2.9331,-2.9331,-2.9044,-2.8984,-2.8984,-2.8984,-2.8984,-2.8984,-2.8984,-2.8984,-2.8984,-2.8984,-2.8984,-2.8984,-2.8984,-2.8984,-2.8984,-2.8984,-2.8984,-2.8984,-2.8984,-2.8984,-2.8984,-2.8984,-2.8984,-2.8718,-2.8425,-2.8397,-2.8104,-2.7849,-2.7831,-2.7546,-2.7205,-2.7178,-2.6894,-2.6709,-2.6944,-2.6989,-2.7043,-2.7323,-2.7047,-2.6773,-2.6773,-2.6371,-2.5946,-2.5591,-2.5324,-2.4963,-2.4535,-2.4341,-2.4251,-2.448,-2.4341,-2.4301,-2.4489,-2.4341,-2.4202,-2.4202,-2.4202,-2.4202,-2.4202,-2.439,-2.439,-2.4202,-2.439,-2.448,-2.448,-2.4784,-2.5039,-2.5322,-2.5371,-2.5381,-2.6496,-2.7222,-2.7471,-2.7998,-2.8213,-2.8213,-2.79,-2.749,-2.6875,-2.5791,-2.4883,-2.3994,-2.3037,-2.3711,-2.4736,-2.5732,-2.7412,0.0,-2.9785,-3.0283,0.0,-2.9346,-2.9336,-2.9238,-2.8818,-2.8867,0.0,0.0,-2.9424,-2.9687,-2.9458,-3.0285,-3.0704,-3.0655,-3.0655,-3.046,-3.0147,-2.9922,-2.9745,-2.9686,-2.9568,-2.945,-2.939,-2.9094,-2.8984,-2.8984,-2.8984,-2.8984,-2.8984,-2.8984,-2.8984,-2.8984,-2.8984,-2.8984,-2.8984,-2.8984,-2.8984,-2.8984,-2.8984,-2.8984,-2.8984,-2.8984,-2.8984,-2.8984,-2.8984,-2.8911,-2.8764,-2.8471,-2.8315,-2.8168,-2.7904,-2.7748,-2.7601,-2.7242,-2.7105,-2.6995,-2.6755,-2.6836,-2.6935,-2.6854,-2.6467,-2.6287,-2.6446,-2.6162,-2.5905,-2.5937,-2.5774,-2.5358,-2.4573,-2.4341,-2.4202,-2.4251,-2.4341,-2.439,-2.4291,-2.439,-2.4341,-2.4202,-2.4202,-2.4202,-2.4202,-2.4251,-2.4251,-2.4202,-2.439,-2.448,-2.448,-2.499,-2.5398,-2.5814,-2.6022,-2.6287,-2.8059,-2.8625,-2.861,-2.8339,-2.8506,-2.8411,-2.7104,-2.6328,-2.54,-2.373,-2.2695,-2.1816,-2.0908,-2.1836,-2.3174,-2.456,-2.6641,-2.8437,-2.9489,-3.0,-3.0039,-2.9287,-2.9248,0.0,-2.8877,-2.8896,-2.8994,0.0,-2.96,-2.9844,-2.9844,-3.0508,-3.0889,-3.0889,-3.0889,-3.0762,-3.0382,-3.0216,-3.0039,-2.9922,-2.9922,-2.9804,-2.9686,-2.945,-2.9331,-2.9222,0.0,-2.9331,-2.9213,-2.9331,-2.939,-2.939,-2.939,-2.939,-2.939,-2.939,-2.939,-2.94,-2.9272,-2.9213,-2.9213,-2.9044,-2.8984,-2.8984,-2.8984,-2.8984,-2.8938,-2.8718,-2.8654,-2.8599,-2.8361,-2.8168,-2.7985,-2.7765,-2.7435,-2.7114,-2.6894,-2.6865,-2.6791,-2.6646,-2.6399,-2.6287,-2.6458,-2.6317,-2.6157,-2.6233,-2.6048,-2.5711,-2.5121,-2.4738,-2.4404,-2.4319,-2.4341,-2.439,-2.4498,-2.4489,-2.4489,-2.4489,-2.4399,-2.4341,-2.4341,-2.4251,-2.4202,-2.4202,-2.439,-2.4672,-2.5008,-2.5414,-2.5883,-2.6449,-2.661,-2.6787,-2.9709,-3.0035,-2.9942,-2.9086,-2.9134,-2.8764,-2.6367,-2.5061,-2.3698,-2.1484,-2.0274,-1.9531,-1.9111,-1.9862,-2.1329,-2.376,-2.5723,-2.751,-2.917,-2.9558,-2.9587,-2.9414,-2.9121,-2.9043,-2.9375,-2.9111,-2.9101,-2.9531,-2.9961,-3.0195,-3.0195,-3.0635,-3.0889,-3.0889,-3.0889,-3.0762,-3.045,-3.045,-3.0333,-3.0049,-3.0274,-3.0274,-2.9981,-2.9922,-2.9745,-2.9568,0.0,0.0,-2.9558,-2.9804,-2.9922,-2.9922,-2.9922,-2.9922,-2.9922,-2.9922,-2.9922,-2.9863,-2.9618,-2.9509,-2.944,-2.9094,-2.8984,-2.8984,-2.8984,-2.8984,-2.8984,-2.8984,-2.8984,-2.8984,-2.8984,-2.8728,-2.8462,-2.8407,-2.7856,-2.7325,-2.727,-2.6949,-2.6664,-2.6664,-2.6628,-2.6591,-2.6591,-2.6591,-2.6571,-2.6426,-2.6254,-2.601,-2.5865,-2.526,-2.4813,-2.4644,-2.4507,-2.4557,-2.5003,-2.4845,-2.4796,-2.5003,-2.4845,-2.4697,-2.4647,-2.4516,-2.4417,-2.4457,-2.4607,-2.4974,-2.5702,-2.5954,-2.6427,-2.7048,-2.71,-2.7129,-3.2617,-3.2265,-3.1365,-3.1598,-3.0758,-2.931,-2.7045,-2.518,-2.3174,-2.0663,-1.918,-1.8213,-1.7793,-1.8984,-2.0644,-2.2539,-2.4902,-2.6973,-2.832,-2.9121,-2.9307,0.0,-2.876,-2.8809,-2.8545,-2.876,0.0,0.0,0.0,-3.0195,-3.0195,-3.0635,-3.0889,-3.0889,-3.0889,-3.0889,-3.082,-3.082,-3.0762,-3.0713,-3.0509,-3.0392,-3.0333,-3.0039,-2.9863,-2.9804,-2.9863,0.0,-2.9804,-2.9863,-2.9922,-2.9922,-2.9922,-2.9922,-2.9922,-2.9922,-2.9922,-2.9863,-2.9863,-2.9686,-2.944,-2.9094,-2.8984,-2.8984,-2.8984,-2.8984,-2.8984,-2.8984,-2.8984,-2.8984,-2.8984,-2.8938,-2.8801,-2.8471,-2.8287,-2.8086,-2.7794,-2.7352,-2.7077,-2.7077,-2.6811,-2.6591,-2.6591,-2.6591,-2.6618,-2.6545,-2.6535,-2.6388,-2.6019,-2.5561,-2.5295,-2.5264,-2.5418,-2.5582,-2.5624,-2.581,-2.581,-2.5624,-2.581,-2.581,-2.5573,-2.5521,-2.5624,-2.5852,-2.5666,-2.5755,-2.6119,-2.6375,-2.676,-2.7226,-2.7497,-2.7744,-3.3124,-3.3021,-3.2342,-3.2064,-3.1241,-2.9789,-2.6895,-2.4451,-2.2125,-1.9765,-1.8074,-1.6961,-1.6858,-1.8133,-1.9631,-2.0957,-2.334,-2.5566,-2.709,-2.7842,-2.8252,-2.8291,-2.8467,-2.8516,-2.831,-2.8672,-2.9101,0.0,0.0,-3.0303,-3.0547,-3.0771,-3.0889,-3.0889,-3.0889,-3.0889,-3.0889,-3.0889,-3.0889,-3.0889,-3.0762,-3.0645,-3.0635,-3.047,-3.0343,-3.0157,-3.0343,0.0,-3.0157,-3.0343,-3.0411,-3.0411,-3.0411,-3.0411,-3.0411,-3.0411,-3.0411,-3.0411,-3.0216,-3.0098,-2.9912,-2.9568,-2.939,-2.9272,-2.9272,-2.934,-2.945,-2.9272,-2.9272,-2.9213,-2.9044,-2.8984,-2.8938,-2.8746,-2.8544,-2.8278,-2.7914,-2.7675,-2.7537,-2.7537,-2.7169,-2.6894,-2.6894,-2.6719,-2.6591,-2.6591,-2.6591,-2.6518,-2.637,-2.6123,-2.5839,-2.5417,-2.5528,-2.5641,-2.5796,-2.5933,-2.6036,-2.6191,-2.6233,-2.6172,-2.6243,-2.6088,-2.6078,-2.6224,-2.6191,-2.6399,-2.6764,-2.7033,-2.7412,-2.7829,-2.7935,-2.8096,-3.3256,-3.3549,-3.3385,-3.2623,-3.1775,-3.0249,-2.6917,-2.3974,-2.1317,-1.914,-1.7223,-1.6049,-1.6393,-1.7418,-1.8588,-1.9853,-2.1924,-2.4082,-2.6103,-2.6748,-2.7334,-2.8193,-2.8291,0.0,-2.8291,-2.876,0.0,0.0,0.0,0.0,-3.0869,-3.0889,-3.0889,-3.0889,-3.0889,-3.0889,-3.0889,-3.0889,-3.0889,-3.0889,-3.0889,-3.0889,-3.0889,-3.0889,-3.0762,-3.0509,-3.0772,0.0,0.0,-3.0762,-3.0889,-3.0889,-3.0889,-3.0889,-3.0889,-3.0889,-3.0889,-3.083,-3.0577,-3.045,-3.0333,-3.0098,-2.9804,-2.9568,-2.9568,-2.9745,-2.9863,-2.9627,-2.9568,-2.9509,-2.9213,-2.9103,-2.9103,-2.9044,-2.8746,-2.8425,-2.8152,-2.8015,-2.7902,-2.7902,-2.7572,-2.7306,-2.7306,-2.6976,-2.6719,-2.6719,-2.6646,-2.6591,-2.6591,-2.6591,-2.6344,-2.5702,-2.5681,-2.5786,-2.6048,-2.6048,-2.6257,-2.6655,-2.6603,-2.6655,-2.6758,-2.6655,-2.6593,-2.6655,-2.681,-2.7078,-2.753,-2.775,-2.7969,-2.8291,-2.8291,-2.8291,-3.4473,-3.4677,-3.4736,-3.5115,-3.3433,-3.0894,-2.7987,-2.4551,-2.1362,-1.9164,-1.6965,-1.5782,-1.6742,-1.6888,-1.7695,-2.0155,-2.1377,-2.3076,-2.5977,-2.6748,-2.7334,-2.8193,0.0,0.0,-2.8291,-2.9033,0.0,0.0,0.0,0.0,-3.0889,-3.0889,-3.0889,-3.0889,-3.0889,-3.0889,-3.0889,-3.0889,-3.0889,-3.0889,-3.0889,-3.0889,-3.0889,-3.0889,-3.0889,-3.083,-3.0889,0.0,0.0,-3.0889,-3.0889,-3.0889,-3.0889,-3.0889,-3.0889,-3.0889,-3.0889,-3.0889,-3.0889,-3.0635,-3.0382,-3.0382,-3.0157,-2.9863,-2.9863,-2.9863,-2.9863,-2.9863,-2.9863,-2.9804,-2.9509,-2.945,-2.939,-2.9044,-2.8957,-2.892,-2.8874,-2.859,-2.8333,-2.8333,-2.8003,-2.7767,-2.7767,-2.7389,-2.7123,-2.7123,-2.682,-2.6591,-2.6591,-2.6591,-2.6564,-2.6481,-2.6481,-2.658,-2.6877,-2.6877,-2.6931,-2.6985,-2.7469,-2.763,-2.7318,-2.7577,-2.7844,-2.8121,-2.7898,-2.7917,-2.8232,-2.8232,-2.8252,-2.8291,-2.8291,-2.8291,-3.4231,-3.4679,-3.4751,-3.4643,-3.2911,-3.0584,-2.8191,-2.4748,-2.1644,-2.016,-1.8034,-1.662,-1.7027,-1.6993,-1.7269,-1.8468,-1.916,-2.043,-2.293,-2.3877,-2.4912,-2.6562,-2.7217,0.0,0.0,0.0,0.0,0.0,0.0,0.0,-3.0889,-3.0889,-3.0889,-3.0889,-3.0889,-3.0889,-3.0889,-3.0889,-3.0889,-3.0889,-3.0889,-3.0889,-3.0889,-3.0889,-3.0889,-3.0889,-3.0889,0.0,0.0,-3.0889,-3.0889,-3.0889,-3.0889,-3.0889,-3.0889,-3.0889,-3.0889,-3.0889,-3.0889,-3.082,-3.0704,-3.0704,-3.0587,-3.046,-3.0274,-3.0343,-3.047,-3.0274,-3.0216,-3.0157,-2.9804,-2.9745,-2.9686,-2.939,-2.939,-2.9509,-2.9509,-2.9446,-2.9275,-2.9275,-2.8814,-2.841,-2.841,-2.7906,-2.7583,-2.7583,-2.7196,-2.694,-2.694,-2.6738,-2.6591,-2.6591,-2.6591,-2.6636,-2.6736,-2.6736,-2.6899,-2.7206,-2.7476,-2.7701,-2.7916,-2.8077,-2.8184,-2.8291,-2.8184,-2.8184,-2.8291,-2.8291,-2.8291,-2.8291,-2.8291,-2.8291,-3.3326,-3.4085,-3.4318,-3.3909,-3.2226,-3.0086,-2.793,-2.4661,-2.1786,-2.0602,-1.8685,-1.7257,-1.7424,-1.7116,-1.706,-1.7843,-1.7992,-1.8919,-2.15,-2.2254,-2.3262,-2.5303,0.0,-2.6777,0.0,0.0,0.0,0.0,0.0,0.0,0.0,-3.0889,-3.0889,-3.0889,-3.0889,-3.0889,-3.0889,-3.0889,-3.0889,-3.0889,-3.0889,-3.0889,-3.0889,-3.0889,-3.0889,-3.0889,0.0,0.0,0.0,-3.0889,-3.0889,-3.0889,-3.0889,-3.0889,-3.0889,-3.0889,-3.0889,-3.0889,-3.0889,-3.0889,-3.0889,-3.0889,-3.0889,-3.083,-3.0635,-3.0704,-3.083,-3.0635,-3.045,-3.0333,-3.0098,-2.9981,-2.9863,-2.9686,-2.9745,-2.9922,-2.9922,-2.9922,-2.9922,-2.9922,-2.951,-2.9128,-2.9012,-2.8494,-2.8063,-2.8005,-2.7666,-2.7352,-2.7352,-2.7004,-2.6765,-2.6765,-2.6655,-2.6591,-2.6591,-2.6591,-2.6745,-2.7171,-2.7323,-2.7593,-2.8023,-2.8184,-2.8291,-2.8291,-2.8291,-2.8291,-2.8291,-2.8291,-2.8359,-2.8476,-2.8476,-2.8545,-3.1801,-3.2795,-3.355,-3.3343,-3.1685,-2.9544,-2.739,-2.4413,-2.1649,-2.0141,-1.8421,-1.7368,-1.7984,-1.7118,-1.6971,-1.896,-1.8568,-1.9268,-2.2951,-2.2914,-2.3154,0.0,0.0,-2.5487,-2.6318,0.0,0.0,0.0,0.0,0.0,0.0,-3.0889,-3.0889,-3.0889,-3.0889,-3.0889,-3.0889,-3.0889,-3.0889,-3.0889,-3.0889,-3.0889,-3.0889,-3.0889,-3.0889,0.0,0.0,0.0,0.0,-3.0889,-3.0889,-3.0889,-3.0889,-3.0889,-3.0889,-3.0889,-3.0889,-3.0889,-3.0889,-3.0889,-3.0889,-3.0889,-3.0889,-3.0889,-3.0889,-3.0889,-3.0889,-3.0889,-3.0645,-3.0382,-3.0382,-3.0157,-2.9922,-2.9922,-2.9922,-2.9922,-2.9922,-2.9922,-2.9922,-2.9922,-2.9922,-2.9795,-2.9558,-2.9095,-2.8709,-2.8447,-2.8031,-2.7813,-2.7813,-2.7416,-2.7169,-2.7169,-2.682,-2.6591,-2.6591,-2.6591,-2.6591,-2.6591,-2.7116,-2.7377,-2.7431,-2.797,-2.8291,-2.8291,-2.8291,-2.8291,-2.8291,-2.8291,-2.8506,-2.8916,-2.8916,-2.9141,-2.9406,-3.0257,-3.0682,-2.9883,-2.8493,-2.6899,-2.5168,-2.3149,-2.1277,-2.0041,-1.9076,-1.8375,-1.8147,-1.7451,-1.7579,-1.9572,-1.8829,-1.8959,0.0,0.0,0.0,-2.4062,-2.6016,-2.749,0.0,0.0,0.0,0.0,0.0,0.0,0.0,-3.0889,-3.0889,-3.0889,-3.0889,-3.0889,-3.0889,-3.0889,-3.0889,-3.0889,-3.0889,-3.0889,-3.0889,-3.0889,0.0,0.0,0.0,0.0,0.0,-3.0889,-3.0889,-3.0889,-3.0889,-3.0889,-3.0889,-3.0889,-3.0889,-3.0889,-3.0889,-3.0889,-3.0889,-3.0889,-3.0889,-3.0889,-3.0889,-3.0889,-3.0889,-3.0889,-3.083,-3.0694,-3.045,-3.0518,-3.0528,-3.0274,-3.0401,-3.0587,-3.0587,-3.0587,-3.0587,-3.0587,-3.0401,-3.0157,-2.9804,-2.9514,-2.9195,-2.8851,-2.8452,-2.8196,-2.8196,-2.7838,-2.7638,-2.7638,-2.7528,-2.7178,-2.6637,-2.6591,-2.6691,-2.6836,-2.7053,-2.7314,-2.7745,-2.8195,-2.8387,-2.8301,-2.8867,-2.9023,-2.8721,-2.9023,-2.9228,-2.9365,-2.9365,-2.9443,-2.7087,-2.8145,-2.8533,-2.7789,-2.6528,-2.5143,-2.3818,-2.2246,-2.0791,-1.9736,-1.9215,-1.8881,-1.8509,-1.7957,-1.8086,-1.978,-1.8797,-1.8711,0.0,0.0,0.0,-2.3848,0.0,0.0,0.0,0.0,0.0,0.0,0.0,0.0,0.0,-3.0889,-3.0889,-3.0889,-3.0889,-3.0889,-3.0889,-3.0889,-3.0889,-3.0889,-3.0889,-3.0889,-3.0889,-3.0889,0.0,0.0,0.0,0.0,0.0,-3.0889,-3.0889,-3.0889,-3.0889,-3.0889,-3.0889,-3.0889,-3.0889,-3.0889,-3.0889,-3.0889,-3.0889,-3.0889,-3.0889,-3.0889,-3.0889,-3.0889,-3.0889,-3.0889,-3.0889,-3.083,-3.0635,-3.0762,-3.083,-3.0635,-3.0762,-3.0889,-3.0889,-3.0889,-3.0889,-3.0889,-3.0704,-3.046,-3.0157,-2.9981,-2.9745,-2.939,-2.9059,-2.8843,-2.8843,-2.8367,-2.8003,-2.8003,-2.7914,-2.762,-2.7077,-2.7031,-2.7133,-2.729,-2.74,-2.7621,-2.8005,-2.8327,-2.8567,-2.8616,-2.9131,-2.9322,-2.917,-2.96,-2.9814,-2.9814,-2.999,-3.0068,0.0,-2.6197,-2.6834,-2.6564,-2.5348,-2.3977,-2.2979,-2.1608,0.0,-1.9203,-1.8987,-1.9011,-1.9095,-1.8568,-1.8542,-1.9853,-1.8836,0.0,0.0,-2.1372,0.0,0.0,-2.5752,0.0,0.0,0.0,0.0,0.0,0.0,0.0,0.0,-3.0801,-3.0801,-3.0801,-3.083,-3.0859,-3.0889,-3.0889,-3.0889,-3.0889,-3.0889,-3.0889,-3.0889,-3.0889,0.0,0.0,0.0,0.0,0.0,-3.0889,-3.0889,-3.0889,-3.0889,-3.0889,-3.0889,-3.0889,-3.0889,-3.0889,-3.0889,-3.0889,-3.0889,-3.0889,-3.0889,-3.0889,-3.0889,-3.0889,-3.0889,-3.0889,-3.0889,-3.0889,-3.0889,-3.0889,-3.0889,-3.0889,-3.0889,-3.0889,-3.0889,-3.0889,-3.0889,-3.0889,-3.0889,-3.0762,-3.045,-3.0382,-3.0274,-2.9922,-2.9686,-2.9499,-2.9499,-2.8889,-2.8434,-2.8434,-2.8086,-2.7904,-2.7904,-2.7849,-2.7822,-2.7822,-2.8049,-2.8172,-2.8229,-2.8483,-2.8776,-2.9076,-2.9104,-2.9358,-2.9668,-3.0059,-3.0244,-3.0254,-3.0693,-3.0889,-2.151,0.0,-2.3045,-2.2512,-2.1952,-2.1356,0.0,-2.0278,-1.9793,-1.9158,-1.8987,-1.9251,-2.0081,-1.9061,-1.9123,-2.2339,-2.1583,-2.1209,-2.2939,-2.3686,0.0,-2.667,-2.7461,0.0,0.0,0.0,0.0,0.0,0.0,0.0,0.0,-2.9939,-2.9939,-2.9939,-3.0195,-3.0537,-3.0889,-3.0889,-3.0889,-3.0889,-3.0889,-3.0889,-3.0889,-3.0889,0.0,0.0,0.0,0.0,-3.0889,-3.0889,-3.0889,-3.0889,-3.0889,-3.0889,-3.0889,-3.0889,-3.0889,-3.0889,-3.0889,-3.0889,-3.0889,-3.0889,-3.0889,-3.0889,-3.0889,-3.0889,-3.0889,-3.0889,-3.0889,-3.0889,-3.0889,-3.0889,-3.0889,-3.0889,-3.0889,-3.0889,-3.0889,-3.0889,-3.0889,-3.0889,-3.0889,-3.0762,-3.045,-3.0382,-3.0274,-2.9922,-2.9686,-2.9499,-2.9499,-2.9129,-2.8847,-2.8847,-2.8755,-2.87,-2.87,-2.8122,-2.7822,-2.7822,-2.7879,-2.8002,-2.8163,-2.8575,-2.8717,-2.8747,-2.9336,-2.9958,-3.0576,-3.0674,-3.0732,-3.0732,-3.084,-3.0889,-2.0118,-2.1103,-2.2042,-2.1707,-2.1287,-2.0899,-2.0586,-1.9949,-1.9336,-1.9047,-1.8987,-1.9251,-2.0081,-1.9697,-1.9986,-2.2323,-2.1991,0.0,0.0,0.0,-2.5947,-2.748,-2.8037,0.0,0.0,0.0,0.0,0.0,0.0,0.0,0.0,-2.9626,-2.9626,-2.9626,-2.9795,-3.0127,-3.0566,-3.0781,-3.0889,-3.0889,-3.0889,-3.0889,-3.0889,-3.0889,-3.0889,0.0,0.0,0.0,-3.0889,-3.0889,-3.0889,-3.0889,-3.0889,-3.0889,-3.0889,-3.0889,-3.0889,-3.0889,-3.0889,-3.0889,-3.0889,-3.0889,-3.0889,-3.0889,-3.0889,-3.0889,-3.0889,-3.0889,-3.0889,-3.0889,-3.0889,-3.0889,-3.0889,-3.0889,-3.0889,-3.0889,-3.0889,-3.0889,-3.0889,-3.0889,-3.0889,-3.083,-3.0645,-3.0635,-3.0587,-3.0401,-3.0098,-2.9912,-2.9912,-2.9627,-2.939,-2.939,-2.9272,-2.9272,-2.94,-2.8757,-2.8324,-2.8324,-2.8324,-2.844,-2.8556,-2.8935,-2.9244,-2.9422,-3.0007,-3.0471,-3.0889,-3.0889,-3.0889,-3.0889,-3.0889,-3.0889,-2.0012,-2.123,-2.2335,-2.2007,-2.1638,-2.1265,-2.1079,-1.9973,-1.8987,-1.8987,-1.9086,-1.9351,-2.0049,-2.0538,-2.1139,-2.1981,-2.2274,0.0,-2.444,-2.5518,-2.6526,-2.7669,0.0,0.0,0.0,0.0,0.0,0.0,0.0,0.0,0.0,-2.9375,-2.9375,-2.9375,-2.9434,-2.9639,-3.0,-3.0518,-3.082,-3.0889,-3.0889,-3.0889,-3.0889,-3.0889,-3.0889,0.0,0.0,0.0,-3.0889,-3.0889,-3.0889,-3.0889,-3.0889,-3.0889,-3.0889,-3.0889,-3.0889,-3.0889,-3.0889,-3.0889,-3.0889,-3.0889,-3.0889,-3.0889,-3.0889,-3.0889,-3.0898,-3.0967,-3.0947,-3.0889,-3.0889,-3.0889,-3.0889,-3.0889,-3.0889,-3.0889,-3.0889,-3.0889,-3.0889,-3.0889,-3.0889,-3.0889,-3.0889,-3.0889,-3.0889,-3.0889,-3.0635,-3.0382,-3.0382,-3.0098,-2.9922,-2.9922,-2.9686,-2.9627,-2.9863,-2.945,-2.9163,-2.9163,-2.9044,-2.9044,-2.9044,-2.9331,-2.9795,-3.0392,-3.0704,-3.083,-3.0889,-3.0889,-3.0889,-3.0889,-3.0889,-3.0889,-2.0966,-2.1898,-2.2121,-2.0324,-2.0412,-2.0694,-1.9619,-1.9167,-1.8987,-1.8987,-1.9375,-2.0133,-2.156,-2.1897,-2.2702,-2.4999,-2.6278,-2.7307,0.0,0.0,-2.8188,-2.8192,0.0,0.0,0.0,0.0,0.0,0.0,0.0,0.0,0.0,-2.8486,-2.8486,-2.8486,-2.8828,-2.9053,-2.9111,-2.9902,-3.0508,-3.0889,-3.0889,-3.0889,-3.0889,-3.0889,-3.0889,0.0,0.0,-3.0889,-3.0889,-3.0889,-3.0889,-3.0889,-3.0889,-3.0889,-3.0889,-3.0889,-3.0889,-3.0889,-3.0889,-3.0889,-3.0889,-3.0889,-3.0889,-3.0889,-3.0889,-3.0889,-3.0967,-3.1318,-3.1162,-3.0889,-3.0889,-3.0889,-3.0889,-3.0889,-3.0889,-3.0889,-3.0889,-3.0889,-3.0889,-3.0889,-3.0889,-3.0889,-3.0889,-3.0889,-3.0889,-3.0889,-3.0635,-3.0382,-3.0382,-3.0098,-2.9922,-2.9922,-2.9863,-2.9863,-2.9922,-2.9813,-2.9745,-2.9745,-2.9272,-2.9153,-2.939,-2.945,-2.9795,-3.0392,-3.045,-3.0635,-3.0889,-3.0889,-3.0889,-3.0889,-3.0889,-3.0889,-2.0363,-2.1014,-2.1264,-2.0465,-2.1384,-2.2224,-2.1349,-2.0935,-2.0718,-2.0718,-2.0911,-2.1488,-2.283,-2.3496,-2.4657,-2.7117,-2.8236,-2.8845,-2.8855,-2.8739,-2.8513,0.0,0.0,0.0,0.0,0.0,0.0,0.0,0.0,0.0,0.0,0.0,-2.8291,-2.8291,-2.8476,-2.8691,-2.8916,-2.9307,-2.9736,-3.0176,-3.0176,-3.0293,-3.0518,-3.0518,-3.0654,-3.0889,0.0,-3.0889,-3.0889,-3.0889,-3.0889,-3.0889,-3.0889,-3.0889,-3.0889,-3.0889,-3.0889,-3.0889,-3.0889,-3.0889,-3.0889,-3.0889,-3.0889,-3.0889,-3.0889,-3.1055,-3.1269,-3.1465,-3.1377,-3.1289,-3.1523,-3.1582,-3.1582,-3.1582,-3.1582,-3.1514,-3.1279,-3.123,-3.1162,-3.0937,-3.1074,-3.123,-3.123,-3.1426,-3.1582,-3.1582,-3.1453,-3.1383,-3.1383,-3.1001,-3.0738,-3.0738,-3.0409,-3.0216,-3.0411,-3.0108,-2.9863,-2.9686,-2.9568,-2.9568,-2.9686,-2.9922,-3.0216,-3.0645,-3.0694,-3.0762,-3.0889,-3.0889,-3.0889,-3.0889,-3.0889,-3.0889,-2.0012,-2.0332,-2.0571,-2.0895,-2.2086,-2.3115,-2.318,-2.2698,-2.233,-2.2823,-2.3027,-2.3352,-2.4203,-2.5468,-2.7031,-2.8916,-2.9959,-3.0239,-2.9261,-2.9465,0.0,0.0,0.0,0.0,0.0,0.0,0.0,0.0,0.0,0.0,0.0,0.0,-2.8291,-2.8291,-2.8291,-2.8447,-2.8769,-2.8769,-2.9043,-2.9626,-2.9626,-2.9736,-3.0049,-3.0156,-3.0391,-3.0732,-3.084,-3.0889,-3.0889,-3.0889,-3.0889,-3.0889,-3.0889,-3.0889,-3.0889,-3.0889,-3.0889,-3.0889,-3.0889,-3.0889,-3.0889,-3.0889,-3.0889,-3.0908,-3.1006,-3.126,-3.1562,-3.1758,-3.1816,-3.1875,-3.2109,-3.2229,-3.2229,-3.2229,-3.2229,-3.208,-3.1738,-3.167,-3.1572,-3.125,-3.1445,-3.167,-3.167,-3.1953,-3.2229,-3.2229,-3.2229,-3.2229,-3.2229,-3.1875,-3.167,-3.167,-3.1189,-3.0897,-3.1045,-3.0459,-2.9981,-2.9736,-2.9922,-3.0039,-3.0039,-3.0265,-3.0577,-3.0889,-3.0889,-3.0889,-3.0889,-3.0889,-3.0889,-3.0889,-3.0889,-3.0889,-2.1079,-2.0892,-2.0489,-2.0895,-2.1039,-2.1557,-2.3333,-2.2919,-2.2751,-2.4687,-2.548,-2.5841,-2.5913,-2.8017,-2.9977,-3.0613,-3.24,-3.2969,-3.0938,0.0,0.0,0.0,0.0,0.0,0.0,0.0,0.0,0.0,0.0,0.0,0.0,0.0,0.0,-2.8291,-2.8291,-2.831,-2.834,-2.834,-2.875,-2.9626,-2.9626,-2.9646,-2.9685,-3.0019,-3.0215,-3.0273,-3.0703,-3.0889,-3.0889,-3.0889,-3.0889,-3.0889,-3.0889,-3.0889,-3.0889,-3.0889,-3.0889,-3.0889,-3.0889,-3.0889,-3.0889,-3.0889,-3.0889,-3.0967,-3.1348,-3.1494,-3.1689,-3.248,-3.2705,-3.2627,-3.2256,-3.2229,-3.2229,-3.2229,-3.2229,-3.2158,-3.219,-3.2119,-3.2119,-3.208,-3.216,-3.2119,-3.2119,-3.2209,-3.2229,-3.2229,-3.2229,-3.2229,-3.2229,-3.2139,-3.2119,-3.2119,-3.209,-3.1914,-3.1504,-3.1054,-3.0704,-3.0333,-3.0333,-3.0382,-3.0382,-3.0392,-3.0577,-3.0889,-3.0889,-3.0889,-3.0889,-3.0889,-3.0889,-3.0889,-3.0889,-3.0889,-2.0326,-2.0613,-2.0899,-2.1366,-2.211,-2.2986,-2.4011,-2.4963,-2.6045,-2.7488,-2.821,-2.8582,-2.8582,-3.0218,-3.1649,-3.1853,-3.3657,-3.4464,0.0,0.0,0.0,0.0,0.0,0.0,0.0,0.0,0.0,0.0,0.0,0.0,0.0,0.0,0.0,-2.8291,-2.8291,-2.8291,-2.8291,-2.8291,-2.8457,-2.8779,-2.8779,-2.8906,-2.917,-2.9326,-2.9687,-3.0205,-3.0381,-3.0625,-3.0889,-3.0889,-3.0889,-3.0889,-3.0889,-3.0889,-3.0889,-3.0889,-3.0889,-3.0889,-3.0889,-3.0889,-3.0889,-3.0889,-3.0889,-3.0976,-3.1396,-3.1709,-3.2051,-3.2627,-3.2978,-3.3144,-3.2988,-3.2949,-3.2949,-3.2949,-3.2949,-3.2871,-3.2617,-3.2559,-3.248,-3.2217,-3.2383,-3.2559,-3.2559,-3.2773,-3.2949,-3.2949,-3.2949,-3.2949,-3.2949,-3.2725,-3.2559,-3.2559,-3.2324,-3.21,-3.1934,-3.1777,-3.1503,-3.1111,-3.0849,-3.0635,-3.0392,-3.0577,-3.0762,-3.0889,-3.0889,-3.0889,-3.0889,-3.0889,-3.0889,-3.0889,-3.0889,-3.0889,-2.0125,-2.0341,-2.0819,-2.1616,-2.2877,-2.4256,-2.5468,-2.6885,-2.8414,-2.9989,-3.0458,-3.0633,-3.0633,-3.1637,-3.2503,0.0,-3.4246,0.0,0.0,0.0,0.0,0.0,0.0,0.0,0.0,0.0,0.0,0.0,0.0,0.0,0.0,0.0,0.0,0.0,-2.8495,-2.8291,-2.8291,-2.8291,-2.8291,-2.8291,-2.8291,-2.8437,-2.8721,-2.8857,-2.9238,-2.9805,-3.0078,-3.0371,-3.0684,-3.083,-3.0889,-3.0889,-3.0889,-3.0889,-3.0889,-3.0889,-3.0889,-3.0889,-3.0889,-3.0889,-3.0889,-3.0889,-3.0889,-3.0996,-3.1553,-3.1934,-3.2285,-3.2832,-3.3203,-3.3418,-3.3418,-3.3418,-3.3418,-3.3418,-3.3418,-3.334,-3.3057,-3.2998,-3.291,-3.2617,-3.2793,-3.2998,-3.2998,-3.3232,-3.3418,-3.3418,-3.3418,-3.3418,-3.3418,-3.3174,-3.2998,-3.2998,-3.2617,-3.2363,-3.2363,-3.2246,-3.2041,-3.1738,-3.1455,-3.1103,-3.0587,-3.0762,-3.0889,-3.0889,-3.0889,-3.0889,-3.0889,-3.0889,-3.0889,-3.0889,-3.0889,-3.0889,-2.083,-2.025,-2.0146,-2.1477,-2.3045,-2.4993,-2.7852,-2.8534,-2.9304,-3.1973,-3.2082,-3.1729,-3.1729,-3.213,0.0,-3.2515,-3.4258,0.0,0.0,0.0,0.0,0.0,0.0,0.0,0.0,0.0,0.0,0.0,0.0,0.0,0.0,0.0,0.0,0.0,-2.891,-2.8291,-2.8291,-2.8291,-2.8291,-2.8291,-2.8291,-2.8291,-2.8301,-2.8721,-2.8916,-2.8965,-2.9814,-3.0185,-3.0225,-3.0693,-3.0889,-3.0889,-3.0889,-3.0889,-3.0889,-3.0889,-3.0889,-3.0889,-3.0889,-3.0889,-3.0889,-3.0889,-3.0889,-3.1045,-3.1904,-3.2229,-3.2344,-3.3184,-3.3418,-3.3418,-3.3418,-3.3418,-3.3418,-3.3418,-3.3418,-3.3418,-3.3418,-3.3418,-3.3418,-3.3418,-3.3418,-3.3418,-3.3418,-3.3418,-3.3418,-3.3418,-3.3418,-3.3418,-3.3418,-3.3418,-3.3418,-3.3418,-3.3047,-3.2803,-3.2803,-3.2422,-3.2178,-3.2238,-3.2238,-3.1797,-3.0937,-3.0898,-3.0898,-3.0898,-3.0889,-3.0889,-3.0889,-3.0889,-3.0889,-3.0898,-3.0898,-3.0898,-2.0239,-2.0625,-2.1465,-2.2574,-2.5048,-2.776,-2.9754,-3.0458,-3.1372,-3.3669,-3.3705,-3.3224,-3.2875,-3.3236,0.0,-3.3116,0.0,0.0,0.0,0.0,0.0,0.0,0.0,0.0,0.0,0.0,0.0,0.0,0.0,0.0,0.0,0.0,0.0,0.0,-3.0026,-2.9418,-2.9418,-2.8698,-2.8291,-2.8291,-2.8291,-2.8291,-2.8301,-2.8418,-2.8643,-2.8926,-2.9189,-2.9473,-2.9785,-3.0225,-3.0596,-3.0889,-3.0889,-3.0889,-3.0889,-3.0889,-3.0889,-3.0889,-3.0889,-3.0889,-3.0889,-3.0889,-3.0889,-3.0996,-3.1543,-3.1924,-3.2285,-3.2832,-3.3193,-3.3418,-3.3418,-3.3418,-3.3418,-3.3418,-3.3418,-3.3418,-3.3418,-3.3418,-3.3418,-3.3418,-3.3418,-3.3418,-3.3418,-3.3418,-3.3418,-3.3418,-3.3418,-3.3418,-3.3418,-3.3418,-3.3418,-3.3418,-3.331,-3.3232,-3.3232,-3.3115,-3.292,-3.2627,-3.2607,-3.2363,-3.1816,-3.1494,-3.1328,-3.1328,-3.1035,-3.0889,-3.0889,-3.0889,-3.1045,-3.1328,-3.1328,-3.1494,-2.1167,-2.1873,-2.3059,-2.469,-2.6907,-2.931,-3.1621,-3.2382,-3.3032,-3.4523,-3.4354,-3.3898,-3.3645,-3.379,0.0,0.0,0.0,0.0,0.0,0.0,0.0,0.0,0.0,0.0,0.0,0.0,0.0,0.0,0.0,0.0,0.0,0.0,0.0,0.0,-3.1165,-3.0598,-3.0598,-2.9932,-2.9365,-2.8953,-2.8953,-2.8698,-2.8291,-2.8291,-2.8428,-2.8682,-2.8848,-2.917,-2.96,-3.0019,-3.0361,-3.0635,-3.082,-3.0889,-3.0889,-3.0889,-3.0889,-3.0889,-3.0889,-3.0889,-3.0889,-3.0889,-3.0889,-3.0976,-3.1396,-3.1826,-3.2256,-3.2676,-3.3096,-3.3418,-3.3418,-3.3418,-3.3418,-3.3418,-3.3418,-3.3418,-3.3418,-3.3418,-3.3418,-3.3418,-3.3418,-3.3418,-3.3418,-3.3418,-3.3418,-3.3418,-3.3418,-3.3418,-3.3418,-3.3418,-3.3418,-3.3418,-3.3418,-3.3418,-3.3418,-3.3418,-3.331,-3.3057,-3.3047,-3.293,-3.2676,-3.209,-3.1777,-3.1777,-3.1523,-3.1396,-3.1396,-3.1396,-3.1523,-3.1777,-3.1777,-3.1924,-2.2807,-2.3446,-2.4605,-2.722,-2.8641,-3.0219,-3.3413,-3.4114,-3.4198,-3.4679,-3.4402,-3.4066,-3.4066,-3.4066,-3.4066,0.0,0.0,0.0,0.0,0.0,0.0,0.0,0.0,0.0,0.0,0.0,0.0,0.0,0.0,0.0,0.0,0.0,0.0,-3.33,-3.2297,-3.1728,-3.1728,-3.1626,-3.1062,0.0,-3.0026,-2.9471,-2.8441,-2.8344,-2.8291,-2.831,-2.8701,-2.9111,-2.9541,-2.9971,-3.0166,-3.0244,-3.0713,-3.0889,-3.0889,-3.0889,-3.0889,-3.0889,-3.0889,-3.0889,-3.0889,-3.0889,-3.0889,-3.0967,-3.1348,-3.1758,-3.2197,-3.2617,-3.3037,-3.3379,-3.3408,-3.3418,-3.3418,-3.3418,-3.3418,-3.3418,-3.3418,-3.3418,-3.3418,-3.3418,-3.3418,-3.3418,-3.3418,-3.3418,-3.3418,-3.3418,-3.3418,-3.3418,-3.3418,-3.3418,-3.3418,-3.3418,-3.3418,-3.3418,-3.3418,-3.3418,-3.3418,-3.3418,-3.3418,-3.3418,-3.3418,-3.2656,-3.2226,-3.2226,-3.2248,-3.2229,-3.2229,-3.2229,-3.2248,-3.2226,-3.2226,-3.2246,-2.1694,-2.2767,-2.4531,-2.7643,-3.054,-3.3035,-3.4581,-3.4752,-3.4643,-3.4763,-3.4691,-3.4607,-3.4607,-3.4607,0.0,0.0,0.0,0.0,0.0,0.0,0.0,0.0,0.0,0.0,0.0,0.0,0.0,0.0,0.0,0.0,0.0,0.0,0.0,-3.447,-3.3411,-3.2851,-3.2851,-3.2033,-3.1472,0.0,-3.1216,-3.065,-2.9513,-2.8698,-2.8291,-2.8301,-2.8389,-2.8672,-2.9092,-2.9521,-2.9902,-3.0244,-3.0713,-3.0889,-3.0889,-3.0889,-3.0889,-3.0889,-3.0889,-3.0889,-3.0889,-3.0889,-3.0889,-3.0908,-3.0996,-3.1318,-3.1748,-3.2178,-3.2607,-3.3008,-3.334,-3.3418,-3.3418,-3.3418,-3.3418,-3.3418,-3.3418,-3.3418,-3.3418,-3.3418,-3.3418,-3.3418,-3.3418,-3.3418,-3.3418,-3.3418,-3.3418,-3.3418,-3.3418,-3.3418,-3.3418,-3.3418,-3.3418,-3.3418,-3.3418,-3.3418,-3.3418,-3.3418,-3.3418,-3.3418,-3.3418,-3.293,-3.2656,-3.2656,-3.2334,-3.2229,-3.2229,-3.2229,-3.2334,-3.2656,-3.2656,-3.2832,-2.2322,-2.3841,-2.598,-2.9965,-3.2469,-3.4176,-3.5028,-3.5078,-3.4981,-3.4835,-3.4775,-3.4775,-3.4775,0.0,0.0,0.0,0.0,0.0,0.0,0.0,0.0,0.0,0.0,0.0,0.0,0.0,0.0,0.0,0.0,0.0,0.0,-3.4775,-3.4775,-3.4775,-3.4274,-3.3967,-3.3967,-3.34,-3.2889,-3.2387,-3.2387,-3.1513,-2.9869,-2.8804,-2.8291,-2.8291,-2.8291,-2.8418,-2.8652,-2.9082,-2.9512,-2.9941,-3.0381,-3.0693,-3.0889,-3.0889,-3.0889,-3.0889,-3.0889,-3.0889,-3.0889,-3.0889,-3.0889,-3.0889,-3.0889,-3.1182,-3.1611,-3.2041,-3.2471,-3.2891,-3.331,-3.3418,-3.3418,-3.3418,-3.3418,-3.3418,-3.3418,-3.3418,-3.3418,-3.3418,-3.3418,-3.3418,-3.3418,-3.3418,-3.3418,-3.3418,-3.3418,-3.3418,-3.3418,-3.3418,-3.3418,-3.3418,-3.3418,-3.3418,-3.3418,-3.3418,-3.3418,-3.3418,-3.3418,-3.3418,-3.3418,-3.3213,-3.3096,-3.3096,-3.2881,-3.2764,-3.2764,-3.2764,-3.2881,-3.3096,-3.3096,-3.3213,-2.2749,-2.4971,-2.7835,-3.2324,-3.3866,-3.4428,-3.5002,-3.5162,-3.5126,-3.4884,-3.4775,-3.4775,-3.4775,0.0,0.0,0.0,0.0,0.0,0.0,0.0,0.0,0.0,0.0,0.0,0.0,0.0,0.0,0.0,0.0,0.0,-3.4775,-3.4775,-3.4775,-3.4775,-3.4775,-3.4775,-3.4775,-3.4775,-3.4372,-3.3449,-3.33,-3.2123,-3.0182,-2.9059,-2.8495,-2.8291,-2.8291,-2.8291,-2.833,-2.875,-2.9131,-2.9512,-3.0,-3.043,-3.0781,-3.0859,-3.0889,-3.0889,-3.0889,-3.0889,-3.0889,-3.0889,-3.0889,-3.0889,-3.0889,-3.1133,-3.1514,-3.2031,-3.2422,-3.2803,-3.3301,-3.3418,-3.3418,-3.3418,-3.3418,-3.3418,-3.3418,-3.3418,-3.3418,-3.3418,-3.3418,-3.3418,-3.3418,-3.3418,-3.3418,-3.3418,-3.3418,-3.3418,-3.3418,-3.3418,-3.3418,-3.3418,-3.3418,-3.3418,-3.3418,-3.3418,-3.3418,-3.3418,-3.3418,-3.3418,-3.3418,-3.3418,-3.3418,-3.3418,-3.3418,-3.3418,-3.3418,-3.3418,-3.3418,-3.3418,-3.3418,-3.3418,-2.0162,-2.4042,-2.8737,-3.2248,-3.3726,-3.4421,-3.4772,-3.5038,-3.5126,0.0,-3.4775,-3.4775,0.0,0.0,0.0,0.0,0.0,0.0,0.0,0.0,0.0,0.0,0.0,0.0,0.0,0.0,0.0,0.0,0.0,0.0,-3.4775,-3.4775,-3.4775,-3.4775,-3.4775,-3.4775,-3.4775,-3.4775,-3.4726,-3.458,-3.3659,-3.2538,-3.1319,-3.0182,-2.9164,-2.8291,-2.8291,-2.8291,-2.833,-2.875,-2.8955,-2.9082,-2.9883,-3.0234,-3.0332,-3.0742,-3.0889,-3.0889,-3.0889,-3.0889,-3.0889,-3.0889,-3.0889,-3.0889,-3.0889,-3.0928,-3.1143,-3.1943,-3.2268,-3.2432,-3.3223,-3.3418,-3.3418,-3.3418,-3.3418,-3.3418,-3.3418,-3.3418,-3.3418,-3.3418,-3.3418,-3.3418,-3.3418,-3.3418,-3.3418,-3.3418,-3.3418,-3.3418,-3.3418,-3.3418,-3.3418,-3.3418,-3.3418,-3.3418,-3.3418,-3.3418,-3.3418,-3.3418,-3.3418,-3.3418,-3.3418,-3.3418,-3.3418,-3.3418,-3.3418,-3.3418,-3.3418,-3.3418,-3.3418,-3.3418,-3.3418,-3.3418,-2.187,-2.5071,-2.8524,-3.2206,-3.3358,-3.3801,-3.4387,-3.4539,-3.4562,-3.4569,-3.4438,0.0,0.0,0.0,0.0,0.0,0.0,0.0,0.0,0.0,0.0,0.0,0.0,0.0,0.0,0.0,0.0,0.0,0.0,-3.4775,-3.4775,-3.4775,-3.4775,-3.4775,-3.4775,-3.4775,-3.4775,-3.4775,-3.4775,-3.4775,-3.3709,-3.2951,-3.2437,-3.0691,-2.9313,-2.8291,-2.8291,-2.8291,-2.831,-2.8496,-2.8711,-2.8984,-2.96,-2.999,-3.0254,-3.0723,-3.0889,-3.0889,-3.0889,-3.0889,-3.0889,-3.0889,-3.0889,-3.0889,-3.0889,-3.1055,-3.1377,-3.1992,-3.2334,-3.2656,-3.3262,-3.3418,-3.3418,-3.3418,-3.3418,-3.3418,-3.3418,-3.3418,-3.3418,-3.3418,-3.3418,-3.3418,-3.3418,-3.3418,-3.3418,-3.3418,-3.3418,-3.3418,-3.3418,-3.3418,-3.3418,-3.3418,-3.3418,-3.3418,-3.3418,-3.3418,-3.3418,-3.3418,-3.3418,-3.3418,-3.3418,-3.3418,-3.3418,-3.3418,-3.3418,-3.3418,-3.3418,-3.3418,-3.3418,-3.3418,-3.3418,-3.3418,-2.2673,-2.487,-2.6954,-3.0846,-3.2127,-3.2737,-3.3655,-3.3872,-3.3949,0.0,0.0,0.0,0.0,0.0,0.0,0.0,0.0,0.0,0.0,0.0,0.0,0.0,0.0,0.0,0.0,0.0,0.0,0.0,0.0,-3.4775,-3.4775,-3.4775,-3.4715,-3.4583,-3.4583,-3.451,-3.4438,-3.451,-3.4583,-3.4583,-3.3909,-3.3461,-3.3151,-3.1206,-2.9723,-2.8698,-2.8398,-2.8291,-2.8291,-2.8291,-2.8476,-2.8809,-2.9355,-2.9766,-3.0107,-3.0674,-3.0889,-3.0889,-3.0889,-3.0889,-3.0889,-3.0889,-3.0889,-3.0889,-3.0889,-3.1182,-3.1611,-3.2041,-3.2471,-3.2891,-3.331,-3.3418,-3.3418,-3.3418,-3.3418,-3.3418,-3.3418,-3.3418,-3.3418,-3.3418,-3.3418,-3.3418,-3.3418,-3.3418,-3.3418,-3.3418,-3.3418,-3.3418,-3.3418,-3.3418,-3.3418,-3.3418,-3.3418,-3.3418,-3.3418,-3.3418,-3.3418,-3.3418,-3.3418,-3.3418,-3.3418,-3.3418,-3.3418,-3.3418,-3.3418,-3.3418,-3.3418,-3.3418,-3.3418,-3.3418,-3.3418,-3.3418,-2.0126,-2.1707,-2.3502,-2.7394,-2.9566,-3.1079,-3.248,0.0,-3.3551,-3.3649,0.0,0.0,0.0,0.0,0.0,0.0,0.0,0.0,0.0,0.0,0.0,0.0,0.0,0.0,0.0,0.0,0.0,0.0,0.0,-3.4775,-3.4775,-3.4775,-3.4546,-3.4054,-3.403,-3.3802,-3.3368,-3.3837,-3.403,-3.4042,-3.4486,-3.4164,-3.3151,-3.2033,-3.0908,-2.9775,-2.8751,-2.8291,-2.8291,-2.8291,-2.8301,-2.8408,-2.9248,-2.9636,-2.9707,-3.0576,-3.0889,-3.0889,-3.0889,-3.0889,-3.0889,-3.0889,-3.0889,-3.0889,-3.0889,-3.1182,-3.1611,-3.2041,-3.2471,-3.2891,-3.331,-3.3418,-3.3418,-3.3418,-3.3418,-3.3418,-3.3418,-3.3418,-3.3418,-3.3418,-3.3418,-3.3418,-3.3418,-3.3418,-3.3418,-3.3418,-3.3418,-3.3418,-3.3418,-3.3418,-3.3418,-3.3418,-3.3418,-3.3418,-3.3418,-3.3418,-3.3418,-3.3418,-3.3418,-3.3418,-3.3418,-3.3418,-3.3418,-3.3418,-3.3418,-3.3418,-3.3418,-3.3418,-3.3418,-3.3418,-3.3418,-3.3418,-1.966,-2.1192,-2.2987,-2.5787,-2.7758,-2.9314,-3.0538,-3.1689,-3.2605,-3.2975,0.0,0.0,0.0,0.0,0.0,0.0,0.0,0.0,0.0,0.0,0.0,0.0,0.0,0.0,0.0,0.0,0.0,0.0,0.0,0.0,-3.3837,-3.3837,-3.3753,-3.3573,-3.3561,-3.3464,-3.3284,-3.3464,-3.3717,-3.3994,-3.4186,-3.4245,-3.4176,-3.2387,-3.137,-3.0908,-2.9059,-2.8291,-2.8291,-2.8291,-2.8291,-2.8379,-2.9238,-2.9626,-2.9734,-3.0566,-3.0889,-3.0889,-3.0889,-3.0889,-3.0889,-3.0889,-3.0889,-3.0947,-3.1211,-3.1592,-3.2021,-3.2451,-3.2871,-3.3232,-3.3379,-3.3418,-3.3418,-3.3418,-3.3418,-3.3418,-3.3418,-3.3418,-3.3418,-3.3418,-3.3418,-3.3418,-3.3418,-3.3418,-3.333,-3.3057,-3.3252,-3.333,-3.3057,-3.3252,-3.3418,-3.3418,-3.3418,-3.3418,-3.3418,-3.3418,-3.3418,-3.3418,-3.3418,-3.3418,-3.3418,-3.3418,-3.3418,-3.3418,-3.3418,-3.3418,-3.3418,-3.3418,-3.3418,-3.3418,-3.3418,-3.3418,-1.8794,-2.0075,-2.1832,-2.4418,-2.5611,-2.6841,-2.9465,-3.0363,-3.0979,0.0,0.0,0.0,0.0,0.0,0.0,0.0,0.0,0.0,0.0,0.0,0.0,0.0,0.0,0.0,0.0,0.0,0.0,0.0,0.0,0.0,-3.3284,-3.3284,-3.3212,-3.3032,-3.2839,-3.2743,-3.2743,-3.2935,-3.3284,-3.3789,-3.391,-3.427,-3.4726,-3.26,-3.1575,-3.1472,-2.927,-2.8291,-2.8291,-2.8291,-2.8291,-2.8379,-2.9238,-2.9626,-2.9734,-3.0566,-3.0889,-3.0889,-3.0889,-3.0889,-3.0889,-3.0889,-3.0889,-3.0976,-3.1396,-3.1826,-3.2256,-3.2676,-3.3096,-3.3418,-3.3418,-3.3418,-3.3418,-3.3418,-3.3418,-3.3418,-3.3418,-3.3418,-3.3418,-3.3418,-3.3418,-3.3418,-3.3418,-3.3418,-3.333,-3.3047,-3.3242,-3.332,-3.3037,-3.3252,-3.3418,-3.3418,-3.3418,-3.3418,-3.3418,-3.3418,-3.3418,-3.3418,-3.3418,-3.3418,-3.3418,-3.3418,-3.3418,-3.3418,-3.3418,-3.3418,-3.3418,-3.3418,-3.3418,-3.3418,-3.3418,-3.3418,0.0,0.0,0.0,-2.305,0.0,0.0,-2.9139,0.0,-2.8712,0.0,0.0,0.0,0.0,0.0,0.0,0.0,0.0,0.0,0.0,0.0,0.0,0.0,0.0,0.0,0.0,0.0,0.0,0.0,0.0,-3.3236,-3.3236,-3.3236,-3.3008,-3.2491,-3.1994,-3.1705,-3.1705,-3.2202,-3.2743,-3.3296,-3.3742,-3.4258,-3.4726,-3.2588,-3.1626,-3.1472,-2.927,-2.8344,-2.8291,-2.8291,-2.8291,-2.8379,-2.9238,-2.9626,-2.9734,-3.0566,-3.0889,-3.0889,-3.0889,-3.0889,-3.0889,-3.0889,-3.0889,-3.0976,-3.1406,-3.1836,-3.2256,-3.2695,-3.3105,-3.3418,-3.3418,-3.3418,-3.3418,-3.3418,-3.3418,-3.3418,-3.3418,-3.3418,-3.3418,-3.3418,-3.3418,-3.3418,-3.3418,-3.3418,-3.3418,-3.3408,-3.3408,-3.3408,-3.3408,-3.3408,-3.3408,-3.3418,-3.3418,-3.3418,-3.3418,-3.3418,-3.3418,-3.3418,-3.3418,-3.3418,-3.3418,-3.3418,-3.3418,-3.3418,-3.3418,-3.3418,-3.3418,-3.3418,-3.3418,-3.3418,-3.3418,-3.3418,-1.7978,0.0,0.0,0.0,0.0,0.0,0.0,0.0,0.0,0.0,0.0,0.0,0.0,0.0,0.0,0.0,0.0,0.0,0.0,0.0,0.0,0.0,0.0,0.0,0.0,0.0,0.0,0.0,-3.2163,-3.2163,-3.2163,-3.2163,-3.209,-3.1946,-3.1789,-3.1705,-3.1705,-3.1862,-3.2415,-3.3284,-3.3428,-3.3958,-3.4726,-3.34,-3.2336,-3.1524,-3.0089,-2.9006,-2.8291,-2.8291,-2.8291,-2.8379,-2.9238,-2.9626,-2.9734,-3.0566,-3.0889,-3.0889,-3.0889,-3.0889,-3.0889,-3.0889,-3.0889,-3.1025,-3.1768,-3.207,-3.2314,-3.3047,-3.333,-3.3418,-3.3418,-3.3418,-3.3418,-3.3418,-3.3418,-3.3418,-3.3418,-3.3418,-3.3418,-3.3418,-3.3418,-3.3418,-3.3418,-3.3418,-3.332,-3.3008,-3.2969,-3.2969,-3.2969,-3.2969,-3.3086,-3.3389,-3.3418,-3.3418,-3.3418,-3.3418,-3.3418,-3.3418,-3.3418,-3.3418,-3.3418,-3.3418,-3.3418,-3.3418,-3.3418,-3.3418,-3.3418,-3.3418,-3.3418,-3.3418,-3.3418,-3.3418,-1.8668,-1.9158,-1.9899,-2.0274,0.0,0.0,0.0,-2.4079,0.0,0.0,0.0,0.0,0.0,0.0,0.0,0.0,0.0,0.0,0.0,0.0,0.0,0.0,0.0,0.0,0.0,0.0,0.0,-3.1705,-3.1705,-3.1705,-3.1705,-3.1705,-3.1705,-3.1705,-3.1705,-3.1705,-3.1705,-3.1705,-3.2151,-3.2959,-3.3188,-3.3717,-3.4402,-3.3097,-3.2185,-3.1524,-2.9932,-2.891,-2.8291,-2.8291,-2.8291,-2.8379,-2.9238,-2.9626,-2.9734,-3.0566,-3.0889,-3.0889,-3.0889,-3.0889,-3.0889,-3.0889,-3.0889,-3.1055,-3.1964,-3.2229,-3.2344,-3.3184,-3.3418,-3.3418,-3.3418,-3.3418,-3.3418,-3.3418,-3.3418,-3.3418,-3.3418,-3.3418,-3.3418,-3.3418,-3.3418,-3.3418,-3.3418,-3.3418,-3.334,-3.3096,-3.3057,-3.3057,-3.3057,-3.3057,-3.3144,-3.3389,-3.3418,-3.3418,-3.3418,-3.3418,-3.3418,-3.3418,-3.3418,-3.3418,-3.3418,-3.3418,-3.3418,-3.3418,-3.3418,-3.3418,-3.3418,-3.3418,-3.3418,-3.3418,-3.3418,-3.3418,-1.9635,-1.9747,-2.0489,-2.1794,-2.0376,0.0,-2.4525,-2.4155,-2.3822,0.0,0.0,0.0,0.0,0.0,0.0,0.0,0.0,0.0,0.0,0.0,0.0,0.0,0.0,0.0,-3.2406,-3.1994,-3.1705,-3.1705,-3.1705,-3.1705,-3.1705,-3.1705,-3.1705,-3.1705,-3.1705,-3.1705,-3.1705,-3.1705,-3.1994,-3.2515,-3.3032,-3.3549,-3.3959,-3.2474,-3.1728,-3.1472,-2.9365,-2.8388,-2.8291,-2.8291,-2.8291,-2.8379,-2.9238,-2.9626,-2.9734,-3.0566,-3.0889,-3.0889,-3.0889,-3.0889,-3.0889,-3.0889,-3.0889,-3.1045,-3.1855,-3.2129,-3.2344,-3.3184,-3.3418,-3.3418,-3.3418,-3.3418,-3.3418,-3.3418,-3.3418,-3.3418,-3.3418,-3.3418,-3.3418,-3.3418,-3.3418,-3.3418,-3.3418,-3.3418,-3.3418,-3.3418,-3.3379,-3.3369,-3.3418,-3.3379,-3.3369,-3.3418,-3.3418,-3.3418,-3.3418,-3.3418,-3.3418,-3.3418,-3.3418,-3.3418,-3.3418,-3.3418,-3.3418,-3.3418,-3.3418,-3.3418,-3.3418,-3.3418,-3.3418,-3.3418,-3.3418,-3.3418,-2.1732,-2.2042,-2.2217,-2.1242,0.0,0.0,-2.0075,-2.0514,-2.1521,0.0,0.0,0.0,0.0,0.0,0.0,0.0,0.0,0.0,0.0,0.0,0.0,0.0,0.0,0.0,-3.1874,-3.1765,-3.1705,-3.1705,-3.1705,-3.1705,-3.1705,-3.1705,-3.1705,-3.1705,-3.1705,-3.1705,-3.1705,-3.1705,-3.1994,-3.2515,-3.3032,-3.3549,-3.3959,-3.323,-3.2437,-3.1524,-3.0182,-2.9112,-2.8291,-2.8291,-2.8291,-2.8379,-2.9238,-2.9626,-2.9734,-3.0566,-3.0889,-3.0889,-3.0889,-3.0889,-3.0889,-3.0889,-3.0889,-3.0986,-3.1494,-3.1894,-3.2344,-3.3184,-3.3418,-3.3418,-3.3418,-3.3418,-3.3418,-3.3418,-3.3418,-3.3418,-3.3418,-3.3418,-3.3418,-3.3418,-3.3418,-3.3418,-3.3418,-3.3418,-3.3418,-3.3418,-3.3135,-3.3037,-3.3379,-3.3125,-3.3047,-3.3389,-3.3418,-3.3418,-3.3418,-3.3418,-3.3418,-3.3418,-3.3418,-3.3418,-3.3418,-3.3418,-3.3418,-3.3418,-3.3418,-3.3418,-3.3418,-3.3418,-3.3418,-3.3418,-3.3418,-3.3418,-2.2844,-2.2895,-2.2982,-2.246,0.0,0.0,0.0,0.0,0.0,0.0,0.0,0.0,0.0,0.0,0.0,0.0,0.0,0.0,0.0,0.0,0.0,0.0,0.0,0.0,-3.1308,-3.1548,-3.1705,-3.1705,-3.1705,-3.1705,-3.1705,-3.1705,-3.1705,-3.1705,-3.1705,-3.1705,-3.1705,-3.1705,-3.1849,-3.2094,-3.2899,-3.3416,-3.3646,-3.2757,-3.2083,-3.1524,-2.9828,-2.8804,-2.8291,-2.8291,-2.8291,-2.8379,-2.9238,-2.9626,-2.9734,-3.0566,-3.0889,-3.0889,-3.0889,-3.0889,-3.0889,-3.0889,-3.0889,-3.0976,-3.1396,-3.1973,-3.2568,-3.2988,-3.3262,-3.3418,-3.3418,-3.3418,-3.3418,-3.3418,-3.3418,-3.3418,-3.3418,-3.3418,-3.3418,-3.3418,-3.3418,-3.3418,-3.3418,-3.3418,-3.3418,-3.3418,-3.3242,-3.3184,-3.3389,-3.3242,-3.3193,-3.3398,-3.3418,-3.3418,-3.3418,-3.3418,-3.3418,-3.3418,-3.3418,-3.3418,-3.3418,-3.3418,-3.3418,-3.3418,-3.3418,-3.3418,-3.3418,-3.3418,-3.3418,-3.3418,-3.3418,-3.3418,0.0,0.0,0.0,0.0,0.0,-2.1773,0.0,0.0,0.0,0.0,0.0,0.0,0.0,0.0,0.0,0.0,0.0,0.0,0.0,0.0,0.0,0.0,0.0,0.0,0.0,-3.0814,-3.1115,-3.1524,-3.1271,-3.1235,-3.1536,-3.1657,-3.1705,-3.1705,-3.1705,-3.1705,-3.1705,-3.1705,-3.1705,-3.1717,-3.2767,-3.3284,-3.3274,-3.2347,-3.1779,-3.1472,-2.9471,-2.8495,-2.8291,-2.8291,-2.8291,-2.8369,-2.9141,-2.9492,-2.9668,-3.0469,-3.081,-3.0889,-3.0889,-3.0889,-3.0889,-3.0889,-3.0889,-3.0976,-3.1396,-3.206,-3.2695,-3.2773,-3.3096,-3.3418,-3.3418,-3.3418,-3.3418,-3.3418,-3.3418,-3.3418,-3.3418,-3.3418,-3.3418,-3.3418,-3.3418,-3.3418,-3.3418,-3.3418,-3.3418,-3.3418,-3.3418,-3.3418,-3.3418,-3.3418,-3.3418,-3.3418,-3.3418,-3.3418,-3.3418,-3.3418,-3.3418,-3.3418,-3.3418,-3.3418,-3.3418,-3.3418,-3.3418,-3.3418,-3.3418,-3.3418,-3.3418,-3.3418,-3.3418,-3.3418,-3.3418,-3.3418,0.0,0.0,0.0,0.0,-2.4142,0.0,0.0,0.0,0.0,0.0,0.0,0.0,0.0,0.0,0.0,0.0,0.0,0.0,0.0,0.0,0.0,0.0,0.0,0.0,0.0,0.0,-2.8943,-3.0862,-2.9665,-2.9484,-3.0891,-3.1452,-3.1705,-3.1705,-3.1705,-3.1705,-3.1705,-3.1705,-3.1705,-3.1717,-3.2767,-3.3284,-3.3274,-3.3108,-3.2488,-3.1524,-3.0287,-2.9164,-2.8291,-2.8291,-2.8291,-2.834,-2.8809,-2.9228,-2.9685,-3.0098,-3.0537,-3.0889,-3.0889,-3.0889,-3.0889,-3.0889,-3.0889,-3.0976,-3.1396,-3.1855,-3.2314,-3.2695,-3.3096,-3.3418,-3.3418,-3.3418,-3.3418,-3.3418,-3.3418,-3.3418,-3.3418,-3.3418,-3.3418,-3.3418,-3.3418,-3.3418,-3.3418,-3.3418,-3.3418,-3.3418,-3.3418,-3.3418,-3.3418,-3.3418,-3.3418,-3.3418,-3.3418,-3.3418,-3.3418,-3.3418,-3.3418,-3.3418,-3.3418,-3.3418,-3.3418,-3.3418,-3.3418,-3.3418,-3.3418,-3.3418,-3.3418,-3.3418,-3.3418,-3.3418,-3.3418,-3.3418,0.0,0.0,0.0,0.0,0.0,0.0,-2.1179,0.0,-2.0501,0.0,0.0,0.0,0.0,0.0,0.0,0.0,0.0,0.0,0.0,0.0,0.0,0.0,0.0,0.0,0.0,0.0,0.0,0.0,0.0,-2.8952,-3.0814,-3.1127,-3.1392,-3.1705,-3.1705,-3.1705,-3.1705,-3.1705,-3.1705,-3.1717,-3.2767,-3.3284,-3.332,-3.3254,-3.2588,-3.1524,-3.039,-2.9313,-2.8291,-2.8291,-2.8291,-2.833,-2.875,-2.9189,-2.9675,-3.0039,-3.0488,-3.0889,-3.0889,-3.0889,-3.0889,-3.0889,-3.0889,-3.0928,-3.1103,-3.1631,-3.2268,-3.2383,-3.291,-3.3418,-3.3418,-3.3418,-3.3418,-3.3418,-3.3418,-3.3418,-3.3418,-3.3418,-3.3418,-3.3418,-3.3418,-3.3418,-3.3418,-3.3418,-3.3418,-3.3418,-3.3418,-3.3418,-3.3418,-3.3418,-3.3418,-3.3418,-3.3418,-3.3418,-3.3418,-3.3418,-3.3418,-3.3418,-3.3418,-3.3418,-3.3418,-3.3418,-3.3418,-3.3418,-3.3418,-3.3418,-3.3418,-3.3418,-3.3418,-3.3418,-3.3418,-3.3418,-2.6628,0.0,0.0,0.0,0.0,0.0,0.0,0.0,0.0,0.0,0.0,0.0,0.0,0.0,0.0,0.0,0.0,0.0,0.0,0.0,0.0,0.0,0.0,0.0,0.0,0.0,0.0,0.0,0.0,0.0,-3.0356,-3.0766,-3.1091,-3.1476,-3.1633,-3.1705,-3.1705,-3.1705,-3.1705,-3.1717,-3.2767,-3.3284,-3.332,-3.3254,-3.2588,-3.1524,-3.039,-2.9313,-2.8291,-2.8291,-2.8291,-2.833,-2.875,-2.9189,-2.9675,-3.0039,-3.0488,-3.0889,-3.0889,-3.0889,-3.0889,-3.0889,-3.0889,-3.0918,-3.1025,-3.1582,-3.2187,-3.2305,-3.2861,-3.3418,-3.3418,-3.3418,-3.3418,-3.3418,-3.3418,-3.3418,-3.3418,-3.3418,-3.3418,-3.3418,-3.3418,-3.3418,-3.3418,-3.3418,-3.3418,-3.3418,-3.3418,-3.3418,-3.3418,-3.3418,-3.3418,-3.3418,-3.3418,-3.3418,-3.3418,-3.3418,-3.3418,-3.3418,-3.3418,-3.3418,-3.3418,-3.3418,-3.3418,-3.3418,-3.3418,-3.3418,-3.3418,-3.3418,-3.3418,-3.3418,-3.3418,-3.3418,0.0,0.0,0.0,-2.4707,0.0,0.0,0.0,0.0,-2.2083,0.0,0.0,0.0,0.0,0.0,0.0,0.0,0.0,0.0,0.0,0.0,0.0,0.0,0.0,0.0,0.0,0.0,0.0,0.0,0.0,0.0,-2.9184,-3.0314,-3.0922,-3.0946,-3.144,-3.1705,-3.1705,-3.1705,-3.1705,-3.1717,-3.2767,-3.3284,-3.332,-3.3254,-3.2588,-3.1524,-3.039,-2.9313,-2.8291,-2.8291,-2.8291,-2.833,-2.875,-2.9189,-2.9675,-3.0039,-3.0488,-3.0889,-3.0889,-3.0889,-3.0889,-3.0889,-3.0889,-3.0967,-3.1377,-3.1816,-3.2256,-3.2656,-3.3086,-3.3418,-3.3418,-3.3418,-3.3418,-3.3418,-3.3418,-3.3418,-3.3418,-3.3418,-3.3418,-3.3418,-3.3418,-3.3418,-3.3418,-3.3418,-3.3418,-3.3418,-3.3418,-3.3418,-3.3418,-3.3418,-3.3418,-3.3418,-3.3418,-3.3418,-3.3418,-3.3418,-3.3418,-3.3418,-3.3418,-3.3418,-3.3418,-3.3418,-3.3418,-3.3418,-3.3418,-3.3418,-3.3418,-3.3418,-3.3418,-3.3418,-3.3418,-3.3418,0.0,0.0,-2.9528,-2.6436,0.0,0.0,0.0,0.0,0.0,0.0,0.0,0.0,0.0,0.0,0.0,0.0,0.0,0.0,0.0,0.0,0.0,0.0,0.0,0.0,0.0,0.0,0.0,0.0,-2.4957,0.0,0.0,-2.9256,-2.9989,-3.0338,-3.1247,-3.1705,-3.1705,-3.1705,-3.1705,-3.1717,-3.2767,-3.3284,-3.332,-3.3254,-3.2588,-3.1524,-3.039,-2.9313,-2.8291,-2.8291,-2.8291,-2.8359,-2.9072,-2.9443,-2.9675,-3.0039,-3.0488,-3.0889,-3.0889,-3.0889,-3.0889,-3.0889,-3.0889,-3.0976,-3.1396,-3.1826,-3.2256,-3.2676,-3.3096,-3.3418,-3.3418,-3.3418,-3.3418,-3.3418,-3.3418,-3.3418,-3.3418,-3.3418,-3.3418,-3.3418,-3.3418,-3.3418,-3.3418,-3.3418,-3.3418,-3.3418,-3.3418,-3.3418,-3.3418,-3.3418,-3.3418,-3.3418,-3.3418,-3.3418,-3.3418,-3.3418,-3.3418,-3.3418,-3.3418,-3.3418,-3.3418,-3.3418,-3.3418,-3.3418,-3.3418,-3.3418,-3.3418,-3.3418,-3.3418,-3.3418,-3.3418,-3.3418,-3.0143,-3.0595,0.0,-2.7971,-2.7228,0.0,-2.3577,0.0,0.0,0.0,0.0,0.0,0.0,0.0,0.0,0.0,0.0,0.0,0.0,0.0,0.0,0.0,0.0,0.0,0.0,0.0,-2.2659,-2.4843,-2.3878,0.0,0.0,0.0,-2.9256,-2.9785,-3.0874,-3.1524,-3.1705,-3.1705,-3.1705,-3.1717,-3.2767,-3.3284,-3.3274,-3.2851,-3.2235,-3.1524,-2.9984,-2.8953,-2.8291,-2.8291,-2.8291,-2.8379,-2.9238,-2.9626,-2.9695,-3.0225,-3.0635,-3.0889,-3.0889,-3.0889,-3.0889,-3.0889,-3.0889,-3.0996,-3.1572,-3.1943,-3.2285,-3.2861,-3.3213,-3.3418,-3.3418,-3.3418,-3.3418,-3.3418,-3.3418,-3.3418,-3.3418,-3.3418,-3.3418,-3.3418,-3.3418,-3.3418,-3.3418,-3.3418,-3.3418,-3.3418,-3.3418,-3.3418,-3.3418,-3.3418,-3.3418,-3.3418,-3.3418,-3.3418,-3.3418,-3.3418,-3.3418,-3.3418,-3.3418,-3.3418,-3.3418,-3.3418,-3.3418,-3.3418,-3.3418,-3.3418,-3.3418,-3.3418,-3.3418,-3.3418,-3.3418,-3.3418]},{"header":{"parameterUnit":"m.s-1","parameterCategory":1,"la1":30.6,"la2":29.2853,"lo1":-89.7004,"lo2":-87.6739,"dy":0.0162,"dx":0.0183,"nx":112,"ny":82,"refTime":"2026-03-03T12:00:00:Z","depth":0,"parameterNumber":3,"parameterNumberName":"V-component_of_WINDS"},"data":[0.0,0.0,0.0,0.0,0.0,0.0,0.0,0.0,0.0,0.0,0.0,0.0,0.0,0.0,0.0,0.0,0.0,0.0,0.0,0.0,0.0,0.0,0.0,0.0,0.0,0.0,0.0,0.0,0.0,0.0,0.0,0.0,0.0,0.0,0.0,0.0,0.0,0.0,0.0,0.0,0.0,0.0,0.0,0.0,0.0,0.0,0.0,0.0,0.0,0.0,0.0,0.0,0.0,0.0,0.0,0.0,0.0,0.0,0.0,0.0,0.0,0.0,0.0,0.0,0.0,0.0,0.0,0.0,0.0,0.0,0.0,0.0,0.0,0.0,0.0,0.0,0.0,0.0,0.0,0.0,0.0,0.0,0.0,0.0,0.0,0.0,0.0,0.0,0.0,0.0,0.0,2.6188,2.9593,3.1421,3.0746,3.0705,2.9031,2.5116,0.0,0.0,0.0,0.0,0.0,0.0,0.0,0.0,0.0,0.0,0.0,0.0,0.0,0.0,0.0,0.0,0.0,0.0,0.0,0.0,0.0,0.0,0.0,0.0,0.0,0.0,0.0,0.0,0.0,0.0,0.0,0.0,0.0,0.0,0.0,0.0,0.0,0.0,0.0,0.0,0.0,0.0,0.0,0.0,0.0,0.0,0.0,0.0,0.0,0.0,0.0,0.0,0.0,0.0,0.0,0.0,0.0,0.0,0.0,0.0,0.0,0.0,0.0,0.0,0.0,0.0,0.0,0.0,0.0,0.0,0.0,0.0,0.0,0.0,0.0,0.0,0.0,0.0,0.0,0.0,0.0,0.0,0.0,0.0,0.0,0.0,0.0,0.0,0.0,0.0,0.0,0.0,0.0,0.0,0.0,0.0,0.0,0.0,0.0,0.0,0.0,0.0,0.0,0.0,2.4147,2.8952,3.0498,3.1161,3.1028,3.0012,2.8157,2.5335,0.0,0.0,0.0,0.0,0.0,0.0,0.0,0.0,0.0,0.0,0.0,0.0,0.0,0.0,0.0,0.0,0.0,0.0,0.0,0.0,0.0,0.0,0.0,0.0,0.0,0.0,0.0,0.0,0.0,0.0,0.0,0.0,0.0,0.0,0.0,0.0,0.0,0.0,0.0,0.0,0.0,0.0,0.0,0.0,0.0,0.0,0.0,0.0,0.0,0.0,0.0,0.0,0.0,0.0,0.0,0.0,0.0,0.0,0.0,0.0,0.0,0.0,0.0,0.0,0.0,0.0,0.0,0.0,0.0,0.0,0.0,0.0,0.0,0.0,0.0,0.0,0.0,0.0,0.0,0.0,0.0,0.0,0.0,0.0,0.0,0.0,0.0,0.0,0.0,0.0,0.0,0.0,0.0,0.0,0.0,0.0,0.0,0.0,0.0,0.0,0.0,0.0,0.0,2.4258,2.6398,3.0586,3.1386,3.1595,3.1537,3.0433,2.8434,2.5377,2.3407,0.0,0.0,0.0,0.0,0.0,0.0,0.0,0.0,0.0,0.0,0.0,0.0,0.0,0.0,0.0,0.0,0.0,0.0,0.0,0.0,0.0,0.0,0.0,0.0,0.0,0.0,0.0,0.0,0.0,0.0,0.0,0.0,0.0,0.0,0.0,0.0,0.0,0.0,0.0,0.0,0.0,0.0,0.0,0.0,0.0,0.0,0.0,0.0,0.0,0.0,0.0,0.0,0.0,0.0,0.0,0.0,0.0,0.0,0.0,0.0,0.0,0.0,0.0,0.0,0.0,0.0,0.0,0.0,0.0,0.0,0.0,0.0,0.0,0.0,0.0,0.0,0.0,0.0,0.0,0.0,0.0,0.0,0.0,0.0,0.0,0.0,0.0,0.0,0.0,0.0,0.0,0.0,0.0,0.0,0.0,0.0,0.0,0.0,0.0,0.0,0.0,0.0,2.7402,2.9036,3.1841,3.2272,3.2247,3.1968,3.0735,2.8648,2.5448,2.3143,0.0,0.0,0.0,0.0,0.0,0.0,0.0,0.0,0.0,0.0,0.0,0.0,0.0,0.0,0.0,0.0,0.0,0.0,0.0,0.0,0.0,0.0,0.0,0.0,0.0,0.0,0.0,0.0,0.0,0.0,0.0,0.0,0.0,0.0,0.0,0.0,0.0,0.0,0.0,0.0,0.0,0.0,0.0,0.0,0.0,0.0,0.0,0.0,0.0,0.0,0.0,0.0,0.0,0.0,0.0,0.0,0.0,0.0,0.0,0.0,0.0,0.0,0.0,0.0,0.0,0.0,0.0,0.0,0.0,0.0,0.0,0.0,0.0,0.0,0.0,0.0,0.0,0.0,0.0,0.0,0.0,0.0,0.0,0.0,0.0,0.0,0.0,0.0,0.0,0.0,0.0,0.0,0.0,0.0,0.0,0.0,0.0,0.0,0.0,0.0,0.0,0.0,2.8607,3.141,3.2935,3.3098,3.2825,3.2159,3.0247,2.8029,2.554,2.2224,0.0,0.0,0.0,0.0,0.0,0.0,0.0,0.0,0.0,0.0,0.0,0.0,0.0,0.0,0.0,0.0,0.0,0.0,0.0,0.0,0.0,0.0,0.0,0.0,0.0,0.0,0.0,0.0,0.0,0.0,0.0,0.0,0.0,0.0,0.0,0.0,0.0,0.0,0.0,0.0,0.0,0.0,0.0,0.0,0.0,0.0,0.0,0.0,0.0,0.0,0.0,0.0,0.0,0.0,0.0,0.0,0.0,0.0,0.0,0.0,0.0,0.0,0.0,0.0,0.0,0.0,0.0,0.0,0.0,0.0,0.0,0.0,0.0,0.0,0.0,0.0,0.0,0.0,0.0,0.0,0.0,0.0,0.0,0.0,0.0,0.0,0.0,0.0,0.0,0.0,0.0,0.0,0.0,0.0,0.0,0.0,0.0,0.0,0.0,0.0,0.0,0.0,2.8824,3.1392,0.0,3.3951,3.3476,3.272,3.1518,2.935,2.5921,0.0,0.0,0.0,0.0,0.0,0.0,0.0,0.0,0.0,0.0,0.0,0.0,0.0,0.0,0.0,0.0,0.0,0.0,0.0,0.0,0.0,0.0,0.0,0.0,0.0,0.0,0.0,0.0,0.0,0.0,0.0,0.0,0.0,0.0,0.0,0.0,0.0,0.0,0.0,0.0,0.0,0.0,0.0,0.0,0.0,0.0,0.0,0.0,0.0,0.0,0.0,0.0,0.0,0.0,0.0,0.0,0.0,0.0,0.0,0.0,0.0,0.0,0.0,0.0,0.0,0.0,0.0,0.0,0.0,0.0,0.0,0.0,0.0,0.0,0.0,0.0,0.0,0.0,0.0,0.0,0.0,0.0,0.0,0.0,0.0,0.0,0.0,0.0,0.0,0.0,0.0,0.0,0.0,0.0,0.0,0.0,0.0,0.0,0.0,0.0,0.0,0.0,2.6785,2.9372,3.189,0.0,3.457,3.3958,3.2996,3.1798,2.9486,2.5723,0.0,0.0,0.0,0.0,0.0,0.0,0.0,0.0,0.0,0.0,0.0,0.0,0.0,0.0,0.0,0.0,0.0,0.0,0.0,0.0,0.0,0.0,0.0,0.0,0.0,0.0,0.0,0.0,0.0,0.0,0.0,0.0,0.0,0.0,0.0,0.0,0.0,0.0,0.0,0.0,0.0,0.0,0.0,0.0,0.0,0.0,0.0,0.0,0.0,0.0,0.0,0.0,0.0,0.0,0.0,0.0,0.0,0.0,0.0,0.0,0.0,0.0,0.0,0.0,0.0,0.0,0.0,0.0,0.0,0.0,0.0,0.0,0.0,0.0,0.0,0.0,0.0,0.0,0.0,0.0,0.0,0.0,0.0,0.0,0.0,0.0,0.0,0.0,0.0,0.0,0.0,0.0,0.0,0.0,0.0,0.0,0.0,0.0,0.0,0.0,0.0,0.0,2.6954,3.0451,3.3282,3.4733,3.4899,3.4286,3.2834,3.0692,2.8056,0.0,0.0,0.0,0.0,0.0,0.0,0.0,0.0,0.0,0.0,0.0,0.0,0.0,0.0,0.0,0.0,0.0,0.0,0.0,0.0,0.0,0.0,0.0,0.0,0.0,0.0,0.0,0.0,0.0,0.0,0.0,0.0,0.0,0.0,0.0,0.0,0.0,0.0,0.0,0.0,0.0,0.0,0.0,0.0,0.0,0.0,0.0,0.0,0.0,0.0,0.0,0.0,0.0,0.0,0.0,0.0,0.0,0.0,0.0,0.0,0.0,0.0,0.0,0.0,0.0,0.0,0.0,0.0,0.0,0.0,0.0,0.0,0.0,0.0,0.0,0.0,0.0,0.0,0.0,0.0,0.0,0.0,0.0,0.0,0.0,0.0,0.0,0.0,0.0,0.0,0.0,0.0,0.0,0.0,0.0,0.0,0.0,0.0,0.0,0.0,0.0,0.0,0.0,2.7284,3.0603,3.3282,3.4733,3.4899,3.4286,3.2834,3.1636,2.9455,2.5944,0.0,0.0,0.0,0.0,0.0,0.0,0.0,0.0,0.0,0.0,0.0,0.0,0.0,0.0,0.0,0.0,0.0,0.0,0.0,0.0,0.0,0.0,0.0,0.0,0.0,0.0,0.0,0.0,0.0,0.0,0.0,0.0,0.0,0.0,0.0,0.0,0.0,0.0,0.0,0.0,0.0,0.0,0.0,0.0,0.0,0.0,0.0,0.0,0.0,0.0,0.0,0.0,0.0,0.0,0.0,0.0,0.0,0.0,0.0,0.0,0.0,0.0,0.0,0.0,0.0,0.0,0.0,0.0,0.0,0.0,0.0,0.0,0.0,0.0,0.0,0.0,0.0,0.0,0.0,0.0,0.0,0.0,0.0,0.0,0.0,0.0,0.0,0.0,0.0,0.0,0.0,0.0,0.0,0.0,0.0,0.0,0.0,0.0,0.0,0.0,0.0,0.0,2.7545,3.0794,3.3434,3.4915,3.5065,3.4465,3.2984,3.1898,2.9752,2.6094,0.0,0.0,0.0,0.0,0.0,0.0,0.0,0.0,0.0,0.0,0.0,0.0,0.0,0.0,0.0,0.0,0.0,0.0,0.0,0.0,0.0,0.0,0.0,0.0,0.0,0.0,0.0,0.0,0.0,0.0,0.0,0.0,0.0,0.0,0.0,0.0,0.0,0.0,0.0,0.0,0.0,0.0,0.0,0.0,0.0,0.0,0.0,0.0,0.0,0.0,0.0,0.0,0.0,0.0,0.0,0.0,0.0,0.0,0.0,0.0,0.0,0.0,0.0,0.0,0.0,0.0,0.0,0.0,0.0,0.0,0.0,0.0,0.0,0.0,0.0,0.0,0.0,0.0,0.0,0.0,0.0,0.0,0.0,0.0,0.0,0.0,0.0,0.0,0.0,0.0,0.0,0.0,0.0,0.0,0.0,0.0,0.0,0.0,0.0,0.0,0.0,0.0,2.7778,3.1058,3.3667,3.514,3.5291,3.4705,3.3232,3.1813,2.9451,2.5832,0.0,0.0,0.0,0.0,0.0,0.0,0.0,0.0,0.0,0.0,0.0,0.0,0.0,0.0,0.0,0.0,0.0,0.0,0.0,0.0,0.0,0.0,0.0,0.0,0.0,0.0,0.0,0.0,0.0,0.0,0.0,0.0,0.0,0.0,0.0,0.0,0.0,0.0,0.0,0.0,0.0,0.0,0.0,0.0,0.0,0.0,0.0,0.0,0.0,0.0,0.0,0.0,0.0,0.0,0.0,0.0,0.0,0.0,0.0,0.0,3.0659,0.0,0.0,0.0,0.0,0.0,0.0,0.0,0.0,0.0,0.0,0.0,0.0,0.0,0.0,0.0,0.0,0.0,0.0,0.0,0.0,0.0,0.0,0.0,0.0,0.0,0.0,0.0,0.0,0.0,0.0,0.0,0.0,0.0,0.0,0.0,0.0,0.0,0.0,0.0,0.0,0.0,2.8183,3.1215,3.3667,3.514,3.5291,3.4705,3.3232,3.2278,3.0439,2.7324,2.4358,0.0,0.0,0.0,0.0,0.0,0.0,0.0,0.0,0.0,0.0,0.0,0.0,0.0,0.0,0.0,0.0,0.0,0.0,0.0,0.0,0.0,0.0,0.0,0.0,0.0,0.0,0.0,0.0,0.0,0.0,0.0,0.0,0.0,0.0,0.0,0.0,0.0,0.0,0.0,0.0,0.0,0.0,0.0,0.0,0.0,0.0,0.0,0.0,0.0,0.0,0.0,0.0,0.0,0.0,0.0,0.0,0.0,0.0,0.0,0.0,3.2205,0.0,0.0,0.0,0.0,0.0,0.0,0.0,0.0,0.0,0.0,0.0,0.0,0.0,0.0,0.0,0.0,0.0,0.0,0.0,0.0,0.0,0.0,0.0,0.0,0.0,0.0,0.0,0.0,0.0,0.0,0.0,0.0,0.0,0.0,0.0,0.0,0.0,0.0,0.0,0.0,2.8945,3.1638,3.3804,3.5284,3.5435,3.4981,3.3876,3.2765,3.1183,2.8947,2.6,0.0,0.0,0.0,0.0,0.0,0.0,0.0,0.0,0.0,0.0,0.0,0.0,0.0,0.0,0.0,0.0,0.0,0.0,0.0,0.0,0.0,0.0,0.0,0.0,0.0,0.0,0.0,0.0,0.0,0.0,0.0,0.0,0.0,0.0,0.0,0.0,0.0,0.0,0.0,0.0,0.0,0.0,0.0,0.0,0.0,0.0,0.0,0.0,0.0,0.0,0.0,0.0,0.0,3.8836,3.9986,4.1262,4.1262,4.1339,4.1297,3.8176,3.6586,3.6039,0.0,0.0,0.0,0.0,0.0,0.0,0.0,0.0,0.0,0.0,0.0,0.0,0.0,0.0,0.0,0.0,0.0,0.0,0.0,0.0,0.0,0.0,0.0,0.0,0.0,3.2307,3.09,0.0,0.0,0.0,0.0,0.0,0.0,0.0,0.0,0.0,0.0,0.0,0.0,2.9632,3.2138,3.4117,3.5447,3.56,3.5295,3.4556,3.3393,3.2005,3.0395,2.7824,2.544,0.0,0.0,0.0,0.0,0.0,0.0,0.0,0.0,0.0,0.0,0.0,0.0,0.0,0.0,0.0,0.0,0.0,0.0,0.0,0.0,0.0,0.0,0.0,0.0,0.0,0.0,0.0,0.0,0.0,0.0,0.0,0.0,2.9452,2.9865,0.0,0.0,0.0,0.0,0.0,0.0,0.0,0.0,0.0,0.0,0.0,0.0,0.0,3.6829,3.8091,4.0206,4.1694,4.253,4.3995,4.5111,4.5923,4.5923,4.6278,4.6824,4.6363,0.0,3.8481,3.755,0.0,0.0,0.0,0.0,0.0,0.0,0.0,0.0,0.0,0.0,0.0,0.0,0.0,0.0,0.0,0.0,0.0,0.0,0.0,0.0,0.0,0.0,3.4636,3.4286,3.4624,3.467,0.0,2.9753,2.6353,2.5237,0.0,0.0,0.0,0.0,0.0,0.0,0.0,0.0,2.9786,3.2594,3.4675,3.5498,3.56,3.5295,3.4556,3.4303,3.3305,3.119,3.0091,2.877,2.7148,2.4526,0.0,0.0,0.0,0.0,0.0,0.0,0.0,0.0,0.0,0.0,0.0,0.0,0.0,0.0,0.0,0.0,0.0,0.0,0.0,0.0,0.0,0.0,0.0,0.0,0.0,0.0,0.0,0.0,0.0,2.9692,3.1742,3.1376,3.1698,3.1343,0.0,0.0,0.0,0.0,0.0,0.0,0.0,0.0,0.0,3.87,3.9901,4.1035,4.2144,4.4333,4.5821,4.6566,4.7648,4.8562,4.9272,4.9272,4.9458,4.9731,4.9731,4.8054,4.501,4.2168,3.9681,3.7466,0.0,0.0,0.0,0.0,3.4912,3.5069,3.6721,3.7246,0.0,3.6214,0.0,0.0,0.0,0.0,0.0,0.0,0.0,0.0,0.0,0.0,0.0,3.8058,3.8193,3.8041,3.7719,3.4861,3.1667,0.0,2.823,2.6793,2.3594,0.0,0.0,0.0,0.0,2.8807,3.1038,3.3186,3.4776,3.5515,3.56,3.5464,3.5165,3.4742,3.3914,3.2527,3.136,3.004,2.8535,2.6387,2.4509,0.0,0.0,0.0,0.0,0.0,0.0,0.0,0.0,0.0,0.0,0.0,0.0,0.0,0.0,0.0,0.0,0.0,0.0,0.0,0.0,0.0,0.0,0.0,0.0,0.0,0.0,0.0,0.0,3.1495,3.3694,3.2953,3.3863,3.3694,0.0,0.0,0.0,0.0,0.0,0.0,3.8099,3.9089,4.0544,4.2574,4.4062,4.5213,4.6003,4.7834,4.9089,4.9847,5.0388,5.1065,5.1809,5.1809,5.1809,5.1809,5.1809,5.1369,5.0338,4.6244,4.3358,4.1313,3.9276,3.8007,3.7442,3.8599,3.8802,3.8785,4.1001,4.1542,4.1085,3.9969,0.0,3.7178,3.4764,0.0,0.0,0.0,0.0,3.5318,3.7381,3.8328,3.9208,4.1052,4.1052,4.0646,4.0663,3.9073,3.6592,0.0,3.2019,3.0581,2.686,0.0,0.0,0.0,0.0,3.0516,3.2361,3.3863,3.4996,3.5532,3.56,3.56,3.56,3.5115,3.4472,3.3728,3.2476,3.119,2.9907,2.8366,2.6607,2.4577,0.0,0.0,0.0,0.0,0.0,0.0,0.0,0.0,0.0,0.0,0.0,0.0,0.0,0.0,0.0,0.0,0.0,0.0,0.0,0.0,0.0,0.0,0.0,0.0,0.0,0.0,0.0,0.0,0.0,3.4472,3.6332,0.0,0.0,0.0,0.0,3.6474,3.7872,3.9681,4.1897,4.3464,4.497,4.6464,4.7953,4.9069,4.9813,5.0642,5.142,5.2131,5.2164,5.2604,5.3382,5.3382,5.3382,5.3382,5.3382,5.2942,5.1944,4.8903,4.6786,4.5263,4.369,4.2625,4.1965,4.2049,4.2506,4.3088,4.3223,4.3775,4.4378,4.4293,4.2303,3.9775,3.892,3.7669,0.0,0.0,3.8159,3.9056,4.0595,4.1018,4.1238,4.2049,4.2202,4.2185,4.2185,4.101,3.9046,0.0,3.4247,3.278,3.114,0.0,2.9871,2.9818,3.114,3.2429,3.3237,3.4619,3.5549,3.56,3.56,3.56,3.56,3.5566,3.5228,3.4489,3.3728,3.2933,3.2175,3.0717,2.9176,2.7621,2.4763,0.0,0.0,0.0,0.0,0.0,0.0,0.0,0.0,0.0,0.0,0.0,0.0,0.0,0.0,0.0,0.0,0.0,0.0,0.0,0.0,0.0,0.0,0.0,0.0,0.0,0.0,0.0,0.0,3.8142,4.0062,0.0,3.8335,3.8768,3.9529,4.0273,4.2185,4.4079,4.5821,4.7327,4.8595,4.961,5.0608,5.1251,5.1505,5.23,5.2824,5.3078,5.3078,5.328,5.3634,5.3634,5.3701,5.38,5.38,5.3309,5.2379,5.0835,4.9263,4.7682,4.6177,4.5432,4.5196,4.5196,4.5348,4.5585,4.5699,4.5897,4.6078,4.5699,4.4194,4.2508,4.2236,4.1452,4.0703,4.0824,4.1053,4.1469,4.2398,4.2615,4.2828,4.3572,4.3386,4.3014,4.3014,4.1847,4.0493,3.9428,3.7246,3.5098,3.3575,3.3508,3.3318,3.2374,3.3914,3.5289,3.5537,3.6468,3.707,3.707,3.6654,3.6366,3.6366,3.591,3.5076,3.388,3.3558,3.2865,3.165,3.0194,2.889,2.7824,2.5829,2.3477,0.0,0.0,0.0,0.0,0.0,0.0,0.0,0.0,0.0,0.0,0.0,0.0,0.0,0.0,0.0,0.0,0.0,0.0,0.0,0.0,0.0,0.0,0.0,0.0,0.0,0.0,4.0916,4.1178,4.3409,4.4164,4.2168,4.2878,4.3775,4.4502,4.6194,4.7716,4.8937,5.0248,5.1265,5.1961,5.2501,5.2874,5.3078,5.3415,5.3584,5.3584,5.3618,5.3718,5.3816,5.375,5.3783,5.3882,5.3882,5.3391,5.2561,5.186,5.0791,4.9426,4.8352,4.7932,4.8009,4.7949,4.7902,4.7898,4.7734,4.7509,4.725,4.6827,4.588,4.4892,4.4892,4.4552,4.4116,4.4,4.3956,4.3997,4.4196,4.4236,4.4332,4.4642,4.4347,4.3929,4.3891,4.2925,4.195,4.1627,3.9377,3.7235,3.618,3.6231,3.6039,3.5081,3.6197,3.7161,3.7161,3.7601,3.7905,3.7905,3.7449,3.7083,3.6829,3.6062,3.5076,3.3846,3.3305,3.2476,3.1241,3.0006,2.8873,2.7824,2.6116,2.4019,2.1563,0.0,0.0,0.0,0.0,0.0,0.0,0.0,0.0,0.0,0.0,0.0,0.0,0.0,0.0,0.0,0.0,0.0,0.0,0.0,0.0,0.0,0.0,0.0,3.6897,4.0121,4.2726,4.3511,4.6198,4.7432,4.6024,4.7175,4.8308,4.9018,4.9746,5.0473,5.1217,5.2109,5.2905,5.3484,5.3634,5.3974,5.4584,5.4007,5.37,5.37,5.3915,5.398,5.398,5.3799,5.3717,5.37,5.37,5.3292,5.2561,5.1972,5.1315,5.0554,5.0224,5.0193,5.0351,5.0161,5.0082,4.998,4.9269,4.8575,4.7953,4.7953,4.7475,4.6849,4.6849,4.6849,4.6815,4.6815,4.6815,4.6675,4.6078,4.5932,4.5756,4.5173,4.4995,4.4968,4.4831,4.4198,4.3423,4.2465,4.0544,3.9056,3.9039,3.8447,3.7973,3.7973,3.7973,0.0,3.7973,3.7973,3.7973,3.7973,3.7956,3.7652,3.6931,3.6113,3.5318,3.4539,3.3123,3.1972,3.1224,3.048,2.9345,2.7841,2.5693,2.3866,2.2398,0.0,0.0,0.0,0.0,0.0,0.0,0.0,0.0,0.0,0.0,0.0,0.0,0.0,0.0,0.0,0.0,0.0,0.0,0.0,0.0,0.0,3.6468,3.8886,4.1255,4.3876,4.6227,4.8037,4.9475,5.012,4.9746,5.0035,5.0388,5.0591,5.1285,5.1775,5.1995,5.279,5.3364,5.3651,5.3684,5.3852,5.4156,5.3984,5.3915,5.3915,5.398,5.4045,5.4126,5.411,5.4126,5.4271,5.4271,5.3778,5.2946,5.2772,5.1963,5.0733,4.997,4.9705,4.9735,4.9705,4.9718,4.9774,4.9569,4.947,4.9421,4.9421,4.8889,4.8255,4.8255,4.7877,4.742,4.7324,4.7295,4.7216,4.6793,4.6374,4.597,4.5586,4.5184,4.4831,4.4682,4.4033,4.3254,4.2439,4.1373,4.0426,3.9893,3.9639,3.9503,3.9503,3.9503,0.0,3.9503,3.9503,3.9503,3.9503,3.9005,3.8616,3.8396,3.7195,3.5893,3.4573,3.3123,3.1972,3.1224,2.9973,2.8822,2.7824,2.7198,2.6167,0.0,0.0,0.0,0.0,0.0,0.0,0.0,0.0,0.0,0.0,0.0,0.0,0.0,0.0,0.0,0.0,0.0,0.0,0.0,0.0,0.0,0.0,4.0375,4.3183,4.5838,4.7073,4.8545,5.076,5.1708,5.2164,5.2164,5.2164,5.2164,5.2164,5.257,5.2807,5.2807,5.3364,5.3837,5.4159,5.4003,5.4101,5.4459,5.4199,5.4078,5.4078,5.4175,5.4239,5.4335,5.4239,5.4254,0.0,5.4367,5.3906,5.3121,5.3201,5.2513,0.0,0.0,0.0,0.0,0.0,4.9804,4.9619,4.9619,4.9696,4.9772,4.9772,4.9463,4.9085,4.9085,4.8793,4.8421,4.8351,4.8351,4.8208,4.771,4.7329,4.6863,4.6068,4.5603,4.5222,4.4777,4.4326,4.3756,4.3037,4.2264,0.0,4.0841,4.0375,4.0096,4.0096,4.0096,4.0096,4.0096,4.0096,4.0096,4.0096,3.9723,3.9351,3.9022,3.7658,0.0,0.0,0.0,3.2273,3.1241,2.9788,0.0,0.0,0.0,0.0,0.0,0.0,0.0,0.0,2.5169,2.5067,0.0,0.0,0.0,0.0,0.0,0.0,0.0,0.0,0.0,0.0,0.0,0.0,0.0,0.0,0.0,0.0,4.4587,4.7716,5.0016,4.9779,5.0135,5.2198,5.3078,5.3534,5.3619,5.3619,5.3619,5.3619,5.3619,5.3585,5.3534,0.0,0.0,0.0,0.0,5.4436,5.4955,5.4436,5.419,5.419,5.4399,5.4512,5.4512,5.4303,5.4222,5.4222,5.4222,5.3845,5.329,5.3449,5.3063,5.2308,5.183,5.1302,5.0807,5.0604,5.0129,4.9547,4.9547,0.0,0.0,4.9547,4.9547,4.9547,4.9547,4.9547,4.9547,4.9547,4.9547,4.9393,4.8714,4.8475,4.8048,4.6555,4.6163,4.5862,4.5029,4.4831,4.4582,4.3851,4.3153,4.2448,4.1809,4.084,4.0163,4.0163,4.0163,4.0163,4.0163,4.0121,4.0121,4.0146,0.0,0.0,3.9199,3.7862,3.6705,3.5904,3.4472,3.3004,3.1512,3.0279,2.989,3.0444,3.0565,3.092,3.1562,3.1664,3.1732,3.1749,2.8756,2.8416,0.0,0.0,0.0,0.0,0.0,0.0,0.0,0.0,0.0,0.0,0.0,0.0,0.0,0.0,0.0,4.3447,4.6058,4.868,5.1471,5.1758,5.2063,5.3145,5.3416,5.3737,5.4329,5.438,5.438,5.438,5.438,5.4178,5.3685,5.3717,5.3867,5.417,5.4081,5.4081,5.4202,5.4211,5.419,5.419,0.0,0.0,5.4512,5.448,5.4448,5.4448,5.4448,5.4362,5.4224,5.4256,5.3856,5.3046,5.1714,5.1146,5.0969,5.0336,5.0044,4.9906,4.9906,4.9906,4.9906,4.9906,4.9906,4.9906,4.9906,4.9906,0.0,4.9906,4.9906,4.9813,4.9406,4.891,4.8271,4.7089,4.6436,4.589,4.5121,4.4951,4.4746,4.3995,4.3739,4.3354,4.2491,4.1273,4.0436,4.0436,4.0436,4.0436,4.0436,4.0337,4.0288,4.0412,4.0221,4.0095,4.0051,3.9146,3.8244,3.7516,3.6118,3.4631,3.3034,3.3392,3.3341,3.278,3.3355,3.3711,3.3846,3.4472,3.5081,3.5644,3.2615,3.1447,0.0,0.0,0.0,0.0,0.0,0.0,0.0,0.0,0.0,0.0,0.0,3.6332,3.8548,0.0,4.3758,4.638,4.8663,5.0625,5.2097,5.2655,5.3061,5.345,5.3501,5.3653,5.4008,5.4042,5.4042,5.4042,5.4042,5.3907,5.3635,5.3651,5.375,5.3849,5.3948,5.398,5.398,5.4126,5.419,5.419,5.4399,5.4512,5.4512,5.4512,5.4512,5.4512,5.4512,5.4512,5.4512,5.4512,5.4287,5.3839,5.2701,5.2011,5.1602,5.1252,5.0873,5.0562,5.0562,5.0321,5.0011,5.0011,5.0011,5.0011,5.0011,5.0011,5.0011,5.0011,5.0011,4.9935,4.9666,4.9375,4.8912,4.7926,4.7158,4.6464,4.5723,4.5261,4.4903,4.4607,4.4257,4.388,4.3468,4.2475,4.1534,4.1025,4.0683,4.051,4.051,4.0436,4.0436,4.0493,4.037,4.0337,4.0387,3.9657,3.8853,3.8034,3.6984,3.6033,3.5242,3.5217,3.5256,3.5186,3.5542,3.5892,3.6197,3.6586,3.6958,3.733,3.6621,3.5859,0.0,0.0,0.0,0.0,0.0,0.0,0.0,3.3169,3.4493,3.6874,3.8464,4.0189,4.2709,4.4908,4.7022,4.9103,5.1048,5.235,5.252,5.3095,5.3501,5.3501,5.3501,5.3568,5.3704,5.3721,5.3721,5.3721,5.3721,5.3653,5.3534,5.3634,5.37,5.37,5.3882,5.398,5.3948,5.411,5.419,5.419,5.4399,5.4512,5.4512,5.4512,5.4512,5.4512,5.4512,5.4512,5.4512,5.4512,5.4512,5.4443,5.3856,5.3235,5.2632,5.2291,5.1808,5.1291,5.1291,5.0838,5.0218,5.0218,5.0131,5.0011,5.0011,5.0011,5.0011,5.0011,5.0011,4.9964,4.9737,4.9708,4.949,4.8653,4.7957,4.7256,4.6377,4.5737,4.5302,4.5255,4.4766,4.438,4.4466,4.3726,4.2826,4.1869,4.1305,4.0935,4.0822,4.0764,4.0712,4.06,4.0534,4.051,4.051,3.9963,3.9317,3.8608,3.8012,3.7637,3.7461,3.6877,3.6842,3.7444,3.7461,3.7817,3.8597,3.8597,3.8572,3.8582,3.9866,3.9628,3.3643,3.2408,3.2175,3.2662,3.3406,3.5216,0.0,4.0062,4.0062,4.3007,4.4248,4.5128,4.6109,4.7581,4.9154,5.0678,5.1725,5.2553,5.3264,5.345,5.3501,5.3501,5.3501,5.3754,5.4397,5.4465,5.4465,5.4465,5.4465,5.4228,5.3718,5.3667,5.37,5.37,5.3882,5.3915,5.375,5.4028,5.419,5.419,5.4399,5.4512,5.4512,5.4512,5.4512,5.4512,5.4512,5.4512,5.4512,5.4512,5.4512,5.4494,5.4425,5.4339,5.4098,5.2718,5.2136,5.2067,5.2067,5.1584,5.0994,5.0994,5.0545,5.0011,5.0011,5.0011,5.0011,5.0011,5.0011,4.9964,4.9737,4.9708,4.9519,4.8752,4.8512,4.8077,4.6825,4.6473,4.6215,4.5508,4.5302,4.5206,4.511,4.4465,4.3752,4.3097,4.2773,4.2438,4.1891,4.1724,4.1442,4.0892,4.0655,4.051,4.051,4.0424,4.0339,4.0246,4.0275,3.9932,3.9153,3.9151,3.9174,3.9136,3.9136,3.9747,4.1019,4.1019,4.096,4.0849,4.1018,4.029,3.6366,3.5791,3.574,3.6468,3.7855,3.9597,4.1796,4.2533,4.321,4.4874,4.6177,4.7225,4.7936,4.9289,5.0625,0.0,5.2503,5.3129,5.345,5.3501,5.3331,5.2858,5.3213,5.3619,5.3923,5.3957,5.3957,5.3957,5.3957,5.3856,5.3601,5.3651,5.37,5.37,5.3882,5.3948,5.3882,5.4093,5.419,5.419,5.4399,5.4512,5.4512,5.4512,5.4512,5.4512,5.4512,5.4512,5.4512,5.4512,5.4512,5.4512,5.4512,5.4512,5.4425,5.3787,5.3287,5.2908,5.2908,5.2408,5.1722,5.1722,5.1252,5.0649,5.0649,5.0355,5.0011,5.0011,5.0011,4.9982,4.9906,4.986,4.982,4.9481,4.9051,4.8563,4.8,4.71,4.6333,4.5979,4.5566,4.5247,4.5113,4.4829,4.4548,4.4292,4.3494,4.2816,4.2557,4.259,4.2511,4.2275,4.2142,4.1879,4.1415,4.1363,4.1167,4.0641,4.0673,4.0535,4.0162,4.0209,4.0216,4.0162,4.0162,4.038,4.0872,4.1298,4.1478,4.1461,4.2363,4.2141,3.7374,3.7889,3.87,3.9428,4.1441,4.3284,4.3487,4.4553,4.572,4.6464,4.7479,4.8443,4.9171,5.0185,5.12,5.2147,5.279,5.3247,5.3467,5.3315,5.2959,5.2367,5.2638,5.2959,5.3162,5.3179,5.3179,5.3179,5.3179,5.3213,5.3246,5.3549,5.375,5.3783,5.3948,5.4045,5.4045,5.4207,5.4271,5.4271,5.4448,5.4512,5.4512,5.4512,5.4512,5.4512,5.4512,5.4512,5.4512,5.4512,5.4512,5.4512,5.4512,5.4512,5.4512,5.4512,5.4167,5.3701,5.3701,5.3201,5.2515,5.2515,5.2028,5.1395,5.1395,5.0907,5.0304,5.0304,5.0166,5.0011,5.0011,5.0011,5.0011,5.0011,4.9562,4.9068,4.8787,4.7801,4.6859,4.6597,4.5946,4.5422,4.533,4.5087,4.4923,4.4923,4.4118,4.3409,4.3254,4.3192,4.3189,4.3189,4.3189,4.2965,4.2378,4.2344,4.2053,4.1439,4.1405,4.1405,4.1405,4.1339,4.1339,4.1405,4.1339,4.1368,4.1483,4.2005,4.2211,4.2219,4.332,4.3498,3.6073,3.7797,4.0197,4.095,4.3386,4.5788,4.6498,4.7259,4.802,4.8748,4.8934,4.9187,4.9915,5.0084,5.0608,5.2063,5.2317,5.2604,5.3399,5.2841,5.2334,5.23,5.1708,5.1555,0.0,5.2334,5.2334,5.2334,5.2334,5.2416,5.2614,5.3326,5.3783,5.398,5.4143,5.419,5.419,5.4399,5.448,5.448,5.4512,5.4512,5.4512,5.4512,5.4512,5.4512,5.4512,5.4512,5.4512,5.4512,5.4512,5.4512,5.4512,5.4512,5.4512,5.4512,5.4494,5.4477,5.4477,5.3994,5.3356,5.3356,5.2839,5.2153,5.2153,5.1636,5.108,5.108,5.0562,5.0011,5.0011,5.0011,5.0011,5.0011,4.9993,4.9694,4.8793,4.8575,4.8243,4.7347,4.6584,4.606,4.606,4.538,4.4803,4.4803,4.4862,4.4734,4.4147,4.3579,4.3189,4.3189,4.3189,4.3189,4.3172,4.3155,4.3155,4.3138,4.312,4.312,4.312,4.2935,4.2935,4.312,4.2935,4.322,4.3975,4.3878,4.3763,4.3647,4.3698,4.3751,3.8328,4.0037,4.21,4.435,4.6058,4.7361,4.8088,4.846,4.8578,4.8342,4.8291,4.8359,4.8595,4.9035,4.9847,5.1336,5.1995,5.2587,5.3399,5.3264,5.2723,5.1708,5.1792,0.0,0.0,0.0,0.0,5.2266,5.23,5.2333,5.2382,5.3226,5.375,5.3816,5.398,5.411,5.419,5.4271,5.4367,5.4512,5.4512,5.4512,5.4512,5.4512,5.4512,5.4512,5.4512,5.4512,5.4512,5.4512,5.4512,5.4512,5.4512,5.4512,5.4512,5.4512,5.4512,5.4512,5.4512,5.4339,5.4132,5.4132,5.3632,5.3011,5.3011,5.2459,5.1752,5.1252,5.0925,5.0631,5.0131,5.0011,5.0011,5.0011,5.0011,4.9895,4.9608,4.897,4.8396,4.818,4.7427,4.6686,4.6174,4.5855,4.5476,4.4888,4.4896,4.5001,4.4973,4.4794,4.4665,4.4665,4.4665,4.4458,4.3966,4.3931,4.3724,4.3224,4.3189,4.3189,4.3189,4.3139,4.3122,4.3189,4.3004,4.3031,4.3289,4.3707,4.3885,4.3849,4.4235,4.4456,4.0231,4.2151,4.4113,4.6583,4.775,4.8426,4.89,4.8798,4.8409,4.7665,4.709,4.6735,4.6735,4.6667,4.7445,5.0016,5.0591,5.1386,5.3247,5.3044,5.2418,5.1691,5.1555,5.1352,0.0,0.0,0.0,5.1471,5.1995,5.2231,5.2025,5.309,5.375,5.3816,5.3915,5.4078,5.419,5.419,5.4303,5.4512,5.4448,5.4448,5.4512,5.4512,5.4512,5.4512,5.4512,5.4512,5.4512,5.4512,5.4512,5.4512,5.4512,5.4512,5.4512,5.4512,5.4512,5.4512,5.4512,5.4512,5.4512,5.4512,5.4184,5.3787,5.3787,5.3253,5.2546,5.2063,5.1718,5.139,5.0925,5.0597,5.039,5.039,5.02,4.9982,4.9906,4.9365,4.8888,4.8917,4.8213,4.7489,4.6994,4.6697,4.6242,4.538,4.5371,4.5432,4.5335,4.5371,4.5371,4.5327,4.5371,4.519,4.4664,4.4656,4.4475,4.4009,4.3975,4.3975,4.3975,4.3949,4.3949,4.3975,4.3812,4.3718,4.3718,4.4101,4.4278,4.4241,4.461,4.4803,4.1671,4.4085,4.6177,4.7584,4.8494,4.8984,4.8951,4.8392,4.7631,4.6786,4.5432,4.4395,4.4293,4.3166,4.3707,4.802,4.8342,4.9289,5.2892,5.2198,5.1539,0.0,0.0,0.0,0.0,0.0,0.0,5.0084,0.0,5.201,5.1524,5.2901,5.3783,5.3948,5.398,5.4045,5.4158,5.419,5.4303,5.448,5.4303,5.4303,5.448,5.4512,5.4512,5.4512,5.4512,5.4512,5.4512,5.4512,5.4512,5.4512,5.4512,5.4512,5.4512,5.4512,5.4512,5.4512,5.4512,5.4512,5.4512,5.4512,5.4512,5.4512,5.4512,5.4011,5.346,5.3408,5.2856,5.2239,5.2205,5.1671,5.1166,5.1114,5.058,4.997,4.9755,4.9708,4.9679,4.9547,4.8919,4.8424,4.8424,4.782,4.705,4.6287,4.6278,4.6096,4.5306,4.53,4.5371,4.5203,4.53,4.5344,4.522,4.53,4.5397,4.5397,4.5397,4.5397,4.5397,4.5274,4.5274,4.5397,4.5274,4.5203,4.5203,4.5059,4.494,4.4871,4.4844,4.4861,4.3344,4.5643,4.7581,4.8494,4.8866,4.8866,4.8325,4.7614,4.6549,4.4671,4.3098,4.1559,3.9901,4.1068,4.2844,4.457,4.7479,0.0,5.1589,5.2452,0.0,5.0828,5.0811,5.0642,4.9915,4.9999,0.0,0.0,5.0963,5.142,5.1282,5.2721,5.3584,5.3635,5.3635,5.3701,5.3832,5.398,5.4078,5.411,5.4175,5.4239,5.4271,5.4431,5.4512,5.4512,5.4512,5.4512,5.4512,5.4512,5.4512,5.4512,5.4512,5.4512,5.4512,5.4512,5.4512,5.4512,5.4512,5.4512,5.4512,5.4512,5.4512,5.4512,5.4512,5.4374,5.4098,5.3546,5.3253,5.2977,5.2343,5.205,5.1774,5.1235,5.0976,5.0636,5.0056,4.9813,4.9737,4.9848,4.9258,4.8667,4.8581,4.7935,4.7341,4.7033,4.7101,4.6704,4.5375,4.53,4.5397,4.5371,4.53,4.5274,4.5327,4.5274,4.53,4.5397,4.5397,4.5397,4.5397,4.5371,4.5371,4.5397,4.5274,4.5203,4.5203,4.4968,4.512,4.5626,4.5529,4.576,4.4903,4.6712,4.809,4.8838,4.8514,4.7754,4.671,4.5602,4.3995,4.1102,3.9309,3.7787,3.6214,3.7821,4.0138,4.254,4.6143,4.9255,5.0948,5.1961,5.2029,5.0727,5.0659,0.0,5.0016,5.005,5.0219,0.0,5.1268,5.1691,5.1691,5.2841,5.3501,5.3501,5.3501,5.3551,5.37,5.3816,5.3915,5.398,5.398,5.4045,5.411,5.4239,5.4303,5.4385,0.0,5.4303,5.4367,5.4303,5.4271,5.4271,5.4271,5.4271,5.4271,5.4271,5.4271,5.4289,5.4335,5.4367,5.4367,5.448,5.4512,5.4512,5.4512,5.4512,5.4425,5.4011,5.3891,5.3787,5.3339,5.2977,5.2632,5.2218,5.1597,5.0994,5.058,5.013,4.986,4.9982,4.9648,4.9309,4.924,4.885,4.8426,4.794,4.7974,4.7601,4.6388,4.604,4.5776,4.5379,4.53,4.5274,4.5238,4.522,4.522,4.522,4.5291,4.53,4.53,4.5371,4.5397,4.5397,4.5274,4.5321,4.5583,4.538,4.5631,4.6276,4.6206,4.6397,4.6077,4.7259,4.7918,4.8647,4.766,4.6144,4.4651,4.2972,4.0737,3.7212,3.5204,3.3829,3.3102,3.4315,3.685,4.1153,4.4553,4.7648,5.0524,5.1067,5.1117,5.0947,5.0439,5.0304,5.0879,5.0422,5.0405,5.115,5.1894,5.23,5.23,5.3061,5.3501,5.3501,5.3501,5.3551,5.3684,5.3684,5.375,5.3932,5.3783,5.3783,5.3948,5.398,5.4078,5.4175,0.0,0.0,5.4158,5.4045,5.398,5.398,5.398,5.398,5.398,5.398,5.398,5.4013,5.4126,5.4207,5.4222,5.4431,5.4512,5.4512,5.4512,5.4512,5.4512,5.4512,5.4512,5.4512,5.4512,5.4029,5.3529,5.3425,5.239,5.139,5.1287,5.0683,5.0149,5.0149,5.008,5.0011,5.0011,5.0011,4.9711,4.8925,4.8862,4.8661,4.7762,4.7134,4.6421,4.5625,4.561,4.5583,4.534,4.5404,4.5432,4.534,4.5404,4.5486,4.5512,4.5627,4.5681,4.5637,4.5557,4.5757,4.6248,4.6107,4.6355,4.6967,4.6938,4.6989,4.6259,4.6837,4.7163,4.7853,4.6581,4.4705,4.3072,4.0691,3.8095,3.5431,3.322,3.1546,3.0818,3.2882,3.5757,3.9039,4.3132,4.6718,4.9052,5.0439,5.076,0.0,4.9813,4.9898,4.9441,4.9813,0.0,0.0,0.0,5.23,5.23,5.3061,5.3501,5.3501,5.3501,5.3501,5.3517,5.3517,5.3551,5.3601,5.3651,5.3717,5.375,5.3915,5.4013,5.4045,5.4013,0.0,5.4045,5.4013,5.398,5.398,5.398,5.398,5.398,5.398,5.398,5.4013,5.4013,5.411,5.4222,5.4431,5.4512,5.4512,5.4512,5.4512,5.4512,5.4512,5.4512,5.4512,5.4512,5.4425,5.4167,5.3546,5.3201,5.2822,5.2136,5.1442,5.0925,5.0925,5.0424,5.0011,5.0011,5.0011,4.993,4.9792,4.9775,4.9499,4.8678,4.7948,4.7448,4.7265,4.7182,4.7116,4.7071,4.6925,4.6925,4.7071,4.6925,4.6925,4.7099,4.7127,4.7071,4.6879,4.7026,4.7066,4.6999,4.6856,4.7177,4.7878,4.7746,4.8054,4.5801,4.6187,4.6404,4.7093,4.5456,4.3041,4.073,3.8196,3.5322,3.1707,3.0154,2.9156,2.8196,3.0937,3.4087,3.6299,4.0426,4.4282,4.6921,4.8223,4.8934,4.9001,4.9306,4.939,4.9035,4.9661,5.0405,0.0,0.0,5.2486,5.2909,5.3298,5.3501,5.3501,5.3501,5.3501,5.3501,5.3501,5.3501,5.3501,5.3551,5.3618,5.3601,5.3718,5.3767,5.3849,5.3767,0.0,5.3849,5.3767,5.3751,5.3751,5.3751,5.3751,5.3751,5.3751,5.3751,5.3751,5.3816,5.3882,5.3963,5.4175,5.4271,5.4335,5.4335,5.4321,5.4239,5.4335,5.4335,5.4367,5.448,5.4512,5.4425,5.4063,5.3684,5.3184,5.236,5.1912,5.1653,5.1653,5.1097,5.058,5.058,5.0252,5.0011,5.0011,5.0011,4.9873,4.9465,4.9131,4.8596,4.7803,4.7634,4.7595,4.7511,4.7392,4.7335,4.725,4.7204,4.7216,4.7221,4.7307,4.729,4.7187,4.725,4.738,4.7668,4.7539,4.784,4.8568,4.8508,4.8663,4.5148,4.5442,4.5635,4.6374,4.4341,4.1444,3.871,3.5964,3.2826,2.8577,2.763,2.7314,2.649,2.9204,3.2276,3.4387,3.7973,4.1711,4.5213,4.6329,4.7344,4.8832,4.9001,0.0,4.9001,4.9813,0.0,0.0,0.0,0.0,5.3467,5.3501,5.3501,5.3501,5.3501,5.3501,5.3501,5.3501,5.3501,5.3501,5.3501,5.3501,5.3501,5.3501,5.3551,5.3651,5.3568,0.0,0.0,5.3551,5.3501,5.3501,5.3501,5.3501,5.3501,5.3501,5.3501,5.3534,5.3634,5.3684,5.375,5.3882,5.4045,5.4175,5.4175,5.4078,5.4013,5.4143,5.4175,5.4207,5.4367,5.4448,5.4448,5.448,5.4063,5.346,5.2808,5.255,5.2477,5.2477,5.1856,5.1356,5.1356,5.0735,5.0252,5.0252,5.0114,5.0011,5.0011,5.0011,4.9545,4.8338,4.8172,4.8116,4.7974,4.7974,4.786,4.7595,4.7624,4.7595,4.7537,4.7595,4.7607,4.7595,4.7508,4.7738,4.829,4.8186,4.8443,4.9001,4.9001,4.9001,4.4523,4.4685,4.4862,4.5557,4.3179,4.0081,3.7822,3.4499,3.1082,2.8278,2.7216,2.6859,2.7055,2.8315,3.0649,3.4822,3.7026,3.9969,4.4993,4.6329,4.7344,4.8832,0.0,0.0,4.9001,5.0287,0.0,0.0,0.0,0.0,5.3501,5.3501,5.3501,5.3501,5.3501,5.3501,5.3501,5.3501,5.3501,5.3501,5.3501,5.3501,5.3501,5.3501,5.3501,5.3534,5.3501,0.0,0.0,5.3501,5.3501,5.3501,5.3501,5.3501,5.3501,5.3501,5.3501,5.3501,5.3501,5.3601,5.37,5.37,5.3849,5.4013,5.4013,5.4013,5.4013,5.4013,5.4013,5.4045,5.4207,5.4239,5.4271,5.448,5.446,5.4391,5.4305,5.377,5.3287,5.3287,5.2666,5.2084,5.2084,5.1511,5.1011,5.1011,5.0442,5.0011,5.0011,5.0011,4.9959,4.9804,4.9804,4.9729,4.9502,4.9502,4.9473,4.9443,4.9176,4.9086,4.9283,4.9116,4.8965,4.8829,4.8934,4.8968,4.89,4.89,4.8934,4.9001,4.9001,4.9001,4.3422,4.4188,4.4579,4.444,4.2125,3.9234,3.6739,3.3294,2.9927,2.7432,2.6425,2.6025,2.6157,2.7129,2.8883,3.1827,3.3186,3.5385,3.9715,4.1356,4.3149,4.6007,4.7141,0.0,0.0,0.0,0.0,0.0,0.0,0.0,5.3501,5.3501,5.3501,5.3501,5.3501,5.3501,5.3501,5.3501,5.3501,5.3501,5.3501,5.3501,5.3501,5.3501,5.3501,5.3501,5.3501,0.0,0.0,5.3501,5.3501,5.3501,5.3501,5.3501,5.3501,5.3501,5.3501,5.3501,5.3501,5.3517,5.3584,5.3584,5.3651,5.3701,5.3783,5.3767,5.3718,5.3783,5.3816,5.3849,5.4045,5.4078,5.411,5.4271,5.4271,5.4207,5.4207,5.3952,5.3778,5.3778,5.3207,5.2736,5.2736,5.2209,5.174,5.174,5.1149,5.0666,5.0666,5.0287,5.0011,5.0011,5.0011,4.9964,4.9889,4.9889,4.9801,4.959,4.9441,4.9337,4.9216,4.9124,4.9063,4.9001,4.9063,4.9063,4.9001,4.9001,4.9001,4.9001,4.9001,4.9001,4.1897,4.314,4.3826,4.3402,4.1247,3.8508,3.5829,3.2504,2.9241,2.6608,2.5776,2.5465,2.5351,2.6169,2.7502,2.9404,3.0544,3.2604,3.6683,3.8256,4.029,4.3826,0.0,4.638,0.0,0.0,0.0,0.0,0.0,0.0,0.0,5.3501,5.3501,5.3501,5.3501,5.3501,5.3501,5.3501,5.3501,5.3501,5.3501,5.3501,5.3501,5.3501,5.3501,5.3501,0.0,0.0,0.0,5.3501,5.3501,5.3501,5.3501,5.3501,5.3501,5.3501,5.3501,5.3501,5.3501,5.3501,5.3501,5.3501,5.3501,5.3534,5.3601,5.3584,5.3534,5.3601,5.3684,5.375,5.3882,5.3948,5.4013,5.411,5.4078,5.398,5.398,5.398,5.398,5.398,5.365,5.3369,5.3433,5.2891,5.2502,5.2532,5.1895,5.1442,5.1442,5.0787,5.0338,5.0338,5.0131,5.0011,5.0011,5.0011,4.9906,4.9654,4.9547,4.9398,4.9155,4.9063,4.9001,4.9001,4.9001,4.9001,4.9001,4.9001,4.912,4.9323,4.9323,4.9441,3.989,4.1321,4.2368,4.2581,4.0555,3.7815,3.5136,3.2178,2.9124,2.5953,2.5412,2.5389,2.4981,2.5559,2.6704,2.8509,3.0152,3.2875,3.7636,3.8706,4.0104,0.0,0.0,4.4035,4.5585,0.0,0.0,0.0,0.0,0.0,0.0,5.3501,5.3501,5.3501,5.3501,5.3501,5.3501,5.3501,5.3501,5.3501,5.3501,5.3501,5.3501,5.3501,5.3501,0.0,0.0,0.0,0.0,5.3501,5.3501,5.3501,5.3501,5.3501,5.3501,5.3501,5.3501,5.3501,5.3501,5.3501,5.3501,5.3501,5.3501,5.3501,5.3501,5.3501,5.3501,5.3501,5.3618,5.37,5.37,5.3849,5.398,5.398,5.398,5.398,5.398,5.398,5.398,5.398,5.398,5.4028,5.4158,5.3587,5.3152,5.336,5.2718,5.217,5.217,5.1563,5.1097,5.1097,5.0442,5.0011,5.0011,5.0011,5.0011,5.0011,4.9683,4.9518,4.9488,4.9185,4.9001,4.9001,4.9001,4.9001,4.9001,4.9001,4.9373,5.0084,5.0084,5.0473,3.6152,3.7699,3.8659,3.7822,3.6306,3.4429,3.2213,2.9898,2.7667,2.5709,2.4973,2.4719,2.4863,2.5332,2.6496,2.9016,3.0427,3.2105,0.0,0.0,0.0,4.1677,4.506,4.7614,0.0,0.0,0.0,0.0,0.0,0.0,0.0,5.3501,5.3501,5.3501,5.3501,5.3501,5.3501,5.3501,5.3501,5.3501,5.3501,5.3501,5.3501,5.3501,0.0,0.0,0.0,0.0,0.0,5.3501,5.3501,5.3501,5.3501,5.3501,5.3501,5.3501,5.3501,5.3501,5.3501,5.3501,5.3501,5.3501,5.3501,5.3501,5.3501,5.3501,5.3501,5.3501,5.3534,5.3568,5.3684,5.3668,5.3685,5.3783,5.3734,5.3651,5.3651,5.3651,5.3651,5.3651,5.3734,5.3849,5.4045,5.3937,5.3911,5.4118,5.3511,5.3028,5.3028,5.2356,5.1843,5.1843,5.1636,5.1114,5.0097,5.0011,4.9935,4.9813,4.9696,4.953,4.929,4.9709,4.9667,4.9018,4.9999,5.027,4.9746,5.027,5.0625,5.0862,5.0862,5.0997,3.3079,3.4912,3.5952,3.5171,3.3802,3.2182,3.0417,2.8473,2.6611,2.5204,2.4594,2.4385,2.4619,2.5001,2.589,2.7731,2.9223,3.0911,0.0,0.0,0.0,4.1305,0.0,0.0,0.0,0.0,0.0,0.0,0.0,0.0,0.0,5.3501,5.3501,5.3501,5.3501,5.3501,5.3501,5.3501,5.3501,5.3501,5.3501,5.3501,5.3501,5.3501,0.0,0.0,0.0,0.0,0.0,5.3501,5.3501,5.3501,5.3501,5.3501,5.3501,5.3501,5.3501,5.3501,5.3501,5.3501,5.3501,5.3501,5.3501,5.3501,5.3501,5.3501,5.3501,5.3501,5.3501,5.3534,5.3601,5.3551,5.3534,5.3601,5.3551,5.3501,5.3501,5.3501,5.3501,5.3501,5.3584,5.3701,5.3849,5.3948,5.4078,5.4271,5.394,5.3679,5.3679,5.307,5.2666,5.2666,5.236,5.1808,5.0925,5.0838,5.0762,5.0656,5.0596,5.0476,5.0264,5.0711,5.062,4.9941,5.0839,5.1044,5.0524,5.1268,5.164,5.164,5.1944,5.208,0.0,3.2568,3.3735,3.3848,3.2444,3.0689,2.9412,2.7657,0.0,2.4579,2.4302,2.4333,2.4441,2.4697,2.5058,2.5583,2.7343,0.0,0.0,3.4962,0.0,0.0,4.4604,0.0,0.0,0.0,0.0,0.0,0.0,0.0,0.0,5.3348,5.3348,5.3348,5.3399,5.345,5.3501,5.3501,5.3501,5.3501,5.3501,5.3501,5.3501,5.3501,0.0,0.0,0.0,0.0,0.0,5.3501,5.3501,5.3501,5.3501,5.3501,5.3501,5.3501,5.3501,5.3501,5.3501,5.3501,5.3501,5.3501,5.3501,5.3501,5.3501,5.3501,5.3501,5.3501,5.3501,5.3501,5.3501,5.3501,5.3501,5.3501,5.3501,5.3501,5.3501,5.3501,5.3501,5.3501,5.3501,5.3551,5.3684,5.37,5.3783,5.398,5.411,5.419,5.419,5.3765,5.3477,5.3477,5.2822,5.2343,5.2343,5.2239,5.2188,5.2188,5.2066,5.2022,5.1991,5.1919,5.1779,5.1522,5.1573,5.1496,5.1386,5.2063,5.2384,5.2401,5.3162,5.3501,2.621,0.0,2.8586,2.8113,2.7784,2.7334,0.0,2.5896,2.5333,2.4466,2.4302,2.4641,2.5703,2.5352,2.5843,2.8722,3.0259,3.1892,3.4331,3.8652,0.0,4.6194,4.7564,0.0,0.0,0.0,0.0,0.0,0.0,0.0,0.0,5.1726,5.1726,5.1726,5.23,5.2892,5.3501,5.3501,5.3501,5.3501,5.3501,5.3501,5.3501,5.3501,0.0,0.0,0.0,0.0,5.3501,5.3501,5.3501,5.3501,5.3501,5.3501,5.3501,5.3501,5.3501,5.3501,5.3501,5.3501,5.3501,5.3501,5.3501,5.3501,5.3501,5.3501,5.3501,5.3501,5.3501,5.3501,5.3501,5.3501,5.3501,5.3501,5.3501,5.3501,5.3501,5.3501,5.3501,5.3501,5.3501,5.3551,5.3684,5.37,5.3783,5.398,5.411,5.419,5.419,5.4213,5.4253,5.4253,5.408,5.3977,5.3977,5.2891,5.2188,5.2188,5.2157,5.2114,5.2004,5.2492,5.2481,5.1728,5.2115,5.2548,5.2959,5.3129,5.323,5.323,5.3416,5.3501,2.4243,2.5886,2.7463,2.7106,2.6941,2.6749,2.6349,2.5533,2.4748,2.4379,2.4302,2.4641,2.5703,2.5728,2.6343,2.8636,3.0688,0.0,0.0,0.0,4.4942,4.7597,4.8562,0.0,0.0,0.0,0.0,0.0,0.0,0.0,0.0,5.1185,5.1185,5.1185,5.1606,5.2181,5.2942,5.3315,5.3501,5.3501,5.3501,5.3501,5.3501,5.3501,5.3501,0.0,0.0,0.0,5.3501,5.3501,5.3501,5.3501,5.3501,5.3501,5.3501,5.3501,5.3501,5.3501,5.3501,5.3501,5.3501,5.3501,5.3501,5.3501,5.3501,5.3501,5.3501,5.3501,5.3501,5.3501,5.3501,5.3501,5.3501,5.3501,5.3501,5.3501,5.3501,5.3501,5.3501,5.3501,5.3501,5.3534,5.3618,5.3601,5.3651,5.3734,5.3882,5.3963,5.3963,5.4143,5.4271,5.4271,5.4335,5.4335,5.4289,5.3659,5.327,5.327,5.327,5.3208,5.3146,5.343,5.3306,5.2671,5.2902,5.3178,5.3501,5.3501,5.3501,5.3501,5.3501,5.3501,2.3849,2.5984,2.8079,2.7666,2.7386,2.7157,2.698,2.5564,2.4302,2.4302,2.4374,2.4712,2.5604,2.6287,2.7057,2.8134,3.0941,0.0,4.0776,4.3429,4.56,4.7804,0.0,0.0,0.0,0.0,0.0,0.0,0.0,0.0,0.0,5.0879,5.0879,5.0879,5.098,5.1336,5.1961,5.2858,5.3382,5.3501,5.3501,5.3501,5.3501,5.3501,5.3501,0.0,0.0,0.0,5.3501,5.3501,5.3501,5.3501,5.3501,5.3501,5.3501,5.3501,5.3501,5.3501,5.3501,5.3501,5.3501,5.3501,5.3501,5.3501,5.3501,5.3501,5.3518,5.3636,5.3602,5.3501,5.3501,5.3501,5.3501,5.3501,5.3501,5.3501,5.3501,5.3501,5.3501,5.3501,5.3501,5.3501,5.3501,5.3501,5.3501,5.3501,5.3601,5.37,5.37,5.3882,5.398,5.398,5.411,5.4143,5.4013,5.4239,5.4416,5.4416,5.448,5.448,5.448,5.4303,5.4028,5.3717,5.3584,5.3534,5.3501,5.3501,5.3501,5.3501,5.3501,5.3501,2.4986,2.6624,2.75,2.5211,2.549,2.6016,2.4998,2.4533,2.4302,2.4302,2.4743,2.5711,2.7596,2.8027,2.9058,3.1997,3.5271,3.8818,0.0,0.0,4.6338,4.8585,0.0,0.0,0.0,0.0,0.0,0.0,0.0,0.0,0.0,4.934,4.934,4.934,4.9932,5.0321,5.0422,5.1792,5.2841,5.3501,5.3501,5.3501,5.3501,5.3501,5.3501,0.0,0.0,5.3501,5.3501,5.3501,5.3501,5.3501,5.3501,5.3501,5.3501,5.3501,5.3501,5.3501,5.3501,5.3501,5.3501,5.3501,5.3501,5.3501,5.3501,5.3501,5.3636,5.4245,5.3974,5.3501,5.3501,5.3501,5.3501,5.3501,5.3501,5.3501,5.3501,5.3501,5.3501,5.3501,5.3501,5.3501,5.3501,5.3501,5.3501,5.3501,5.3601,5.37,5.37,5.3882,5.398,5.398,5.4013,5.4013,5.398,5.4063,5.4078,5.4078,5.4335,5.4399,5.4271,5.4239,5.4028,5.3717,5.3684,5.3601,5.3501,5.3501,5.3501,5.3501,5.3501,5.3501,2.4268,2.5379,2.6083,2.5272,2.6764,2.8192,2.7265,2.6795,2.6518,2.6518,2.6765,2.7503,2.9156,3.0074,3.1917,3.5985,3.8245,4.0721,4.4326,4.5329,4.6529,0.0,0.0,0.0,0.0,0.0,0.0,0.0,0.0,0.0,0.0,0.0,4.9001,4.9001,4.9323,4.9695,5.0084,5.076,5.1505,5.2266,5.2266,5.2469,5.2858,5.2858,5.3095,5.3501,0.0,5.3501,5.3501,5.3501,5.3501,5.3501,5.3501,5.3501,5.3501,5.3501,5.3501,5.3501,5.3501,5.3501,5.3501,5.3501,5.3501,5.3501,5.3501,5.3788,5.416,5.4499,5.4346,5.4194,5.46,5.4702,5.4702,5.4702,5.4702,5.4583,5.4177,5.4093,5.3974,5.3585,5.3822,5.4093,5.4093,5.4431,5.4702,5.4702,5.4753,5.4771,5.4771,5.4517,5.4329,5.4329,5.4022,5.3816,5.3751,5.3899,5.4013,5.411,5.4175,5.4175,5.411,5.398,5.3816,5.3618,5.3568,5.3551,5.3501,5.3501,5.3501,5.3501,5.3501,5.3501,2.3849,2.4447,2.501,2.5804,2.7703,2.9454,2.9602,2.8987,2.8581,2.9212,2.9473,2.9889,3.0909,3.2598,3.5069,3.8811,4.0396,4.2198,4.5273,4.5699,0.0,0.0,0.0,0.0,0.0,0.0,0.0,0.0,0.0,0.0,0.0,0.0,4.9001,4.9001,4.9001,4.9272,4.983,4.983,5.0304,5.1185,5.1185,5.1505,5.2046,5.2232,5.2638,5.323,5.3416,5.3501,5.3501,5.3501,5.3501,5.3501,5.3501,5.3501,5.3501,5.3501,5.3501,5.3501,5.3501,5.3501,5.3501,5.3501,5.3501,5.3534,5.3704,5.4143,5.4668,5.5006,5.5108,5.5209,5.5615,5.5681,5.5681,5.5681,5.5681,5.5564,5.4972,5.4854,5.4685,5.4126,5.4465,5.4854,5.4854,5.5344,5.5681,5.5681,5.5681,5.5681,5.5681,5.5209,5.4854,5.4854,5.4432,5.4059,5.3771,5.3836,5.3948,5.4061,5.398,5.3915,5.3915,5.3766,5.3634,5.3501,5.3501,5.3501,5.3501,5.3501,5.3501,5.3501,5.3501,5.3501,2.5121,2.5175,2.5077,2.5804,2.6214,2.7101,2.973,2.9335,2.9119,3.1597,3.2613,3.3075,3.3167,3.5861,3.8369,3.936,4.1657,4.395,4.5545,0.0,0.0,0.0,0.0,0.0,0.0,0.0,0.0,0.0,0.0,0.0,0.0,0.0,0.0,4.9001,4.9001,4.9035,4.9086,4.9086,4.9796,5.1185,5.1185,5.1219,5.1286,5.1995,5.2334,5.2435,5.3179,5.3501,5.3501,5.3501,5.3501,5.3501,5.3501,5.3501,5.3501,5.3501,5.3501,5.3501,5.3501,5.3501,5.3501,5.3501,5.3501,5.3636,5.4296,5.4549,5.4888,5.6258,5.6647,5.6511,5.5869,5.5681,5.5681,5.5681,5.5681,5.57,5.5614,5.5632,5.5632,5.5564,5.5563,5.5632,5.5632,5.5647,5.5681,5.5681,5.5681,5.5681,5.5681,5.5666,5.5632,5.5632,5.5581,5.5277,5.4566,5.3924,5.3584,5.375,5.375,5.37,5.37,5.3717,5.3634,5.3501,5.3501,5.3501,5.3501,5.3501,5.3501,5.3501,5.3501,5.3501,2.4223,2.495,2.575,2.6503,2.7734,2.9158,3.0663,3.1951,3.3336,3.5183,3.6107,3.6584,3.6584,3.8677,4.0509,4.077,4.3079,4.5219,0.0,0.0,0.0,0.0,0.0,0.0,0.0,0.0,0.0,0.0,0.0,0.0,0.0,0.0,0.0,4.9001,4.9001,4.9001,4.9001,4.9001,4.9289,4.9847,4.9847,5.0067,5.0524,5.0794,5.142,5.2317,5.2621,5.3044,5.3501,5.3501,5.3501,5.3501,5.3501,5.3501,5.3501,5.3501,5.3501,5.3501,5.3501,5.3501,5.3501,5.3501,5.3501,5.3653,5.438,5.4921,5.5513,5.6511,5.712,5.7408,5.7137,5.707,5.707,5.707,5.707,5.6934,5.6494,5.6393,5.6258,5.5801,5.6089,5.6393,5.6393,5.6765,5.707,5.707,5.707,5.707,5.707,5.6681,5.6393,5.6393,5.5987,5.5598,5.531,5.504,5.4702,5.4296,5.3839,5.3601,5.3717,5.3634,5.3551,5.3501,5.3501,5.3501,5.3501,5.3501,5.3501,5.3501,5.3501,5.3501,2.3984,2.4566,2.5538,2.6753,2.8696,3.0768,3.2598,3.4489,3.6368,3.8385,3.8985,3.9121,3.9121,4.0493,4.1601,0.0,4.3833,0.0,0.0,0.0,0.0,0.0,0.0,0.0,0.0,0.0,0.0,0.0,0.0,0.0,0.0,0.0,0.0,0.0,4.8861,4.9001,4.9001,4.9001,4.9001,4.9001,4.9001,4.9255,4.9746,4.9982,5.0642,5.1623,5.2097,5.2604,5.3145,5.3399,5.3501,5.3501,5.3501,5.3501,5.3501,5.3501,5.3501,5.3501,5.3501,5.3501,5.3501,5.3501,5.3501,5.3687,5.4651,5.531,5.5919,5.6867,5.7509,5.7881,5.7881,5.7881,5.7881,5.7881,5.7881,5.7746,5.7256,5.7154,5.7002,5.6494,5.6799,5.7154,5.7154,5.756,5.7881,5.7881,5.7881,5.7881,5.7881,5.7459,5.7154,5.7154,5.6494,5.6055,5.6055,5.5852,5.5497,5.4972,5.4482,5.4008,5.3651,5.3551,5.3501,5.3501,5.3501,5.3501,5.3501,5.3501,5.3501,5.3501,5.3501,5.3501,2.4769,2.4133,2.4169,2.6463,2.8586,3.128,3.5569,3.6522,3.7507,4.0924,4.1063,4.052,4.052,4.1124,0.0,4.1617,4.3848,0.0,0.0,0.0,0.0,0.0,0.0,0.0,0.0,0.0,0.0,0.0,0.0,0.0,0.0,0.0,0.0,0.0,4.8593,4.9001,4.9001,4.9001,4.9001,4.9001,4.9001,4.9001,4.9018,4.9746,5.0084,5.0168,5.164,5.2283,5.235,5.3162,5.3501,5.3501,5.3501,5.3501,5.3501,5.3501,5.3501,5.3501,5.3501,5.3501,5.3501,5.3501,5.3501,5.3771,5.526,5.5681,5.6021,5.7476,5.7881,5.7881,5.7881,5.7881,5.7881,5.7881,5.7881,5.7881,5.7881,5.7881,5.7881,5.7881,5.7881,5.7881,5.7881,5.7881,5.7881,5.7881,5.7881,5.7881,5.7881,5.7881,5.7881,5.7881,5.7239,5.6816,5.6816,5.6156,5.5733,5.5698,5.5698,5.5074,5.3585,5.3518,5.3518,5.3518,5.3501,5.3501,5.3501,5.3501,5.3501,5.3518,5.3518,5.3518,2.4066,2.4965,2.6448,2.8063,3.1561,3.5293,3.7998,3.8985,4.0155,4.3094,4.314,4.2525,4.2078,4.254,0.0,4.2386,0.0,0.0,0.0,0.0,0.0,0.0,0.0,0.0,0.0,0.0,0.0,0.0,0.0,0.0,0.0,0.0,0.0,0.0,4.7819,4.8242,4.8242,4.8719,4.9001,4.9001,4.9001,4.9001,4.9018,4.9221,4.961,5.0101,5.0557,5.1048,5.1589,5.235,5.2993,5.3501,5.3501,5.3501,5.3501,5.3501,5.3501,5.3501,5.3501,5.3501,5.3501,5.3501,5.3501,5.3687,5.4634,5.5294,5.5919,5.6867,5.7492,5.7881,5.7881,5.7881,5.7881,5.7881,5.7881,5.7881,5.7881,5.7881,5.7881,5.7881,5.7881,5.7881,5.7881,5.7881,5.7881,5.7881,5.7881,5.7881,5.7881,5.7881,5.7881,5.7881,5.7695,5.756,5.756,5.7357,5.7019,5.6511,5.6478,5.6055,5.5108,5.4549,5.4262,5.4262,5.3754,5.3501,5.3501,5.3501,5.3771,5.4262,5.4262,5.4549,2.5226,2.6417,2.8223,3.0421,3.3676,3.718,4.0382,4.1447,4.2279,4.4187,4.4071,4.3485,4.3063,4.3347,0.0,0.0,0.0,0.0,0.0,0.0,0.0,0.0,0.0,0.0,0.0,0.0,0.0,0.0,0.0,0.0,0.0,0.0,0.0,0.0,4.7085,4.7456,4.7456,4.7901,4.8274,4.8545,4.8545,4.8719,4.9001,4.9001,4.9238,4.9678,4.9965,5.0524,5.1268,5.1995,5.2587,5.3061,5.3382,5.3501,5.3501,5.3501,5.3501,5.3501,5.3501,5.3501,5.3501,5.3501,5.3501,5.3653,5.438,5.5124,5.5869,5.6596,5.7323,5.7881,5.7881,5.7881,5.7881,5.7881,5.7881,5.7881,5.7881,5.7881,5.7881,5.7881,5.7881,5.7881,5.7881,5.7881,5.7881,5.7881,5.7881,5.7881,5.7881,5.7881,5.7881,5.7881,5.7881,5.7881,5.7881,5.7881,5.7695,5.7256,5.7239,5.7036,5.6596,5.5581,5.504,5.504,5.46,5.438,5.438,5.438,5.46,5.504,5.504,5.5294,2.724,2.8004,2.9454,3.302,3.5289,3.7905,4.2575,4.3664,4.387,4.4486,4.4132,4.3701,4.3701,4.3701,4.3701,0.0,0.0,0.0,0.0,0.0,0.0,0.0,0.0,0.0,0.0,0.0,0.0,0.0,0.0,0.0,0.0,0.0,0.0,4.5624,4.634,4.6708,4.6708,4.6777,4.7153,0.0,4.7819,4.821,4.8892,4.897,4.9001,4.9035,4.9712,5.0422,5.1166,5.1911,5.2249,5.2384,5.3196,5.3501,5.3501,5.3501,5.3501,5.3501,5.3501,5.3501,5.3501,5.3501,5.3501,5.3636,5.4296,5.5006,5.5767,5.6494,5.7222,5.7814,5.7865,5.7881,5.7881,5.7881,5.7881,5.7881,5.7881,5.7881,5.7881,5.7881,5.7881,5.7881,5.7881,5.7881,5.7881,5.7881,5.7881,5.7881,5.7881,5.7881,5.7881,5.7881,5.7881,5.7881,5.7881,5.7881,5.7881,5.7881,5.7881,5.7881,5.7881,5.6562,5.5818,5.5818,5.5715,5.5681,5.5681,5.5681,5.5715,5.5818,5.5818,5.5852,2.5854,2.7375,2.9693,3.3608,3.7798,4.153,4.3669,4.4281,4.444,4.4594,4.4502,4.4394,4.4394,4.4394,0.0,0.0,0.0,0.0,0.0,0.0,0.0,0.0,0.0,0.0,0.0,0.0,0.0,0.0,0.0,0.0,0.0,0.0,0.0,4.4821,4.5567,4.5949,4.5949,4.6499,4.688,0.0,4.7051,4.7422,4.8161,4.8719,4.9001,4.9018,4.9171,4.9661,5.0388,5.1133,5.1792,5.2384,5.3196,5.3501,5.3501,5.3501,5.3501,5.3501,5.3501,5.3501,5.3501,5.3501,5.3501,5.3534,5.3687,5.4245,5.4989,5.5733,5.6478,5.7171,5.7746,5.7881,5.7881,5.7881,5.7881,5.7881,5.7881,5.7881,5.7881,5.7881,5.7881,5.7881,5.7881,5.7881,5.7881,5.7881,5.7881,5.7881,5.7881,5.7881,5.7881,5.7881,5.7881,5.7881,5.7881,5.7881,5.7881,5.7881,5.7881,5.7881,5.7881,5.7036,5.6562,5.6562,5.6004,5.5681,5.5681,5.5681,5.6004,5.6562,5.6562,5.6867,2.6602,2.8539,3.1308,3.6351,3.9829,4.2393,4.3938,4.4396,4.4473,4.4587,4.461,4.461,4.461,0.0,0.0,0.0,0.0,0.0,0.0,0.0,0.0,0.0,0.0,0.0,0.0,0.0,0.0,0.0,0.0,0.0,0.0,4.461,4.461,4.461,4.4971,4.5179,4.5179,4.5551,4.5897,4.6253,4.6253,4.683,4.7917,4.8656,4.9001,4.9001,4.9001,4.9221,4.9627,5.0371,5.1116,5.186,5.2621,5.3162,5.3501,5.3501,5.3501,5.3501,5.3501,5.3501,5.3501,5.3501,5.3501,5.3501,5.3501,5.4008,5.4752,5.5497,5.6241,5.6968,5.7695,5.7881,5.7881,5.7881,5.7881,5.7881,5.7881,5.7881,5.7881,5.7881,5.7881,5.7881,5.7881,5.7881,5.7881,5.7881,5.7881,5.7881,5.7881,5.7881,5.7881,5.7881,5.7881,5.7881,5.7881,5.7881,5.7881,5.7881,5.7881,5.7881,5.7881,5.7526,5.7323,5.7323,5.6951,5.6748,5.6748,5.6748,5.6951,5.7323,5.7323,5.7526,2.7111,2.9759,3.3246,3.9038,4.1083,4.2138,4.3709,4.4205,4.4358,4.4549,4.461,4.461,4.461,0.0,0.0,0.0,0.0,0.0,0.0,0.0,0.0,0.0,0.0,0.0,0.0,0.0,0.0,0.0,0.0,0.0,4.461,4.461,4.461,4.461,4.461,4.461,4.461,4.461,4.4896,4.5515,4.5624,4.6413,4.7721,4.8482,4.8861,4.9001,4.9001,4.9001,4.9069,4.9796,5.0456,5.1116,5.1961,5.2706,5.3315,5.345,5.3501,5.3501,5.3501,5.3501,5.3501,5.3501,5.3501,5.3501,5.3501,5.3923,5.4583,5.548,5.6156,5.6816,5.7679,5.7881,5.7881,5.7881,5.7881,5.7881,5.7881,5.7881,5.7881,5.7881,5.7881,5.7881,5.7881,5.7881,5.7881,5.7881,5.7881,5.7881,5.7881,5.7881,5.7881,5.7881,5.7881,5.7881,5.7881,5.7881,5.7881,5.7881,5.7881,5.7881,5.7881,5.7881,5.7881,5.7881,5.7881,5.7881,5.7881,5.7881,5.7881,5.7881,5.7881,5.7881,2.4029,2.8652,3.4247,3.8517,4.0641,4.1942,4.294,4.3754,4.4358,0.0,4.461,4.461,0.0,0.0,0.0,0.0,0.0,0.0,0.0,0.0,0.0,0.0,0.0,0.0,0.0,0.0,0.0,0.0,0.0,0.0,4.461,4.461,4.461,4.461,4.461,4.461,4.461,4.461,4.4648,4.4761,4.5384,4.6147,4.6983,4.7721,4.8418,4.9001,4.9001,4.9001,4.9069,4.9796,5.0152,5.0371,5.1758,5.2367,5.2536,5.3247,5.3501,5.3501,5.3501,5.3501,5.3501,5.3501,5.3501,5.3501,5.3501,5.3568,5.394,5.5327,5.5749,5.6173,5.7543,5.7881,5.7881,5.7881,5.7881,5.7881,5.7881,5.7881,5.7881,5.7881,5.7881,5.7881,5.7881,5.7881,5.7881,5.7881,5.7881,5.7881,5.7881,5.7881,5.7881,5.7881,5.7881,5.7881,5.7881,5.7881,5.7881,5.7881,5.7881,5.7881,5.7881,5.7881,5.7881,5.7881,5.7881,5.7881,5.7881,5.7881,5.7881,5.7881,5.7881,5.7881,2.6063,2.9879,3.3993,3.8297,3.9931,4.0731,4.1994,4.2652,4.316,4.3753,4.398,0.0,0.0,0.0,0.0,0.0,0.0,0.0,0.0,0.0,0.0,0.0,0.0,0.0,0.0,0.0,0.0,0.0,0.0,4.461,4.461,4.461,4.461,4.461,4.461,4.461,4.461,4.461,4.461,4.461,4.5348,4.5877,4.6218,4.7372,4.8306,4.9001,4.9001,4.9001,4.9035,4.9357,4.9729,5.0202,5.1268,5.1944,5.2401,5.3213,5.3501,5.3501,5.3501,5.3501,5.3501,5.3501,5.3501,5.3501,5.3501,5.3788,5.4346,5.5412,5.6004,5.6562,5.7611,5.7881,5.7881,5.7881,5.7881,5.7881,5.7881,5.7881,5.7881,5.7881,5.7881,5.7881,5.7881,5.7881,5.7881,5.7881,5.7881,5.7881,5.7881,5.7881,5.7881,5.7881,5.7881,5.7881,5.7881,5.7881,5.7881,5.7881,5.7881,5.7881,5.7881,5.7881,5.7881,5.7881,5.7881,5.7881,5.7881,5.7881,5.7881,5.7881,5.7881,5.7881,2.7021,2.9639,3.2123,3.6761,3.8287,3.9101,4.0827,4.1457,4.1923,0.0,0.0,0.0,0.0,0.0,0.0,0.0,0.0,0.0,0.0,0.0,0.0,0.0,0.0,0.0,0.0,0.0,0.0,0.0,0.0,4.461,4.461,4.461,4.4533,4.4363,4.4363,4.4271,4.4079,4.4271,4.4363,4.4363,4.5101,4.5531,4.5733,4.7035,4.8032,4.8719,4.894,4.9001,4.9001,4.9001,4.9323,4.9898,5.0845,5.1555,5.2147,5.3129,5.3501,5.3501,5.3501,5.3501,5.3501,5.3501,5.3501,5.3501,5.3501,5.4008,5.4752,5.5497,5.6241,5.6968,5.7695,5.7881,5.7881,5.7881,5.7881,5.7881,5.7881,5.7881,5.7881,5.7881,5.7881,5.7881,5.7881,5.7881,5.7881,5.7881,5.7881,5.7881,5.7881,5.7881,5.7881,5.7881,5.7881,5.7881,5.7881,5.7881,5.7881,5.7881,5.7881,5.7881,5.7881,5.7881,5.7881,5.7881,5.7881,5.7881,5.7881,5.7881,5.7881,5.7881,5.7881,5.7881,2.3932,2.5869,2.8008,3.2647,3.5235,3.7203,3.9314,0.0,4.1064,4.2114,0.0,0.0,0.0,0.0,0.0,0.0,0.0,0.0,0.0,0.0,0.0,0.0,0.0,0.0,0.0,0.0,0.0,0.0,0.0,4.461,4.461,4.461,4.4317,4.3685,4.3655,4.3362,4.2709,4.331,4.3655,4.367,4.4339,4.503,4.5733,4.6499,4.7254,4.7999,4.8688,4.9001,4.9001,4.9001,4.9018,4.9204,5.0659,5.1202,5.1454,5.2959,5.3501,5.3501,5.3501,5.3501,5.3501,5.3501,5.3501,5.3501,5.3501,5.4008,5.4752,5.5497,5.6241,5.6968,5.7695,5.7881,5.7881,5.7881,5.7881,5.7881,5.7881,5.7881,5.7881,5.7881,5.7881,5.7881,5.7881,5.7881,5.7881,5.7881,5.7881,5.7881,5.7881,5.7881,5.7881,5.7881,5.7881,5.7881,5.7881,5.7881,5.7881,5.7881,5.7881,5.7881,5.7881,5.7881,5.7881,5.7881,5.7881,5.7881,5.7881,5.7881,5.7881,5.7881,5.7881,5.7881,2.343,2.5255,2.7395,3.0731,3.308,3.5013,3.6637,3.8271,3.9642,4.045,0.0,0.0,0.0,0.0,0.0,0.0,0.0,0.0,0.0,0.0,0.0,0.0,0.0,0.0,0.0,0.0,0.0,0.0,0.0,0.0,4.331,4.331,4.3202,4.2971,4.2956,4.2833,4.2602,4.2833,4.3156,4.3608,4.3855,4.4328,4.5046,4.6253,4.6949,4.7254,4.8482,4.9001,4.9001,4.9001,4.9001,4.9154,5.0642,5.1185,5.1371,5.2942,5.3501,5.3501,5.3501,5.3501,5.3501,5.3501,5.3501,5.3602,5.4059,5.4718,5.5463,5.6207,5.6934,5.756,5.7814,5.7881,5.7881,5.7881,5.7881,5.7881,5.7881,5.7881,5.7881,5.7881,5.7881,5.7881,5.7881,5.7881,5.7729,5.7256,5.7594,5.7729,5.7256,5.7594,5.7881,5.7881,5.7881,5.7881,5.7881,5.7881,5.7881,5.7881,5.7881,5.7881,5.7881,5.7881,5.7881,5.7881,5.7881,5.7881,5.7881,5.7881,5.7881,5.7881,5.7881,5.7881,2.2398,2.3924,2.6019,2.9101,3.0522,3.1988,3.5115,3.6427,3.7413,0.0,0.0,0.0,0.0,0.0,0.0,0.0,0.0,0.0,0.0,0.0,0.0,0.0,0.0,0.0,0.0,0.0,0.0,0.0,0.0,0.0,4.2602,4.2602,4.2509,4.2279,4.2032,4.1909,4.1909,4.2155,4.2602,4.3248,4.3501,4.3963,4.4648,4.6127,4.6811,4.688,4.8354,4.9001,4.9001,4.9001,4.9001,4.9154,5.0642,5.1185,5.1371,5.2942,5.3501,5.3501,5.3501,5.3501,5.3501,5.3501,5.3501,5.3653,5.438,5.5124,5.5869,5.6596,5.7323,5.7881,5.7881,5.7881,5.7881,5.7881,5.7881,5.7881,5.7881,5.7881,5.7881,5.7881,5.7881,5.7881,5.7881,5.7881,5.7729,5.7239,5.7577,5.7712,5.7222,5.7594,5.7881,5.7881,5.7881,5.7881,5.7881,5.7881,5.7881,5.7881,5.7881,5.7881,5.7881,5.7881,5.7881,5.7881,5.7881,5.7881,5.7881,5.7881,5.7881,5.7881,5.7881,5.7881,0.0,0.0,0.0,2.747,0.0,0.0,3.4726,0.0,3.437,0.0,0.0,0.0,0.0,0.0,0.0,0.0,0.0,0.0,0.0,0.0,0.0,0.0,0.0,0.0,0.0,0.0,0.0,0.0,0.0,4.254,4.254,4.254,4.2248,4.1586,4.0858,4.0489,4.0489,4.1217,4.1909,4.2617,4.3285,4.3947,4.4648,4.6111,4.6777,4.688,4.8354,4.897,4.9001,4.9001,4.9001,4.9154,5.0642,5.1185,5.1371,5.2942,5.3501,5.3501,5.3501,5.3501,5.3501,5.3501,5.3501,5.3653,5.4397,5.5141,5.5869,5.663,5.734,5.7881,5.7881,5.7881,5.7881,5.7881,5.7881,5.7881,5.7881,5.7881,5.7881,5.7881,5.7881,5.7881,5.7881,5.7881,5.7881,5.7865,5.7865,5.7865,5.7865,5.7865,5.7865,5.7881,5.7881,5.7881,5.7881,5.7881,5.7881,5.7881,5.7881,5.7881,5.7881,5.7881,5.7881,5.7881,5.7881,5.7881,5.7881,5.7881,5.7881,5.7881,5.7881,5.7881,2.1425,0.0,0.0,0.0,0.0,0.0,0.0,0.0,0.0,0.0,0.0,0.0,0.0,0.0,0.0,0.0,0.0,0.0,0.0,0.0,0.0,0.0,0.0,0.0,0.0,0.0,0.0,0.0,4.1074,4.1074,4.1074,4.1074,4.0981,4.0797,4.0597,4.0489,4.0489,4.0689,4.1397,4.2602,4.2786,4.3464,4.4648,4.5551,4.6288,4.6846,4.7803,4.8513,4.9001,4.9001,4.9001,4.9154,5.0642,5.1185,5.1371,5.2942,5.3501,5.3501,5.3501,5.3501,5.3501,5.3501,5.3501,5.3737,5.5023,5.5547,5.597,5.7239,5.7729,5.7881,5.7881,5.7881,5.7881,5.7881,5.7881,5.7881,5.7881,5.7881,5.7881,5.7881,5.7881,5.7881,5.7881,5.7881,5.7712,5.7171,5.7103,5.7103,5.7103,5.7103,5.7306,5.7831,5.7881,5.7881,5.7881,5.7881,5.7881,5.7881,5.7881,5.7881,5.7881,5.7881,5.7881,5.7881,5.7881,5.7881,5.7881,5.7881,5.7881,5.7881,5.7881,5.7881,2.2248,2.2832,2.3714,2.4215,0.0,0.0,0.0,2.8697,0.0,0.0,0.0,0.0,0.0,0.0,0.0,0.0,0.0,0.0,0.0,0.0,0.0,0.0,0.0,0.0,0.0,0.0,0.0,4.0489,4.0489,4.0489,4.0489,4.0489,4.0489,4.0489,4.0489,4.0489,4.0489,4.0489,4.1058,4.2186,4.2479,4.3156,4.4231,4.5555,4.6394,4.6846,4.7901,4.8593,4.9001,4.9001,4.9001,4.9154,5.0642,5.1185,5.1371,5.2942,5.3501,5.3501,5.3501,5.3501,5.3501,5.3501,5.3501,5.3788,5.5225,5.5681,5.6021,5.7476,5.7881,5.7881,5.7881,5.7881,5.7881,5.7881,5.7881,5.7881,5.7881,5.7881,5.7881,5.7881,5.7881,5.7881,5.7881,5.7881,5.7746,5.7323,5.7256,5.7256,5.7256,5.7256,5.7408,5.7831,5.7881,5.7881,5.7881,5.7881,5.7881,5.7881,5.7881,5.7881,5.7881,5.7881,5.7881,5.7881,5.7881,5.7881,5.7881,5.7881,5.7881,5.7881,5.7881,5.7881,2.3452,2.3586,2.4418,2.5974,2.4283,0.0,2.9164,2.8786,2.8453,0.0,0.0,0.0,0.0,0.0,0.0,0.0,0.0,0.0,0.0,0.0,0.0,0.0,0.0,0.0,4.1478,4.0858,4.0489,4.0489,4.0489,4.0489,4.0489,4.0489,4.0489,4.0489,4.0489,4.0489,4.0489,4.0489,4.0858,4.1617,4.2279,4.294,4.3661,4.5738,4.6708,4.688,4.8274,4.8923,4.9001,4.9001,4.9001,4.9154,5.0642,5.1185,5.1371,5.2942,5.3501,5.3501,5.3501,5.3501,5.3501,5.3501,5.3501,5.3771,5.5175,5.5649,5.6021,5.7476,5.7881,5.7881,5.7881,5.7881,5.7881,5.7881,5.7881,5.7881,5.7881,5.7881,5.7881,5.7881,5.7881,5.7881,5.7881,5.7881,5.7881,5.7881,5.7814,5.7797,5.7881,5.7814,5.7797,5.7881,5.7881,5.7881,5.7881,5.7881,5.7881,5.7881,5.7881,5.7881,5.7881,5.7881,5.7881,5.7881,5.7881,5.7881,5.7881,5.7881,5.7881,5.7881,5.7881,5.7881,2.5899,2.6327,2.6537,2.5315,0.0,0.0,2.3924,2.4448,2.5591,0.0,0.0,0.0,0.0,0.0,0.0,0.0,0.0,0.0,0.0,0.0,0.0,0.0,0.0,0.0,4.0705,4.0566,4.0489,4.0489,4.0489,4.0489,4.0489,4.0489,4.0489,4.0489,4.0489,4.0489,4.0489,4.0489,4.0858,4.1617,4.2279,4.294,4.3661,4.5216,4.6218,4.6846,4.7721,4.845,4.9001,4.9001,4.9001,4.9154,5.0642,5.1185,5.1371,5.2942,5.3501,5.3501,5.3501,5.3501,5.3501,5.3501,5.3501,5.367,5.4549,5.5243,5.6021,5.7476,5.7881,5.7881,5.7881,5.7881,5.7881,5.7881,5.7881,5.7881,5.7881,5.7881,5.7881,5.7881,5.7881,5.7881,5.7881,5.7881,5.7881,5.7881,5.7391,5.7222,5.7814,5.7374,5.7239,5.7831,5.7881,5.7881,5.7881,5.7881,5.7881,5.7881,5.7881,5.7881,5.7881,5.7881,5.7881,5.7881,5.7881,5.7881,5.7881,5.7881,5.7881,5.7881,5.7881,5.7881,2.7285,2.7345,2.745,2.6767,0.0,0.0,0.0,0.0,0.0,0.0,0.0,0.0,0.0,0.0,0.0,0.0,0.0,0.0,0.0,0.0,0.0,0.0,0.0,0.0,3.9982,4.029,4.0489,4.0489,4.0489,4.0489,4.0489,4.0489,4.0489,4.0489,4.0489,4.0489,4.0489,4.0489,4.0674,4.1078,4.2109,4.2771,4.3162,4.5294,4.6464,4.6846,4.7967,4.8656,4.9001,4.9001,4.9001,4.9154,5.0642,5.1185,5.1371,5.2942,5.3501,5.3501,5.3501,5.3501,5.3501,5.3501,5.3501,5.3653,5.438,5.5378,5.641,5.7137,5.7611,5.7881,5.7881,5.7881,5.7881,5.7881,5.7881,5.7881,5.7881,5.7881,5.7881,5.7881,5.7881,5.7881,5.7881,5.7881,5.7881,5.7881,5.7577,5.7476,5.7831,5.7577,5.7492,5.7848,5.7881,5.7881,5.7881,5.7881,5.7881,5.7881,5.7881,5.7881,5.7881,5.7881,5.7881,5.7881,5.7881,5.7881,5.7881,5.7881,5.7881,5.7881,5.7881,5.7881,0.0,0.0,0.0,0.0,0.0,2.589,0.0,0.0,0.0,0.0,0.0,0.0,0.0,0.0,0.0,0.0,0.0,0.0,0.0,0.0,0.0,0.0,0.0,0.0,0.0,3.9351,3.9736,4.0259,3.9936,3.989,4.0274,4.0428,4.0489,4.0489,4.0489,4.0489,4.0489,4.0489,4.0489,4.0505,4.194,4.2602,4.2684,4.5349,4.6673,4.688,4.821,4.8861,4.9001,4.9001,4.9001,4.9137,5.0473,5.1082,5.1386,5.2773,5.3365,5.3501,5.3501,5.3501,5.3501,5.3501,5.3501,5.3653,5.438,5.553,5.663,5.6765,5.7323,5.7881,5.7881,5.7881,5.7881,5.7881,5.7881,5.7881,5.7881,5.7881,5.7881,5.7881,5.7881,5.7881,5.7881,5.7881,5.7881,5.7881,5.7881,5.7881,5.7881,5.7881,5.7881,5.7881,5.7881,5.7881,5.7881,5.7881,5.7881,5.7881,5.7881,5.7881,5.7881,5.7881,5.7881,5.7881,5.7881,5.7881,5.7881,5.7881,5.7881,5.7881,5.7881,5.7881,0.0,0.0,0.0,0.0,2.8771,0.0,0.0,0.0,0.0,0.0,0.0,0.0,0.0,0.0,0.0,0.0,0.0,0.0,0.0,0.0,0.0,0.0,0.0,0.0,0.0,0.0,3.7046,3.9413,3.7969,3.7738,3.9539,4.0166,4.0489,4.0489,4.0489,4.0489,4.0489,4.0489,4.0489,4.0505,4.194,4.2602,4.2684,4.4845,4.6182,4.6846,4.7655,4.8418,4.9001,4.9001,4.9001,4.9086,4.9898,5.0625,5.1286,5.2131,5.2892,5.3501,5.3501,5.3501,5.3501,5.3501,5.3501,5.3653,5.438,5.5175,5.597,5.663,5.7323,5.7881,5.7881,5.7881,5.7881,5.7881,5.7881,5.7881,5.7881,5.7881,5.7881,5.7881,5.7881,5.7881,5.7881,5.7881,5.7881,5.7881,5.7881,5.7881,5.7881,5.7881,5.7881,5.7881,5.7881,5.7881,5.7881,5.7881,5.7881,5.7881,5.7881,5.7881,5.7881,5.7881,5.7881,5.7881,5.7881,5.7881,5.7881,5.7881,5.7881,5.7881,5.7881,5.7881,0.0,0.0,0.0,0.0,0.0,0.0,2.5241,0.0,2.4433,0.0,0.0,0.0,0.0,0.0,0.0,0.0,0.0,0.0,0.0,0.0,0.0,0.0,0.0,0.0,0.0,0.0,0.0,0.0,0.0,3.689,3.9351,3.9751,4.009,4.0489,4.0489,4.0489,4.0489,4.0489,4.0489,4.0505,4.194,4.2602,4.2648,4.4736,4.6111,4.6846,4.7589,4.8306,4.9001,4.9001,4.9001,4.9069,4.9796,5.0557,5.1269,5.2029,5.2807,5.3501,5.3501,5.3501,5.3501,5.3501,5.3501,5.3568,5.3873,5.4786,5.5749,5.6089,5.7002,5.7881,5.7881,5.7881,5.7881,5.7881,5.7881,5.7881,5.7881,5.7881,5.7881,5.7881,5.7881,5.7881,5.7881,5.7881,5.7881,5.7881,5.7881,5.7881,5.7881,5.7881,5.7881,5.7881,5.7881,5.7881,5.7881,5.7881,5.7881,5.7881,5.7881,5.7881,5.7881,5.7881,5.7881,5.7881,5.7881,5.7881,5.7881,5.7881,5.7881,5.7881,5.7881,5.7881,3.1734,0.0,0.0,0.0,0.0,0.0,0.0,0.0,0.0,0.0,0.0,0.0,0.0,0.0,0.0,0.0,0.0,0.0,0.0,0.0,0.0,0.0,0.0,0.0,0.0,0.0,0.0,0.0,0.0,0.0,3.8767,3.929,3.9705,4.0197,4.0397,4.0489,4.0489,4.0489,4.0489,4.0505,4.194,4.2602,4.2648,4.4736,4.6111,4.6846,4.7589,4.8306,4.9001,4.9001,4.9001,4.9069,4.9796,5.0557,5.1269,5.2029,5.2807,5.3501,5.3501,5.3501,5.3501,5.3501,5.3501,5.3551,5.3737,5.4702,5.575,5.5953,5.6917,5.7881,5.7881,5.7881,5.7881,5.7881,5.7881,5.7881,5.7881,5.7881,5.7881,5.7881,5.7881,5.7881,5.7881,5.7881,5.7881,5.7881,5.7881,5.7881,5.7881,5.7881,5.7881,5.7881,5.7881,5.7881,5.7881,5.7881,5.7881,5.7881,5.7881,5.7881,5.7881,5.7881,5.7881,5.7881,5.7881,5.7881,5.7881,5.7881,5.7881,5.7881,5.7881,5.7881,0.0,0.0,0.0,2.9445,0.0,0.0,0.0,0.0,2.6318,0.0,0.0,0.0,0.0,0.0,0.0,0.0,0.0,0.0,0.0,0.0,0.0,0.0,0.0,0.0,0.0,0.0,0.0,0.0,0.0,0.0,3.7353,3.88,3.949,3.9521,4.0151,4.0489,4.0489,4.0489,4.0489,4.0505,4.194,4.2602,4.2648,4.4736,4.6111,4.6846,4.7589,4.8306,4.9001,4.9001,4.9001,4.9069,4.9796,5.0557,5.1269,5.2029,5.2807,5.3501,5.3501,5.3501,5.3501,5.3501,5.3501,5.3636,5.4346,5.5108,5.5869,5.6562,5.7306,5.7881,5.7881,5.7881,5.7881,5.7881,5.7881,5.7881,5.7881,5.7881,5.7881,5.7881,5.7881,5.7881,5.7881,5.7881,5.7881,5.7881,5.7881,5.7881,5.7881,5.7881,5.7881,5.7881,5.7881,5.7881,5.7881,5.7881,5.7881,5.7881,5.7881,5.7881,5.7881,5.7881,5.7881,5.7881,5.7881,5.7881,5.7881,5.7881,5.7881,5.7881,5.7881,5.7881,0.0,0.0,3.519,3.1436,0.0,0.0,0.0,0.0,0.0,0.0,0.0,0.0,0.0,0.0,0.0,0.0,0.0,0.0,0.0,0.0,0.0,0.0,0.0,0.0,0.0,0.0,0.0,0.0,3.1658,0.0,0.0,3.7446,3.8385,3.8831,3.9905,4.0489,4.0489,4.0489,4.0489,4.0505,4.194,4.2602,4.2648,4.4736,4.6111,4.6846,4.7589,4.8306,4.9001,4.9001,4.9001,4.912,5.0355,5.0997,5.1269,5.2029,5.2807,5.3501,5.3501,5.3501,5.3501,5.3501,5.3501,5.3653,5.438,5.5124,5.5869,5.6596,5.7323,5.7881,5.7881,5.7881,5.7881,5.7881,5.7881,5.7881,5.7881,5.7881,5.7881,5.7881,5.7881,5.7881,5.7881,5.7881,5.7881,5.7881,5.7881,5.7881,5.7881,5.7881,5.7881,5.7881,5.7881,5.7881,5.7881,5.7881,5.7881,5.7881,5.7881,5.7881,5.7881,5.7881,5.7881,5.7881,5.7881,5.7881,5.7881,5.7881,5.7881,5.7881,5.7881,5.7881,3.5923,3.6462,0.0,3.3335,3.2378,0.0,2.8098,0.0,0.0,0.0,0.0,0.0,0.0,0.0,0.0,0.0,0.0,0.0,0.0,0.0,0.0,0.0,0.0,0.0,0.0,0.0,2.8295,3.1797,3.0221,0.0,0.0,0.0,3.7446,3.8123,3.9428,4.0259,4.0489,4.0489,4.0489,4.0505,4.194,4.2602,4.2684,4.5009,4.6359,4.6846,4.7869,4.8545,4.9001,4.9001,4.9001,4.9154,5.0642,5.1185,5.1303,5.235,5.3061,5.3501,5.3501,5.3501,5.3501,5.3501,5.3501,5.3687,5.4685,5.5327,5.5919,5.6917,5.7526,5.7881,5.7881,5.7881,5.7881,5.7881,5.7881,5.7881,5.7881,5.7881,5.7881,5.7881,5.7881,5.7881,5.7881,5.7881,5.7881,5.7881,5.7881,5.7881,5.7881,5.7881,5.7881,5.7881,5.7881,5.7881,5.7881,5.7881,5.7881,5.7881,5.7881,5.7881,5.7881,5.7881,5.7881,5.7881,5.7881,5.7881,5.7881,5.7881,5.7881,5.7881,5.7881,5.7881]}]]